<?xml version="1.0" encoding="UTF-8" standalone="no" ?>
<gpx xmlns="http://www.topografix.com/GPX/1/1" xmlns:xsi="http://www.w3.org/2001/XMLSchema-instance" xsi:schemaLocation="http://www.topografix.com/GPX/1/1 http://www.topografix.com/GPX/1/1/gpx.xsd" version="1.1" creator="VisuGPX - https://www.visugpx.com">
  <metadata>
    <name>GR5, j19, refuge de Rosuel &gt; refuge de la Balme Tarentaise</name>
    <desc><![CDATA[Merci au gentil automobiliste qui nous a emmenés de Peisey-Nancroix à Bellentre.]]></desc>
  </metadata>
  <trk>
    <name><![CDATA[GR5, j19, refuge de Rosuel > refuge de la Balme Tarentaise_1]]></name>
    <trkseg>
      <trkpt lat="45.5188" lon="6.80411">
        <ele>1561.5523846409</ele>
        <time>2019-07-06T05:03:18Z</time>
      </trkpt>
      <trkpt lat="45.51875" lon="6.80406">
        <ele>1546.6615848829</ele>
        <time>2019-07-06T05:03:19Z</time>
      </trkpt>
      <trkpt lat="45.51876" lon="6.80405">
        <ele>1561.5525002744</ele>
        <time>2019-07-06T05:03:20Z</time>
      </trkpt>
      <trkpt lat="45.51876" lon="6.80405">
        <ele>1549.5858406114</ele>
        <time>2019-07-06T05:03:22Z</time>
      </trkpt>
      <trkpt lat="45.51878" lon="6.80403">
        <ele>1561.5525131097</ele>
        <time>2019-07-06T05:03:24Z</time>
      </trkpt>
      <trkpt lat="45.51878" lon="6.80401">
        <ele>1561.5525131213</ele>
        <time>2019-07-06T05:03:25Z</time>
      </trkpt>
      <trkpt lat="45.5188" lon="6.80399">
        <ele>1561.5525131225</ele>
        <time>2019-07-06T05:03:27Z</time>
      </trkpt>
      <trkpt lat="45.51882" lon="6.80397">
        <ele>1561.5525131226</ele>
        <time>2019-07-06T05:03:29Z</time>
      </trkpt>
      <trkpt lat="45.51883" lon="6.80394">
        <ele>1561.5525131226</ele>
        <time>2019-07-06T05:03:31Z</time>
      </trkpt>
      <trkpt lat="45.51882" lon="6.8039">
        <ele>1561.5525131226</ele>
        <time>2019-07-06T05:03:33Z</time>
      </trkpt>
      <trkpt lat="45.51882" lon="6.80387">
        <ele>1555.2238710385</ele>
        <time>2019-07-06T05:03:35Z</time>
      </trkpt>
      <trkpt lat="45.51883" lon="6.80384">
        <ele>1560.366299454</ele>
        <time>2019-07-06T05:03:37Z</time>
      </trkpt>
      <trkpt lat="45.51883" lon="6.8038">
        <ele>1558.8731305723</ele>
        <time>2019-07-06T05:03:39Z</time>
      </trkpt>
      <trkpt lat="45.51883" lon="6.80375">
        <ele>1557.0586782814</ele>
        <time>2019-07-06T05:03:41Z</time>
      </trkpt>
      <trkpt lat="45.51883" lon="6.80372">
        <ele>1555.1985220398</ele>
        <time>2019-07-06T05:03:43Z</time>
      </trkpt>
      <trkpt lat="45.51884" lon="6.80368">
        <ele>1553.7948344244</ele>
        <time>2019-07-06T05:03:46Z</time>
      </trkpt>
      <trkpt lat="45.51884" lon="6.80364">
        <ele>1552.2091770582</ele>
        <time>2019-07-06T05:03:48Z</time>
      </trkpt>
      <trkpt lat="45.51885" lon="6.80361">
        <ele>1550.9778151135</ele>
        <time>2019-07-06T05:03:50Z</time>
      </trkpt>
      <trkpt lat="45.51886" lon="6.80358">
        <ele>1550.2183872362</ele>
        <time>2019-07-06T05:03:52Z</time>
      </trkpt>
      <trkpt lat="45.51887" lon="6.80355">
        <ele>1550.2084968149</ele>
        <time>2019-07-06T05:03:54Z</time>
      </trkpt>
      <trkpt lat="45.51888" lon="6.8035">
        <ele>1550.2083979107</ele>
        <time>2019-07-06T05:03:56Z</time>
      </trkpt>
      <trkpt lat="45.51888" lon="6.80347">
        <ele>1550.2083969216</ele>
        <time>2019-07-06T05:03:58Z</time>
      </trkpt>
      <trkpt lat="45.51888" lon="6.80343">
        <ele>1550.2083969117</ele>
        <time>2019-07-06T05:04:00Z</time>
      </trkpt>
      <trkpt lat="45.51888" lon="6.80338">
        <ele>1550.2083969116</ele>
        <time>2019-07-06T05:04:02Z</time>
      </trkpt>
      <trkpt lat="45.51887" lon="6.80333">
        <ele>1550.2083969116</ele>
        <time>2019-07-06T05:04:04Z</time>
      </trkpt>
      <trkpt lat="45.51886" lon="6.80331">
        <ele>1550.2083969116</ele>
        <time>2019-07-06T05:04:05Z</time>
      </trkpt>
      <trkpt lat="45.51886" lon="6.80327">
        <ele>1550.2083969116</ele>
        <time>2019-07-06T05:04:07Z</time>
      </trkpt>
      <trkpt lat="45.51885" lon="6.80322">
        <ele>1550.2083969116</ele>
        <time>2019-07-06T05:04:09Z</time>
      </trkpt>
      <trkpt lat="45.51886" lon="6.80319">
        <ele>1550.2083969116</ele>
        <time>2019-07-06T05:04:11Z</time>
      </trkpt>
      <trkpt lat="45.51886" lon="6.80315">
        <ele>1550.2083969116</ele>
        <time>2019-07-06T05:04:13Z</time>
      </trkpt>
      <trkpt lat="45.51885" lon="6.80312">
        <ele>1550.2083969116</ele>
        <time>2019-07-06T05:04:15Z</time>
      </trkpt>
      <trkpt lat="45.51884" lon="6.80309">
        <ele>1550.2083969116</ele>
        <time>2019-07-06T05:04:17Z</time>
      </trkpt>
      <trkpt lat="45.51885" lon="6.80306">
        <ele>1550.2083969116</ele>
        <time>2019-07-06T05:04:19Z</time>
      </trkpt>
      <trkpt lat="45.51885" lon="6.80301">
        <ele>1550.2083969116</ele>
        <time>2019-07-06T05:04:21Z</time>
      </trkpt>
      <trkpt lat="45.51885" lon="6.80297">
        <ele>1550.2083969116</ele>
        <time>2019-07-06T05:04:23Z</time>
      </trkpt>
      <trkpt lat="45.51886" lon="6.80293">
        <ele>1550.2083969116</ele>
        <time>2019-07-06T05:04:25Z</time>
      </trkpt>
      <trkpt lat="45.51886" lon="6.80289">
        <ele>1550.2083969116</ele>
        <time>2019-07-06T05:04:27Z</time>
      </trkpt>
      <trkpt lat="45.51885" lon="6.80286">
        <ele>1550.2083969116</ele>
        <time>2019-07-06T05:04:29Z</time>
      </trkpt>
      <trkpt lat="45.51884" lon="6.80281">
        <ele>1550.2083969116</ele>
        <time>2019-07-06T05:04:31Z</time>
      </trkpt>
      <trkpt lat="45.51884" lon="6.80276">
        <ele>1550.2083969116</ele>
        <time>2019-07-06T05:04:33Z</time>
      </trkpt>
      <trkpt lat="45.51885" lon="6.80272">
        <ele>1550.2083969116</ele>
        <time>2019-07-06T05:04:35Z</time>
      </trkpt>
      <trkpt lat="45.51885" lon="6.80269">
        <ele>1550.2083969116</ele>
        <time>2019-07-06T05:04:37Z</time>
      </trkpt>
      <trkpt lat="45.51886" lon="6.80267">
        <ele>1550.2083969116</ele>
        <time>2019-07-06T05:04:39Z</time>
      </trkpt>
      <trkpt lat="45.51886" lon="6.80263">
        <ele>1550.2083969116</ele>
        <time>2019-07-06T05:04:41Z</time>
      </trkpt>
      <trkpt lat="45.51886" lon="6.80259">
        <ele>1550.2083969116</ele>
        <time>2019-07-06T05:04:43Z</time>
      </trkpt>
      <trkpt lat="45.51887" lon="6.80255">
        <ele>1550.2083969116</ele>
        <time>2019-07-06T05:04:45Z</time>
      </trkpt>
      <trkpt lat="45.51887" lon="6.80253">
        <ele>1550.2083969116</ele>
        <time>2019-07-06T05:04:46Z</time>
      </trkpt>
      <trkpt lat="45.51888" lon="6.80249">
        <ele>1550.2083969116</ele>
        <time>2019-07-06T05:04:48Z</time>
      </trkpt>
      <trkpt lat="45.5189" lon="6.80246">
        <ele>1550.2083969116</ele>
        <time>2019-07-06T05:04:50Z</time>
      </trkpt>
      <trkpt lat="45.51893" lon="6.80244">
        <ele>1550.2083969116</ele>
        <time>2019-07-06T05:04:52Z</time>
      </trkpt>
      <trkpt lat="45.51897" lon="6.80243">
        <ele>1550.2083969116</ele>
        <time>2019-07-06T05:04:54Z</time>
      </trkpt>
      <trkpt lat="45.51899" lon="6.80243">
        <ele>1550.2083969116</ele>
        <time>2019-07-06T05:04:55Z</time>
      </trkpt>
      <trkpt lat="45.51902" lon="6.80243">
        <ele>1550.2083969116</ele>
        <time>2019-07-06T05:04:57Z</time>
      </trkpt>
      <trkpt lat="45.51903" lon="6.80242">
        <ele>1550.2083969116</ele>
        <time>2019-07-06T05:04:58Z</time>
      </trkpt>
      <trkpt lat="45.51905" lon="6.80241">
        <ele>1550.2083969116</ele>
        <time>2019-07-06T05:05:00Z</time>
      </trkpt>
      <trkpt lat="45.51908" lon="6.80239">
        <ele>1550.2083969116</ele>
        <time>2019-07-06T05:05:02Z</time>
      </trkpt>
      <trkpt lat="45.51911" lon="6.80238">
        <ele>1550.2083969116</ele>
        <time>2019-07-06T05:05:04Z</time>
      </trkpt>
      <trkpt lat="45.51913" lon="6.80237">
        <ele>1550.2083969116</ele>
        <time>2019-07-06T05:05:05Z</time>
      </trkpt>
      <trkpt lat="45.51916" lon="6.80237">
        <ele>1550.2083969116</ele>
        <time>2019-07-06T05:05:07Z</time>
      </trkpt>
      <trkpt lat="45.51918" lon="6.80237">
        <ele>1550.2083969116</ele>
        <time>2019-07-06T05:05:09Z</time>
      </trkpt>
      <trkpt lat="45.5192" lon="6.80238">
        <ele>1550.2083969116</ele>
        <time>2019-07-06T05:05:11Z</time>
      </trkpt>
      <trkpt lat="45.51923" lon="6.80239">
        <ele>1550.2083969116</ele>
        <time>2019-07-06T05:05:13Z</time>
      </trkpt>
      <trkpt lat="45.51926" lon="6.80241">
        <ele>1550.2083969116</ele>
        <time>2019-07-06T05:05:17Z</time>
      </trkpt>
      <trkpt lat="45.51928" lon="6.80242">
        <ele>1550.2083969116</ele>
        <time>2019-07-06T05:05:18Z</time>
      </trkpt>
      <trkpt lat="45.5193" lon="6.80244">
        <ele>1550.2083969116</ele>
        <time>2019-07-06T05:05:20Z</time>
      </trkpt>
      <trkpt lat="45.51932" lon="6.80246">
        <ele>1550.2083969116</ele>
        <time>2019-07-06T05:05:22Z</time>
      </trkpt>
      <trkpt lat="45.51935" lon="6.8025">
        <ele>1550.2083969116</ele>
        <time>2019-07-06T05:05:24Z</time>
      </trkpt>
      <trkpt lat="45.51937" lon="6.80253">
        <ele>1550.2083969116</ele>
        <time>2019-07-06T05:05:26Z</time>
      </trkpt>
      <trkpt lat="45.5194" lon="6.80255">
        <ele>1550.2083969116</ele>
        <time>2019-07-06T05:05:28Z</time>
      </trkpt>
      <trkpt lat="45.51942" lon="6.80258">
        <ele>1550.2083969116</ele>
        <time>2019-07-06T05:05:30Z</time>
      </trkpt>
      <trkpt lat="45.51945" lon="6.8026">
        <ele>1550.2083969116</ele>
        <time>2019-07-06T05:05:32Z</time>
      </trkpt>
      <trkpt lat="45.51946" lon="6.80261">
        <ele>1550.2083969116</ele>
        <time>2019-07-06T05:05:33Z</time>
      </trkpt>
      <trkpt lat="45.51948" lon="6.8026">
        <ele>1550.2083969116</ele>
        <time>2019-07-06T05:05:34Z</time>
      </trkpt>
      <trkpt lat="45.5195" lon="6.80261">
        <ele>1550.2083969116</ele>
        <time>2019-07-06T05:05:36Z</time>
      </trkpt>
      <trkpt lat="45.51952" lon="6.80262">
        <ele>1550.2083969116</ele>
        <time>2019-07-06T05:05:38Z</time>
      </trkpt>
      <trkpt lat="45.51954" lon="6.80264">
        <ele>1550.2083969116</ele>
        <time>2019-07-06T05:05:40Z</time>
      </trkpt>
      <trkpt lat="45.51956" lon="6.80265">
        <ele>1550.2083969116</ele>
        <time>2019-07-06T05:05:41Z</time>
      </trkpt>
      <trkpt lat="45.51958" lon="6.80265">
        <ele>1550.2083969116</ele>
        <time>2019-07-06T05:05:42Z</time>
      </trkpt>
      <trkpt lat="45.51961" lon="6.80266">
        <ele>1550.2083969116</ele>
        <time>2019-07-06T05:05:44Z</time>
      </trkpt>
      <trkpt lat="45.51963" lon="6.80267">
        <ele>1550.2083969116</ele>
        <time>2019-07-06T05:05:46Z</time>
      </trkpt>
      <trkpt lat="45.51966" lon="6.80268">
        <ele>1550.2083969116</ele>
        <time>2019-07-06T05:05:48Z</time>
      </trkpt>
      <trkpt lat="45.51968" lon="6.80269">
        <ele>1550.2083969116</ele>
        <time>2019-07-06T05:05:49Z</time>
      </trkpt>
      <trkpt lat="45.51971" lon="6.8027">
        <ele>1550.2083969116</ele>
        <time>2019-07-06T05:05:51Z</time>
      </trkpt>
      <trkpt lat="45.51973" lon="6.80271">
        <ele>1550.2083969116</ele>
        <time>2019-07-06T05:05:53Z</time>
      </trkpt>
      <trkpt lat="45.51976" lon="6.80271">
        <ele>1550.2083969116</ele>
        <time>2019-07-06T05:05:55Z</time>
      </trkpt>
      <trkpt lat="45.51978" lon="6.8027">
        <ele>1550.2083969116</ele>
        <time>2019-07-06T05:05:57Z</time>
      </trkpt>
      <trkpt lat="45.51979" lon="6.8027">
        <ele>1550.2083969116</ele>
        <time>2019-07-06T05:05:58Z</time>
      </trkpt>
      <trkpt lat="45.51981" lon="6.80271">
        <ele>1550.2083969116</ele>
        <time>2019-07-06T05:05:59Z</time>
      </trkpt>
      <trkpt lat="45.51983" lon="6.80272">
        <ele>1550.2083969116</ele>
        <time>2019-07-06T05:06:01Z</time>
      </trkpt>
      <trkpt lat="45.51985" lon="6.80272">
        <ele>1550.2083969116</ele>
        <time>2019-07-06T05:06:02Z</time>
      </trkpt>
      <trkpt lat="45.51988" lon="6.80272">
        <ele>1550.2083969116</ele>
        <time>2019-07-06T05:06:03Z</time>
      </trkpt>
      <trkpt lat="45.5199" lon="6.80272">
        <ele>1550.2083969116</ele>
        <time>2019-07-06T05:06:05Z</time>
      </trkpt>
      <trkpt lat="45.51992" lon="6.80272">
        <ele>1550.2083969116</ele>
        <time>2019-07-06T05:06:06Z</time>
      </trkpt>
      <trkpt lat="45.51994" lon="6.80272">
        <ele>1550.2083969116</ele>
        <time>2019-07-06T05:06:08Z</time>
      </trkpt>
      <trkpt lat="45.51998" lon="6.80273">
        <ele>1550.2083969116</ele>
        <time>2019-07-06T05:06:10Z</time>
      </trkpt>
      <trkpt lat="45.52" lon="6.80274">
        <ele>1550.2083969116</ele>
        <time>2019-07-06T05:06:12Z</time>
      </trkpt>
      <trkpt lat="45.52001" lon="6.80275">
        <ele>1550.2083969116</ele>
        <time>2019-07-06T05:06:13Z</time>
      </trkpt>
      <trkpt lat="45.52003" lon="6.80276">
        <ele>1550.2083969116</ele>
        <time>2019-07-06T05:06:14Z</time>
      </trkpt>
      <trkpt lat="45.52005" lon="6.80278">
        <ele>1550.2083969116</ele>
        <time>2019-07-06T05:06:16Z</time>
      </trkpt>
      <trkpt lat="45.52008" lon="6.80281">
        <ele>1550.2083969116</ele>
        <time>2019-07-06T05:06:18Z</time>
      </trkpt>
      <trkpt lat="45.52011" lon="6.80281">
        <ele>1550.2083969116</ele>
        <time>2019-07-06T05:06:20Z</time>
      </trkpt>
      <trkpt lat="45.52013" lon="6.80282">
        <ele>1550.2083969116</ele>
        <time>2019-07-06T05:06:22Z</time>
      </trkpt>
      <trkpt lat="45.52015" lon="6.80282">
        <ele>1550.2083969116</ele>
        <time>2019-07-06T05:06:23Z</time>
      </trkpt>
      <trkpt lat="45.52016" lon="6.80284">
        <ele>1550.2083969116</ele>
        <time>2019-07-06T05:06:24Z</time>
      </trkpt>
      <trkpt lat="45.52019" lon="6.80284">
        <ele>1550.2083969116</ele>
        <time>2019-07-06T05:06:26Z</time>
      </trkpt>
      <trkpt lat="45.52021" lon="6.80285">
        <ele>1550.2083969116</ele>
        <time>2019-07-06T05:06:29Z</time>
      </trkpt>
      <trkpt lat="45.52024" lon="6.80286">
        <ele>1550.2083969116</ele>
        <time>2019-07-06T05:06:31Z</time>
      </trkpt>
      <trkpt lat="45.52026" lon="6.80287">
        <ele>1550.2083969116</ele>
        <time>2019-07-06T05:06:33Z</time>
      </trkpt>
      <trkpt lat="45.52028" lon="6.8029">
        <ele>1550.2083969116</ele>
        <time>2019-07-06T05:06:35Z</time>
      </trkpt>
      <trkpt lat="45.52031" lon="6.80291">
        <ele>1550.2083969116</ele>
        <time>2019-07-06T05:06:37Z</time>
      </trkpt>
      <trkpt lat="45.52034" lon="6.80289">
        <ele>1550.2083969116</ele>
        <time>2019-07-06T05:06:39Z</time>
      </trkpt>
      <trkpt lat="45.52035" lon="6.80291">
        <ele>1550.2083969116</ele>
        <time>2019-07-06T05:06:45Z</time>
      </trkpt>
      <trkpt lat="45.52036" lon="6.80294">
        <ele>1550.2083969116</ele>
        <time>2019-07-06T05:06:49Z</time>
      </trkpt>
      <trkpt lat="45.52035" lon="6.80291">
        <ele>1550.2083969116</ele>
        <time>2019-07-06T05:06:54Z</time>
      </trkpt>
      <trkpt lat="45.52035" lon="6.80288">
        <ele>1550.2083969116</ele>
        <time>2019-07-06T05:06:55Z</time>
      </trkpt>
      <trkpt lat="45.52036" lon="6.80284">
        <ele>1550.2083969116</ele>
        <time>2019-07-06T05:06:57Z</time>
      </trkpt>
      <trkpt lat="45.52036" lon="6.80281">
        <ele>1550.2083969116</ele>
        <time>2019-07-06T05:06:58Z</time>
      </trkpt>
      <trkpt lat="45.52037" lon="6.80278">
        <ele>1550.2083969116</ele>
        <time>2019-07-06T05:06:59Z</time>
      </trkpt>
      <trkpt lat="45.52038" lon="6.80274">
        <ele>1550.2083969116</ele>
        <time>2019-07-06T05:07:01Z</time>
      </trkpt>
      <trkpt lat="45.52039" lon="6.8027">
        <ele>1550.2083969116</ele>
        <time>2019-07-06T05:07:03Z</time>
      </trkpt>
      <trkpt lat="45.52039" lon="6.80267">
        <ele>1550.2083969116</ele>
        <time>2019-07-06T05:07:05Z</time>
      </trkpt>
      <trkpt lat="45.5204" lon="6.80264">
        <ele>1550.2083969116</ele>
        <time>2019-07-06T05:07:07Z</time>
      </trkpt>
      <trkpt lat="45.52041" lon="6.80261">
        <ele>1550.2083969116</ele>
        <time>2019-07-06T05:07:08Z</time>
      </trkpt>
      <trkpt lat="45.52041" lon="6.80257">
        <ele>1550.2083969116</ele>
        <time>2019-07-06T05:07:10Z</time>
      </trkpt>
      <trkpt lat="45.52042" lon="6.80253">
        <ele>1550.2083969116</ele>
        <time>2019-07-06T05:07:12Z</time>
      </trkpt>
      <trkpt lat="45.52042" lon="6.80249">
        <ele>1550.2083969116</ele>
        <time>2019-07-06T05:07:14Z</time>
      </trkpt>
      <trkpt lat="45.52043" lon="6.80245">
        <ele>1550.2083969116</ele>
        <time>2019-07-06T05:07:16Z</time>
      </trkpt>
      <trkpt lat="45.52044" lon="6.8024">
        <ele>1550.2083969116</ele>
        <time>2019-07-06T05:07:18Z</time>
      </trkpt>
      <trkpt lat="45.52044" lon="6.80238">
        <ele>1550.2083969116</ele>
        <time>2019-07-06T05:07:20Z</time>
      </trkpt>
      <trkpt lat="45.52045" lon="6.80235">
        <ele>1550.2083969116</ele>
        <time>2019-07-06T05:07:22Z</time>
      </trkpt>
      <trkpt lat="45.52046" lon="6.80232">
        <ele>1550.2083969116</ele>
        <time>2019-07-06T05:07:23Z</time>
      </trkpt>
      <trkpt lat="45.52047" lon="6.80227">
        <ele>1550.2083969116</ele>
        <time>2019-07-06T05:07:25Z</time>
      </trkpt>
      <trkpt lat="45.52047" lon="6.80222">
        <ele>1550.2083969116</ele>
        <time>2019-07-06T05:07:27Z</time>
      </trkpt>
      <trkpt lat="45.52048" lon="6.80218">
        <ele>1550.2083969116</ele>
        <time>2019-07-06T05:07:29Z</time>
      </trkpt>
      <trkpt lat="45.5205" lon="6.80214">
        <ele>1550.2083969116</ele>
        <time>2019-07-06T05:07:31Z</time>
      </trkpt>
      <trkpt lat="45.52051" lon="6.8021">
        <ele>1550.2083969116</ele>
        <time>2019-07-06T05:07:33Z</time>
      </trkpt>
      <trkpt lat="45.52051" lon="6.80206">
        <ele>1550.2083969116</ele>
        <time>2019-07-06T05:07:35Z</time>
      </trkpt>
      <trkpt lat="45.52051" lon="6.80201">
        <ele>1550.2083969116</ele>
        <time>2019-07-06T05:07:37Z</time>
      </trkpt>
      <trkpt lat="45.52051" lon="6.80196">
        <ele>1550.2083969116</ele>
        <time>2019-07-06T05:07:39Z</time>
      </trkpt>
      <trkpt lat="45.52051" lon="6.80191">
        <ele>1550.2083969116</ele>
        <time>2019-07-06T05:07:41Z</time>
      </trkpt>
      <trkpt lat="45.52052" lon="6.80188">
        <ele>1550.2083969116</ele>
        <time>2019-07-06T05:07:43Z</time>
      </trkpt>
      <trkpt lat="45.52053" lon="6.80185">
        <ele>1550.2083969116</ele>
        <time>2019-07-06T05:07:45Z</time>
      </trkpt>
      <trkpt lat="45.52054" lon="6.80181">
        <ele>1550.2083969116</ele>
        <time>2019-07-06T05:07:47Z</time>
      </trkpt>
      <trkpt lat="45.52053" lon="6.80177">
        <ele>1550.2083969116</ele>
        <time>2019-07-06T05:07:49Z</time>
      </trkpt>
      <trkpt lat="45.52053" lon="6.80174">
        <ele>1550.2083969116</ele>
        <time>2019-07-06T05:07:50Z</time>
      </trkpt>
      <trkpt lat="45.52055" lon="6.80169">
        <ele>1550.2083969116</ele>
        <time>2019-07-06T05:07:52Z</time>
      </trkpt>
      <trkpt lat="45.52055" lon="6.80166">
        <ele>1550.2083969116</ele>
        <time>2019-07-06T05:07:54Z</time>
      </trkpt>
      <trkpt lat="45.52056" lon="6.80161">
        <ele>1550.2083969116</ele>
        <time>2019-07-06T05:07:56Z</time>
      </trkpt>
      <trkpt lat="45.52056" lon="6.80157">
        <ele>1550.2083969116</ele>
        <time>2019-07-06T05:07:58Z</time>
      </trkpt>
      <trkpt lat="45.52057" lon="6.80153">
        <ele>1550.2083969116</ele>
        <time>2019-07-06T05:08:00Z</time>
      </trkpt>
      <trkpt lat="45.52058" lon="6.80149">
        <ele>1550.2083969116</ele>
        <time>2019-07-06T05:08:02Z</time>
      </trkpt>
      <trkpt lat="45.52059" lon="6.80145">
        <ele>1550.2083969116</ele>
        <time>2019-07-06T05:08:04Z</time>
      </trkpt>
      <trkpt lat="45.5206" lon="6.80143">
        <ele>1550.2083969116</ele>
        <time>2019-07-06T05:08:05Z</time>
      </trkpt>
      <trkpt lat="45.52062" lon="6.80139">
        <ele>1550.2083969116</ele>
        <time>2019-07-06T05:08:07Z</time>
      </trkpt>
      <trkpt lat="45.52062" lon="6.80136">
        <ele>1550.2083969116</ele>
        <time>2019-07-06T05:08:09Z</time>
      </trkpt>
      <trkpt lat="45.52064" lon="6.80132">
        <ele>1550.2083969116</ele>
        <time>2019-07-06T05:08:11Z</time>
      </trkpt>
      <trkpt lat="45.52065" lon="6.80128">
        <ele>1550.2083969116</ele>
        <time>2019-07-06T05:08:13Z</time>
      </trkpt>
      <trkpt lat="45.52065" lon="6.80125">
        <ele>1550.2083969116</ele>
        <time>2019-07-06T05:08:14Z</time>
      </trkpt>
      <trkpt lat="45.52066" lon="6.80123">
        <ele>1550.2083969116</ele>
        <time>2019-07-06T05:08:15Z</time>
      </trkpt>
      <trkpt lat="45.52068" lon="6.80119">
        <ele>1550.2083969116</ele>
        <time>2019-07-06T05:08:17Z</time>
      </trkpt>
      <trkpt lat="45.52069" lon="6.80116">
        <ele>1550.2083969116</ele>
        <time>2019-07-06T05:08:18Z</time>
      </trkpt>
      <trkpt lat="45.5207" lon="6.80114">
        <ele>1550.2083969116</ele>
        <time>2019-07-06T05:08:20Z</time>
      </trkpt>
      <trkpt lat="45.52072" lon="6.80111">
        <ele>1550.2083969116</ele>
        <time>2019-07-06T05:08:22Z</time>
      </trkpt>
      <trkpt lat="45.52073" lon="6.80107">
        <ele>1550.2083969116</ele>
        <time>2019-07-06T05:08:24Z</time>
      </trkpt>
      <trkpt lat="45.52074" lon="6.80104">
        <ele>1550.2083969116</ele>
        <time>2019-07-06T05:08:25Z</time>
      </trkpt>
      <trkpt lat="45.52076" lon="6.80101">
        <ele>1550.2083969116</ele>
        <time>2019-07-06T05:08:27Z</time>
      </trkpt>
      <trkpt lat="45.52077" lon="6.80098">
        <ele>1550.2083969116</ele>
        <time>2019-07-06T05:08:28Z</time>
      </trkpt>
      <trkpt lat="45.52079" lon="6.80095">
        <ele>1550.2083969116</ele>
        <time>2019-07-06T05:08:30Z</time>
      </trkpt>
      <trkpt lat="45.5208" lon="6.80093">
        <ele>1550.2083969116</ele>
        <time>2019-07-06T05:08:32Z</time>
      </trkpt>
      <trkpt lat="45.52083" lon="6.80089">
        <ele>1550.2083969116</ele>
        <time>2019-07-06T05:08:34Z</time>
      </trkpt>
      <trkpt lat="45.52085" lon="6.80086">
        <ele>1550.2083969116</ele>
        <time>2019-07-06T05:08:36Z</time>
      </trkpt>
      <trkpt lat="45.52087" lon="6.80084">
        <ele>1550.2083969116</ele>
        <time>2019-07-06T05:08:37Z</time>
      </trkpt>
      <trkpt lat="45.52088" lon="6.8008">
        <ele>1550.2083969116</ele>
        <time>2019-07-06T05:08:39Z</time>
      </trkpt>
      <trkpt lat="45.52089" lon="6.80078">
        <ele>1550.2083969116</ele>
        <time>2019-07-06T05:08:40Z</time>
      </trkpt>
      <trkpt lat="45.52091" lon="6.80074">
        <ele>1550.2083969116</ele>
        <time>2019-07-06T05:08:42Z</time>
      </trkpt>
      <trkpt lat="45.52091" lon="6.80071">
        <ele>1550.2083969116</ele>
        <time>2019-07-06T05:08:44Z</time>
      </trkpt>
      <trkpt lat="45.52093" lon="6.80067">
        <ele>1550.2083969116</ele>
        <time>2019-07-06T05:08:47Z</time>
      </trkpt>
      <trkpt lat="45.52094" lon="6.80063">
        <ele>1550.2083969116</ele>
        <time>2019-07-06T05:08:49Z</time>
      </trkpt>
      <trkpt lat="45.52095" lon="6.8006">
        <ele>1550.2083969116</ele>
        <time>2019-07-06T05:08:51Z</time>
      </trkpt>
      <trkpt lat="45.52095" lon="6.80055">
        <ele>1550.2083969116</ele>
        <time>2019-07-06T05:08:53Z</time>
      </trkpt>
      <trkpt lat="45.52096" lon="6.80052">
        <ele>1550.2083969116</ele>
        <time>2019-07-06T05:08:55Z</time>
      </trkpt>
      <trkpt lat="45.52097" lon="6.80047">
        <ele>1550.2083969116</ele>
        <time>2019-07-06T05:08:57Z</time>
      </trkpt>
      <trkpt lat="45.52098" lon="6.80043">
        <ele>1550.2083969116</ele>
        <time>2019-07-06T05:08:59Z</time>
      </trkpt>
      <trkpt lat="45.52099" lon="6.80039">
        <ele>1550.2083969116</ele>
        <time>2019-07-06T05:09:01Z</time>
      </trkpt>
      <trkpt lat="45.521" lon="6.80035">
        <ele>1550.2083969116</ele>
        <time>2019-07-06T05:09:03Z</time>
      </trkpt>
      <trkpt lat="45.52101" lon="6.80031">
        <ele>1550.2083969116</ele>
        <time>2019-07-06T05:09:05Z</time>
      </trkpt>
      <trkpt lat="45.52102" lon="6.80027">
        <ele>1550.2083969116</ele>
        <time>2019-07-06T05:09:07Z</time>
      </trkpt>
      <trkpt lat="45.52103" lon="6.80025">
        <ele>1550.0724960327</ele>
        <time>2019-07-06T05:09:08Z</time>
      </trkpt>
      <trkpt lat="45.52103" lon="6.80022">
        <ele>1548.4394475708</ele>
        <time>2019-07-06T05:09:10Z</time>
      </trkpt>
      <trkpt lat="45.52105" lon="6.80019">
        <ele>1547.3762628381</ele>
        <time>2019-07-06T05:09:12Z</time>
      </trkpt>
      <trkpt lat="45.52106" lon="6.80017">
        <ele>1546.7859501058</ele>
        <time>2019-07-06T05:09:13Z</time>
      </trkpt>
      <trkpt lat="45.52107" lon="6.80014">
        <ele>1545.8662498873</ele>
        <time>2019-07-06T05:09:14Z</time>
      </trkpt>
      <trkpt lat="45.52109" lon="6.80012">
        <ele>1544.7291504709</ele>
        <time>2019-07-06T05:09:15Z</time>
      </trkpt>
      <trkpt lat="45.52111" lon="6.80009">
        <ele>1543.0817819374</ele>
        <time>2019-07-06T05:09:17Z</time>
      </trkpt>
      <trkpt lat="45.52112" lon="6.80006">
        <ele>1541.9906476076</ele>
        <time>2019-07-06T05:09:19Z</time>
      </trkpt>
      <trkpt lat="45.52114" lon="6.80003">
        <ele>1540.5960961276</ele>
        <time>2019-07-06T05:09:21Z</time>
      </trkpt>
      <trkpt lat="45.52116" lon="6.80001">
        <ele>1539.7502328882</ele>
        <time>2019-07-06T05:09:23Z</time>
      </trkpt>
      <trkpt lat="45.52118" lon="6.8">
        <ele>1539.1909637089</ele>
        <time>2019-07-06T05:09:25Z</time>
      </trkpt>
      <trkpt lat="45.5212" lon="6.79998">
        <ele>1538.8981574976</ele>
        <time>2019-07-06T05:09:26Z</time>
      </trkpt>
      <trkpt lat="45.52122" lon="6.79997">
        <ele>1538.8677782437</ele>
        <time>2019-07-06T05:09:27Z</time>
      </trkpt>
      <trkpt lat="45.52123" lon="6.79995">
        <ele>1538.8647403183</ele>
        <time>2019-07-06T05:09:28Z</time>
      </trkpt>
      <trkpt lat="45.52125" lon="6.79993">
        <ele>1538.8644061465</ele>
        <time>2019-07-06T05:09:30Z</time>
      </trkpt>
      <trkpt lat="45.52127" lon="6.79991">
        <ele>1538.8644031085</ele>
        <time>2019-07-06T05:09:31Z</time>
      </trkpt>
      <trkpt lat="45.52131" lon="6.79989">
        <ele>1538.8644027744</ele>
        <time>2019-07-06T05:09:33Z</time>
      </trkpt>
      <trkpt lat="45.52133" lon="6.79989">
        <ele>1538.8644027713</ele>
        <time>2019-07-06T05:09:34Z</time>
      </trkpt>
      <trkpt lat="45.52135" lon="6.79987">
        <ele>1538.864402771</ele>
        <time>2019-07-06T05:09:36Z</time>
      </trkpt>
      <trkpt lat="45.52137" lon="6.79985">
        <ele>1538.864402771</ele>
        <time>2019-07-06T05:09:37Z</time>
      </trkpt>
      <trkpt lat="45.52139" lon="6.79982">
        <ele>1538.864402771</ele>
        <time>2019-07-06T05:09:39Z</time>
      </trkpt>
      <trkpt lat="45.5214" lon="6.79979">
        <ele>1538.864402771</ele>
        <time>2019-07-06T05:09:41Z</time>
      </trkpt>
      <trkpt lat="45.52142" lon="6.79976">
        <ele>1538.864402771</ele>
        <time>2019-07-06T05:09:43Z</time>
      </trkpt>
      <trkpt lat="45.52142" lon="6.79973">
        <ele>1538.864402771</ele>
        <time>2019-07-06T05:09:44Z</time>
      </trkpt>
      <trkpt lat="45.52143" lon="6.79969">
        <ele>1538.864402771</ele>
        <time>2019-07-06T05:09:46Z</time>
      </trkpt>
      <trkpt lat="45.52145" lon="6.79966">
        <ele>1538.864402771</ele>
        <time>2019-07-06T05:09:48Z</time>
      </trkpt>
      <trkpt lat="45.52146" lon="6.79962">
        <ele>1538.864402771</ele>
        <time>2019-07-06T05:09:50Z</time>
      </trkpt>
      <trkpt lat="45.52147" lon="6.79959">
        <ele>1538.864402771</ele>
        <time>2019-07-06T05:09:52Z</time>
      </trkpt>
      <trkpt lat="45.52148" lon="6.79956">
        <ele>1538.864402771</ele>
        <time>2019-07-06T05:09:54Z</time>
      </trkpt>
      <trkpt lat="45.52149" lon="6.79952">
        <ele>1538.864402771</ele>
        <time>2019-07-06T05:09:56Z</time>
      </trkpt>
      <trkpt lat="45.52151" lon="6.79949">
        <ele>1538.864402771</ele>
        <time>2019-07-06T05:09:58Z</time>
      </trkpt>
      <trkpt lat="45.52153" lon="6.79945">
        <ele>1538.864402771</ele>
        <time>2019-07-06T05:10:00Z</time>
      </trkpt>
      <trkpt lat="45.52154" lon="6.79941">
        <ele>1538.864402771</ele>
        <time>2019-07-06T05:10:02Z</time>
      </trkpt>
      <trkpt lat="45.52155" lon="6.79938">
        <ele>1538.864402771</ele>
        <time>2019-07-06T05:10:04Z</time>
      </trkpt>
      <trkpt lat="45.52157" lon="6.79935">
        <ele>1538.864402771</ele>
        <time>2019-07-06T05:10:06Z</time>
      </trkpt>
      <trkpt lat="45.52158" lon="6.79932">
        <ele>1538.864402771</ele>
        <time>2019-07-06T05:10:08Z</time>
      </trkpt>
      <trkpt lat="45.5216" lon="6.7993">
        <ele>1538.864402771</ele>
        <time>2019-07-06T05:10:10Z</time>
      </trkpt>
      <trkpt lat="45.52161" lon="6.79927">
        <ele>1538.864402771</ele>
        <time>2019-07-06T05:10:11Z</time>
      </trkpt>
      <trkpt lat="45.52163" lon="6.79925">
        <ele>1538.864402771</ele>
        <time>2019-07-06T05:10:12Z</time>
      </trkpt>
      <trkpt lat="45.52165" lon="6.79922">
        <ele>1538.864402771</ele>
        <time>2019-07-06T05:10:14Z</time>
      </trkpt>
      <trkpt lat="45.52167" lon="6.79918">
        <ele>1538.864402771</ele>
        <time>2019-07-06T05:10:16Z</time>
      </trkpt>
      <trkpt lat="45.52168" lon="6.79915">
        <ele>1538.864402771</ele>
        <time>2019-07-06T05:10:18Z</time>
      </trkpt>
      <trkpt lat="45.5217" lon="6.79913">
        <ele>1538.864402771</ele>
        <time>2019-07-06T05:10:20Z</time>
      </trkpt>
      <trkpt lat="45.52172" lon="6.79911">
        <ele>1538.864402771</ele>
        <time>2019-07-06T05:10:22Z</time>
      </trkpt>
      <trkpt lat="45.52174" lon="6.7991">
        <ele>1538.864402771</ele>
        <time>2019-07-06T05:10:23Z</time>
      </trkpt>
      <trkpt lat="45.52177" lon="6.79908">
        <ele>1538.864402771</ele>
        <time>2019-07-06T05:10:25Z</time>
      </trkpt>
      <trkpt lat="45.52179" lon="6.79907">
        <ele>1538.864402771</ele>
        <time>2019-07-06T05:10:27Z</time>
      </trkpt>
      <trkpt lat="45.52182" lon="6.79906">
        <ele>1538.864402771</ele>
        <time>2019-07-06T05:10:29Z</time>
      </trkpt>
      <trkpt lat="45.52184" lon="6.79905">
        <ele>1538.864402771</ele>
        <time>2019-07-06T05:10:30Z</time>
      </trkpt>
      <trkpt lat="45.52186" lon="6.79904">
        <ele>1538.864402771</ele>
        <time>2019-07-06T05:10:32Z</time>
      </trkpt>
      <trkpt lat="45.52189" lon="6.79903">
        <ele>1538.864402771</ele>
        <time>2019-07-06T05:10:34Z</time>
      </trkpt>
      <trkpt lat="45.52191" lon="6.79902">
        <ele>1538.864402771</ele>
        <time>2019-07-06T05:10:36Z</time>
      </trkpt>
      <trkpt lat="45.52194" lon="6.79901">
        <ele>1538.864402771</ele>
        <time>2019-07-06T05:10:38Z</time>
      </trkpt>
      <trkpt lat="45.52195" lon="6.79899">
        <ele>1538.864402771</ele>
        <time>2019-07-06T05:10:39Z</time>
      </trkpt>
      <trkpt lat="45.52198" lon="6.79898">
        <ele>1538.864402771</ele>
        <time>2019-07-06T05:10:41Z</time>
      </trkpt>
      <trkpt lat="45.522" lon="6.79896">
        <ele>1538.864402771</ele>
        <time>2019-07-06T05:10:43Z</time>
      </trkpt>
      <trkpt lat="45.52202" lon="6.79896">
        <ele>1538.864402771</ele>
        <time>2019-07-06T05:10:44Z</time>
      </trkpt>
      <trkpt lat="45.52204" lon="6.79896">
        <ele>1538.864402771</ele>
        <time>2019-07-06T05:10:45Z</time>
      </trkpt>
      <trkpt lat="45.52206" lon="6.79895">
        <ele>1538.864402771</ele>
        <time>2019-07-06T05:10:47Z</time>
      </trkpt>
      <trkpt lat="45.52209" lon="6.79894">
        <ele>1538.864402771</ele>
        <time>2019-07-06T05:10:49Z</time>
      </trkpt>
      <trkpt lat="45.52211" lon="6.79894">
        <ele>1538.864402771</ele>
        <time>2019-07-06T05:10:50Z</time>
      </trkpt>
      <trkpt lat="45.52214" lon="6.79893">
        <ele>1538.864402771</ele>
        <time>2019-07-06T05:10:52Z</time>
      </trkpt>
      <trkpt lat="45.52216" lon="6.79892">
        <ele>1538.864402771</ele>
        <time>2019-07-06T05:10:53Z</time>
      </trkpt>
      <trkpt lat="45.52219" lon="6.79892">
        <ele>1538.864402771</ele>
        <time>2019-07-06T05:10:55Z</time>
      </trkpt>
      <trkpt lat="45.52221" lon="6.79892">
        <ele>1538.864402771</ele>
        <time>2019-07-06T05:10:56Z</time>
      </trkpt>
      <trkpt lat="45.52224" lon="6.79892">
        <ele>1538.864402771</ele>
        <time>2019-07-06T05:10:58Z</time>
      </trkpt>
      <trkpt lat="45.52226" lon="6.79891">
        <ele>1538.864402771</ele>
        <time>2019-07-06T05:10:59Z</time>
      </trkpt>
      <trkpt lat="45.52228" lon="6.7989">
        <ele>1538.864402771</ele>
        <time>2019-07-06T05:11:00Z</time>
      </trkpt>
      <trkpt lat="45.52231" lon="6.79888">
        <ele>1538.864402771</ele>
        <time>2019-07-06T05:11:02Z</time>
      </trkpt>
      <trkpt lat="45.52233" lon="6.79886">
        <ele>1538.864402771</ele>
        <time>2019-07-06T05:11:04Z</time>
      </trkpt>
      <trkpt lat="45.52235" lon="6.79885">
        <ele>1538.864402771</ele>
        <time>2019-07-06T05:11:06Z</time>
      </trkpt>
      <trkpt lat="45.52238" lon="6.79883">
        <ele>1538.864402771</ele>
        <time>2019-07-06T05:11:08Z</time>
      </trkpt>
      <trkpt lat="45.52241" lon="6.79882">
        <ele>1538.864402771</ele>
        <time>2019-07-06T05:11:10Z</time>
      </trkpt>
      <trkpt lat="45.52244" lon="6.79881">
        <ele>1538.864402771</ele>
        <time>2019-07-06T05:11:12Z</time>
      </trkpt>
      <trkpt lat="45.52245" lon="6.79879">
        <ele>1538.864402771</ele>
        <time>2019-07-06T05:11:13Z</time>
      </trkpt>
      <trkpt lat="45.52247" lon="6.79876">
        <ele>1538.864402771</ele>
        <time>2019-07-06T05:11:15Z</time>
      </trkpt>
      <trkpt lat="45.52249" lon="6.79874">
        <ele>1538.864402771</ele>
        <time>2019-07-06T05:11:17Z</time>
      </trkpt>
      <trkpt lat="45.52251" lon="6.79872">
        <ele>1538.864402771</ele>
        <time>2019-07-06T05:11:19Z</time>
      </trkpt>
      <trkpt lat="45.52253" lon="6.79871">
        <ele>1538.864402771</ele>
        <time>2019-07-06T05:11:20Z</time>
      </trkpt>
      <trkpt lat="45.52256" lon="6.7987">
        <ele>1538.864402771</ele>
        <time>2019-07-06T05:11:22Z</time>
      </trkpt>
      <trkpt lat="45.52258" lon="6.79868">
        <ele>1538.864402771</ele>
        <time>2019-07-06T05:11:24Z</time>
      </trkpt>
      <trkpt lat="45.5226" lon="6.79866">
        <ele>1538.864402771</ele>
        <time>2019-07-06T05:11:26Z</time>
      </trkpt>
      <trkpt lat="45.52264" lon="6.79866">
        <ele>1538.864402771</ele>
        <time>2019-07-06T05:11:28Z</time>
      </trkpt>
      <trkpt lat="45.52267" lon="6.79865">
        <ele>1538.864402771</ele>
        <time>2019-07-06T05:11:30Z</time>
      </trkpt>
      <trkpt lat="45.52269" lon="6.79864">
        <ele>1538.864402771</ele>
        <time>2019-07-06T05:11:32Z</time>
      </trkpt>
      <trkpt lat="45.52271" lon="6.79862">
        <ele>1538.864402771</ele>
        <time>2019-07-06T05:11:34Z</time>
      </trkpt>
      <trkpt lat="45.52273" lon="6.79861">
        <ele>1538.864402771</ele>
        <time>2019-07-06T05:11:36Z</time>
      </trkpt>
      <trkpt lat="45.52275" lon="6.7986">
        <ele>1538.864402771</ele>
        <time>2019-07-06T05:11:37Z</time>
      </trkpt>
      <trkpt lat="45.52277" lon="6.79859">
        <ele>1538.864402771</ele>
        <time>2019-07-06T05:11:38Z</time>
      </trkpt>
      <trkpt lat="45.52279" lon="6.79857">
        <ele>1538.864402771</ele>
        <time>2019-07-06T05:11:39Z</time>
      </trkpt>
      <trkpt lat="45.52282" lon="6.79856">
        <ele>1538.864402771</ele>
        <time>2019-07-06T05:11:41Z</time>
      </trkpt>
      <trkpt lat="45.52284" lon="6.79854">
        <ele>1538.864402771</ele>
        <time>2019-07-06T05:11:42Z</time>
      </trkpt>
      <trkpt lat="45.52287" lon="6.79853">
        <ele>1538.864402771</ele>
        <time>2019-07-06T05:11:44Z</time>
      </trkpt>
      <trkpt lat="45.5229" lon="6.79853">
        <ele>1538.864402771</ele>
        <time>2019-07-06T05:11:46Z</time>
      </trkpt>
      <trkpt lat="45.52292" lon="6.79854">
        <ele>1538.864402771</ele>
        <time>2019-07-06T05:11:48Z</time>
      </trkpt>
      <trkpt lat="45.52294" lon="6.79855">
        <ele>1538.864402771</ele>
        <time>2019-07-06T05:11:49Z</time>
      </trkpt>
      <trkpt lat="45.52295" lon="6.79855">
        <ele>1538.864402771</ele>
        <time>2019-07-06T05:11:50Z</time>
      </trkpt>
      <trkpt lat="45.52299" lon="6.79855">
        <ele>1538.864402771</ele>
        <time>2019-07-06T05:11:52Z</time>
      </trkpt>
      <trkpt lat="45.52302" lon="6.79855">
        <ele>1538.864402771</ele>
        <time>2019-07-06T05:11:54Z</time>
      </trkpt>
      <trkpt lat="45.52304" lon="6.79854">
        <ele>1538.864402771</ele>
        <time>2019-07-06T05:11:56Z</time>
      </trkpt>
      <trkpt lat="45.52307" lon="6.79853">
        <ele>1538.864402771</ele>
        <time>2019-07-06T05:11:58Z</time>
      </trkpt>
      <trkpt lat="45.52309" lon="6.79851">
        <ele>1538.864402771</ele>
        <time>2019-07-06T05:12:00Z</time>
      </trkpt>
      <trkpt lat="45.52311" lon="6.79849">
        <ele>1538.864402771</ele>
        <time>2019-07-06T05:12:01Z</time>
      </trkpt>
      <trkpt lat="45.52313" lon="6.79849">
        <ele>1538.864402771</ele>
        <time>2019-07-06T05:12:02Z</time>
      </trkpt>
      <trkpt lat="45.52315" lon="6.79845">
        <ele>1538.864402771</ele>
        <time>2019-07-06T05:12:04Z</time>
      </trkpt>
      <trkpt lat="45.52317" lon="6.79843">
        <ele>1538.864402771</ele>
        <time>2019-07-06T05:12:06Z</time>
      </trkpt>
      <trkpt lat="45.52318" lon="6.7984">
        <ele>1538.864402771</ele>
        <time>2019-07-06T05:12:08Z</time>
      </trkpt>
      <trkpt lat="45.5232" lon="6.79836">
        <ele>1538.1524911657</ele>
        <time>2019-07-06T05:12:10Z</time>
      </trkpt>
      <trkpt lat="45.52321" lon="6.79834">
        <ele>1537.96426039</ele>
        <time>2019-07-06T05:12:11Z</time>
      </trkpt>
      <trkpt lat="45.52323" lon="6.79831">
        <ele>1537.8493694741</ele>
        <time>2019-07-06T05:12:13Z</time>
      </trkpt>
      <trkpt lat="45.52324" lon="6.79827">
        <ele>1537.9579888724</ele>
        <time>2019-07-06T05:12:15Z</time>
      </trkpt>
      <trkpt lat="45.52325" lon="6.79824">
        <ele>1539.6280485369</ele>
        <time>2019-07-06T05:12:17Z</time>
      </trkpt>
      <trkpt lat="45.52325" lon="6.79819">
        <ele>1540.3780119777</ele>
        <time>2019-07-06T05:12:19Z</time>
      </trkpt>
      <trkpt lat="45.52326" lon="6.79815">
        <ele>1540.6652163104</ele>
        <time>2019-07-06T05:12:21Z</time>
      </trkpt>
      <trkpt lat="45.52326" lon="6.79813">
        <ele>1540.8925046266</ele>
        <time>2019-07-06T05:12:23Z</time>
      </trkpt>
      <trkpt lat="45.52327" lon="6.7981">
        <ele>1541.0685486287</ele>
        <time>2019-07-06T05:12:25Z</time>
      </trkpt>
      <trkpt lat="45.52329" lon="6.79806">
        <ele>1540.8754061852</ele>
        <time>2019-07-06T05:12:27Z</time>
      </trkpt>
      <trkpt lat="45.5233" lon="6.79803">
        <ele>1540.171371157</ele>
        <time>2019-07-06T05:12:29Z</time>
      </trkpt>
      <trkpt lat="45.5233" lon="6.79799">
        <ele>1539.9693072643</ele>
        <time>2019-07-06T05:12:31Z</time>
      </trkpt>
      <trkpt lat="45.52333" lon="6.79795">
        <ele>1539.806679511</ele>
        <time>2019-07-06T05:12:33Z</time>
      </trkpt>
      <trkpt lat="45.52335" lon="6.79791">
        <ele>1539.1823322682</ele>
        <time>2019-07-06T05:12:35Z</time>
      </trkpt>
      <trkpt lat="45.52336" lon="6.79786">
        <ele>1537.829034069</ele>
        <time>2019-07-06T05:12:37Z</time>
      </trkpt>
      <trkpt lat="45.52336" lon="6.79782">
        <ele>1536.8516756462</ele>
        <time>2019-07-06T05:12:39Z</time>
      </trkpt>
      <trkpt lat="45.52335" lon="6.79779">
        <ele>1536.5703900017</ele>
        <time>2019-07-06T05:12:40Z</time>
      </trkpt>
      <trkpt lat="45.52334" lon="6.79776">
        <ele>1536.3789071531</ele>
        <time>2019-07-06T05:12:41Z</time>
      </trkpt>
      <trkpt lat="45.52335" lon="6.79774">
        <ele>1536.069595915</ele>
        <time>2019-07-06T05:12:42Z</time>
      </trkpt>
      <trkpt lat="45.52337" lon="6.79771">
        <ele>1535.1161146352</ele>
        <time>2019-07-06T05:12:44Z</time>
      </trkpt>
      <trkpt lat="45.52336" lon="6.79767">
        <ele>1534.1204008609</ele>
        <time>2019-07-06T05:12:46Z</time>
      </trkpt>
      <trkpt lat="45.52336" lon="6.79765">
        <ele>1533.6330766175</ele>
        <time>2019-07-06T05:12:47Z</time>
      </trkpt>
      <trkpt lat="45.52335" lon="6.79762">
        <ele>1533.4122422625</ele>
        <time>2019-07-06T05:12:48Z</time>
      </trkpt>
      <trkpt lat="45.52334" lon="6.79758">
        <ele>1532.2712117673</ele>
        <time>2019-07-06T05:12:50Z</time>
      </trkpt>
      <trkpt lat="45.52334" lon="6.79755">
        <ele>1531.3321246144</ele>
        <time>2019-07-06T05:12:51Z</time>
      </trkpt>
      <trkpt lat="45.52333" lon="6.79753">
        <ele>1530.8152997661</ele>
        <time>2019-07-06T05:12:52Z</time>
      </trkpt>
      <trkpt lat="45.52332" lon="6.7975">
        <ele>1530.6137038656</ele>
        <time>2019-07-06T05:12:53Z</time>
      </trkpt>
      <trkpt lat="45.52332" lon="6.79748">
        <ele>1530.0806422897</ele>
        <time>2019-07-06T05:12:54Z</time>
      </trkpt>
      <trkpt lat="45.52331" lon="6.79744">
        <ele>1529.0728834756</ele>
        <time>2019-07-06T05:12:56Z</time>
      </trkpt>
      <trkpt lat="45.5233" lon="6.7974">
        <ele>1528.3911298659</ele>
        <time>2019-07-06T05:12:58Z</time>
      </trkpt>
      <trkpt lat="45.52331" lon="6.79736">
        <ele>1527.6391279358</ele>
        <time>2019-07-06T05:13:00Z</time>
      </trkpt>
      <trkpt lat="45.5233" lon="6.79733">
        <ele>1527.0844363892</ele>
        <time>2019-07-06T05:13:02Z</time>
      </trkpt>
      <trkpt lat="45.52331" lon="6.79729">
        <ele>1526.533485414</ele>
        <time>2019-07-06T05:13:03Z</time>
      </trkpt>
      <trkpt lat="45.52332" lon="6.79725">
        <ele>1525.5874456809</ele>
        <time>2019-07-06T05:13:05Z</time>
      </trkpt>
      <trkpt lat="45.52333" lon="6.79722">
        <ele>1524.2402990945</ele>
        <time>2019-07-06T05:13:07Z</time>
      </trkpt>
      <trkpt lat="45.52334" lon="6.79718">
        <ele>1523.5011480519</ele>
        <time>2019-07-06T05:13:09Z</time>
      </trkpt>
      <trkpt lat="45.52336" lon="6.79716">
        <ele>1523.4735557465</ele>
        <time>2019-07-06T05:13:10Z</time>
      </trkpt>
      <trkpt lat="45.52336" lon="6.79712">
        <ele>1523.7946459714</ele>
        <time>2019-07-06T05:13:12Z</time>
      </trkpt>
      <trkpt lat="45.52336" lon="6.79709">
        <ele>1523.8059272723</ele>
        <time>2019-07-06T05:13:13Z</time>
      </trkpt>
      <trkpt lat="45.52337" lon="6.79704">
        <ele>1523.348879075</ele>
        <time>2019-07-06T05:13:15Z</time>
      </trkpt>
      <trkpt lat="45.52339" lon="6.797">
        <ele>1523.2423348509</ele>
        <time>2019-07-06T05:13:17Z</time>
      </trkpt>
      <trkpt lat="45.52341" lon="6.79696">
        <ele>1523.6203507983</ele>
        <time>2019-07-06T05:13:19Z</time>
      </trkpt>
      <trkpt lat="45.52341" lon="6.79692">
        <ele>1523.7970066906</ele>
        <time>2019-07-06T05:13:21Z</time>
      </trkpt>
      <trkpt lat="45.52341" lon="6.79689">
        <ele>1523.9066278241</ele>
        <time>2019-07-06T05:13:22Z</time>
      </trkpt>
      <trkpt lat="45.52342" lon="6.79686">
        <ele>1524.3720584508</ele>
        <time>2019-07-06T05:13:23Z</time>
      </trkpt>
      <trkpt lat="45.52343" lon="6.79682">
        <ele>1525.2503192432</ele>
        <time>2019-07-06T05:13:25Z</time>
      </trkpt>
      <trkpt lat="45.52344" lon="6.79678">
        <ele>1525.3802847274</ele>
        <time>2019-07-06T05:13:27Z</time>
      </trkpt>
      <trkpt lat="45.52345" lon="6.79676">
        <ele>1525.2694475214</ele>
        <time>2019-07-06T05:13:28Z</time>
      </trkpt>
      <trkpt lat="45.52345" lon="6.79672">
        <ele>1525.8017170609</ele>
        <time>2019-07-06T05:13:30Z</time>
      </trkpt>
      <trkpt lat="45.52346" lon="6.79668">
        <ele>1526.3670464766</ele>
        <time>2019-07-06T05:13:32Z</time>
      </trkpt>
      <trkpt lat="45.52348" lon="6.79665">
        <ele>1526.277904518</ele>
        <time>2019-07-06T05:13:34Z</time>
      </trkpt>
      <trkpt lat="45.52349" lon="6.79663">
        <ele>1526.4447263029</ele>
        <time>2019-07-06T05:13:35Z</time>
      </trkpt>
      <trkpt lat="45.5235" lon="6.79659">
        <ele>1527.2702028542</ele>
        <time>2019-07-06T05:13:37Z</time>
      </trkpt>
      <trkpt lat="45.52351" lon="6.79656">
        <ele>1527.8161544124</ele>
        <time>2019-07-06T05:13:39Z</time>
      </trkpt>
      <trkpt lat="45.52352" lon="6.79653">
        <ele>1528.0077186331</ele>
        <time>2019-07-06T05:13:40Z</time>
      </trkpt>
      <trkpt lat="45.52352" lon="6.79648">
        <ele>1528.0957736493</ele>
        <time>2019-07-06T05:13:42Z</time>
      </trkpt>
      <trkpt lat="45.52353" lon="6.79645">
        <ele>1527.4928001095</ele>
        <time>2019-07-06T05:13:44Z</time>
      </trkpt>
      <trkpt lat="45.52354" lon="6.79643">
        <ele>1527.2738811666</ele>
        <time>2019-07-06T05:13:46Z</time>
      </trkpt>
      <trkpt lat="45.52355" lon="6.79639">
        <ele>1527.6909808688</ele>
        <time>2019-07-06T05:13:48Z</time>
      </trkpt>
      <trkpt lat="45.52355" lon="6.79636">
        <ele>1527.8942580475</ele>
        <time>2019-07-06T05:13:49Z</time>
      </trkpt>
      <trkpt lat="45.52356" lon="6.79632">
        <ele>1528.4685696053</ele>
        <time>2019-07-06T05:13:51Z</time>
      </trkpt>
      <trkpt lat="45.52356" lon="6.79628">
        <ele>1529.1943957874</ele>
        <time>2019-07-06T05:13:53Z</time>
      </trkpt>
      <trkpt lat="45.52357" lon="6.79625">
        <ele>1529.239448187</ele>
        <time>2019-07-06T05:13:54Z</time>
      </trkpt>
      <trkpt lat="45.52357" lon="6.79621">
        <ele>1529.0076065558</ele>
        <time>2019-07-06T05:13:56Z</time>
      </trkpt>
      <trkpt lat="45.52357" lon="6.79616">
        <ele>1529.1092078215</ele>
        <time>2019-07-06T05:13:58Z</time>
      </trkpt>
      <trkpt lat="45.52358" lon="6.79612">
        <ele>1528.996886464</ele>
        <time>2019-07-06T05:14:00Z</time>
      </trkpt>
      <trkpt lat="45.52358" lon="6.79608">
        <ele>1529.5719356335</ele>
        <time>2019-07-06T05:14:02Z</time>
      </trkpt>
      <trkpt lat="45.52357" lon="6.79604">
        <ele>1529.6258893537</ele>
        <time>2019-07-06T05:14:04Z</time>
      </trkpt>
      <trkpt lat="45.52357" lon="6.796">
        <ele>1529.4131474152</ele>
        <time>2019-07-06T05:14:06Z</time>
      </trkpt>
      <trkpt lat="45.52357" lon="6.79597">
        <ele>1528.9779958852</ele>
        <time>2019-07-06T05:14:08Z</time>
      </trkpt>
      <trkpt lat="45.52357" lon="6.79593">
        <ele>1528.4822037892</ele>
        <time>2019-07-06T05:14:10Z</time>
      </trkpt>
      <trkpt lat="45.52357" lon="6.79589">
        <ele>1527.9018336619</ele>
        <time>2019-07-06T05:14:12Z</time>
      </trkpt>
      <trkpt lat="45.52356" lon="6.79586">
        <ele>1527.1816078256</ele>
        <time>2019-07-06T05:14:14Z</time>
      </trkpt>
      <trkpt lat="45.52355" lon="6.79582">
        <ele>1527.0588002625</ele>
        <time>2019-07-06T05:14:16Z</time>
      </trkpt>
      <trkpt lat="45.52356" lon="6.79578">
        <ele>1527.0098109302</ele>
        <time>2019-07-06T05:14:18Z</time>
      </trkpt>
      <trkpt lat="45.52356" lon="6.79575">
        <ele>1526.9367115694</ele>
        <time>2019-07-06T05:14:19Z</time>
      </trkpt>
      <trkpt lat="45.52355" lon="6.79571">
        <ele>1526.9962180549</ele>
        <time>2019-07-06T05:14:21Z</time>
      </trkpt>
      <trkpt lat="45.52355" lon="6.79567">
        <ele>1526.9819774463</ele>
        <time>2019-07-06T05:14:23Z</time>
      </trkpt>
      <trkpt lat="45.52355" lon="6.79563">
        <ele>1527.6867377646</ele>
        <time>2019-07-06T05:14:25Z</time>
      </trkpt>
      <trkpt lat="45.52355" lon="6.7956">
        <ele>1528.4579203901</ele>
        <time>2019-07-06T05:14:27Z</time>
      </trkpt>
      <trkpt lat="45.52355" lon="6.79556">
        <ele>1529.6018676225</ele>
        <time>2019-07-06T05:14:29Z</time>
      </trkpt>
      <trkpt lat="45.52355" lon="6.79552">
        <ele>1529.7301044447</ele>
        <time>2019-07-06T05:14:31Z</time>
      </trkpt>
      <trkpt lat="45.52355" lon="6.79548">
        <ele>1529.6782495779</ele>
        <time>2019-07-06T05:14:33Z</time>
      </trkpt>
      <trkpt lat="45.52356" lon="6.79544">
        <ele>1529.202412354</ele>
        <time>2019-07-06T05:14:35Z</time>
      </trkpt>
      <trkpt lat="45.52357" lon="6.79541">
        <ele>1529.3394133405</ele>
        <time>2019-07-06T05:14:36Z</time>
      </trkpt>
      <trkpt lat="45.52358" lon="6.79537">
        <ele>1530.3929215462</ele>
        <time>2019-07-06T05:14:38Z</time>
      </trkpt>
      <trkpt lat="45.5236" lon="6.79535">
        <ele>1530.8479412067</ele>
        <time>2019-07-06T05:14:39Z</time>
      </trkpt>
      <trkpt lat="45.52361" lon="6.7953">
        <ele>1531.5436176904</ele>
        <time>2019-07-06T05:14:41Z</time>
      </trkpt>
      <trkpt lat="45.52363" lon="6.79528">
        <ele>1531.5318904427</ele>
        <time>2019-07-06T05:14:42Z</time>
      </trkpt>
      <trkpt lat="45.52365" lon="6.79525">
        <ele>1531.9216303085</ele>
        <time>2019-07-06T05:14:44Z</time>
      </trkpt>
      <trkpt lat="45.52368" lon="6.79522">
        <ele>1532.0223210813</ele>
        <time>2019-07-06T05:14:46Z</time>
      </trkpt>
      <trkpt lat="45.52369" lon="6.7952">
        <ele>1532.0983791282</ele>
        <time>2019-07-06T05:14:47Z</time>
      </trkpt>
      <trkpt lat="45.52371" lon="6.79517">
        <ele>1531.8270054625</ele>
        <time>2019-07-06T05:14:49Z</time>
      </trkpt>
      <trkpt lat="45.52372" lon="6.79514">
        <ele>1531.8716952075</ele>
        <time>2019-07-06T05:14:51Z</time>
      </trkpt>
      <trkpt lat="45.52373" lon="6.79511">
        <ele>1532.0351377465</ele>
        <time>2019-07-06T05:14:53Z</time>
      </trkpt>
      <trkpt lat="45.52376" lon="6.79509">
        <ele>1531.8374678972</ele>
        <time>2019-07-06T05:14:55Z</time>
      </trkpt>
      <trkpt lat="45.52379" lon="6.79507">
        <ele>1531.4361854888</ele>
        <time>2019-07-06T05:14:57Z</time>
      </trkpt>
      <trkpt lat="45.52381" lon="6.79506">
        <ele>1531.0454160226</ele>
        <time>2019-07-06T05:14:59Z</time>
      </trkpt>
      <trkpt lat="45.52384" lon="6.79503">
        <ele>1530.7078490714</ele>
        <time>2019-07-06T05:15:01Z</time>
      </trkpt>
      <trkpt lat="45.52387" lon="6.79501">
        <ele>1530.9504528915</ele>
        <time>2019-07-06T05:15:03Z</time>
      </trkpt>
      <trkpt lat="45.52389" lon="6.79499">
        <ele>1531.0743086052</ele>
        <time>2019-07-06T05:15:04Z</time>
      </trkpt>
      <trkpt lat="45.52391" lon="6.79496">
        <ele>1531.6247287733</ele>
        <time>2019-07-06T05:15:06Z</time>
      </trkpt>
      <trkpt lat="45.52393" lon="6.79493">
        <ele>1532.1012959856</ele>
        <time>2019-07-06T05:15:08Z</time>
      </trkpt>
      <trkpt lat="45.52395" lon="6.7949">
        <ele>1532.5510036486</ele>
        <time>2019-07-06T05:15:10Z</time>
      </trkpt>
      <trkpt lat="45.52398" lon="6.79488">
        <ele>1532.7586079361</ele>
        <time>2019-07-06T05:15:12Z</time>
      </trkpt>
      <trkpt lat="45.524" lon="6.79486">
        <ele>1532.9092011506</ele>
        <time>2019-07-06T05:15:13Z</time>
      </trkpt>
      <trkpt lat="45.52402" lon="6.79485">
        <ele>1533.1119158571</ele>
        <time>2019-07-06T05:15:15Z</time>
      </trkpt>
      <trkpt lat="45.52404" lon="6.79482">
        <ele>1532.5712493791</ele>
        <time>2019-07-06T05:15:17Z</time>
      </trkpt>
      <trkpt lat="45.52405" lon="6.7948">
        <ele>1532.3471428858</ele>
        <time>2019-07-06T05:15:19Z</time>
      </trkpt>
      <trkpt lat="45.52408" lon="6.79478">
        <ele>1532.2338716967</ele>
        <time>2019-07-06T05:15:21Z</time>
      </trkpt>
      <trkpt lat="45.52409" lon="6.79476">
        <ele>1531.7152440959</ele>
        <time>2019-07-06T05:15:24Z</time>
      </trkpt>
      <trkpt lat="45.52412" lon="6.79473">
        <ele>1531.0650185194</ele>
        <time>2019-07-06T05:15:26Z</time>
      </trkpt>
      <trkpt lat="45.52414" lon="6.79471">
        <ele>1530.2515233777</ele>
        <time>2019-07-06T05:15:28Z</time>
      </trkpt>
      <trkpt lat="45.52416" lon="6.79469">
        <ele>1529.6044200325</ele>
        <time>2019-07-06T05:15:30Z</time>
      </trkpt>
      <trkpt lat="45.52418" lon="6.79467">
        <ele>1528.8397143002</ele>
        <time>2019-07-06T05:15:32Z</time>
      </trkpt>
      <trkpt lat="45.5242" lon="6.79465">
        <ele>1528.5634166425</ele>
        <time>2019-07-06T05:15:33Z</time>
      </trkpt>
      <trkpt lat="45.5242" lon="6.79462">
        <ele>1528.2214610123</ele>
        <time>2019-07-06T05:15:35Z</time>
      </trkpt>
      <trkpt lat="45.52422" lon="6.79461">
        <ele>1528.0903534382</ele>
        <time>2019-07-06T05:15:37Z</time>
      </trkpt>
      <trkpt lat="45.52424" lon="6.79459">
        <ele>1527.8696094695</ele>
        <time>2019-07-06T05:15:39Z</time>
      </trkpt>
      <trkpt lat="45.52425" lon="6.79456">
        <ele>1528.0327325653</ele>
        <time>2019-07-06T05:15:41Z</time>
      </trkpt>
      <trkpt lat="45.52426" lon="6.79452">
        <ele>1528.5949898092</ele>
        <time>2019-07-06T05:15:43Z</time>
      </trkpt>
      <trkpt lat="45.52426" lon="6.79447">
        <ele>1529.4872450095</ele>
        <time>2019-07-06T05:15:45Z</time>
      </trkpt>
      <trkpt lat="45.52426" lon="6.79441">
        <ele>1530.6775508969</ele>
        <time>2019-07-06T05:15:47Z</time>
      </trkpt>
      <trkpt lat="45.52426" lon="6.79439">
        <ele>1531.2284030845</ele>
        <time>2019-07-06T05:15:48Z</time>
      </trkpt>
      <trkpt lat="45.52427" lon="6.79435">
        <ele>1531.5998536358</ele>
        <time>2019-07-06T05:15:49Z</time>
      </trkpt>
      <trkpt lat="45.52427" lon="6.79433">
        <ele>1531.952279464</ele>
        <time>2019-07-06T05:15:50Z</time>
      </trkpt>
      <trkpt lat="45.52427" lon="6.79426">
        <ele>1532.4010506952</ele>
        <time>2019-07-06T05:15:52Z</time>
      </trkpt>
      <trkpt lat="45.52428" lon="6.79423">
        <ele>1532.4004856203</ele>
        <time>2019-07-06T05:15:53Z</time>
      </trkpt>
      <trkpt lat="45.52429" lon="6.7942">
        <ele>1532.1589872015</ele>
        <time>2019-07-06T05:15:54Z</time>
      </trkpt>
      <trkpt lat="45.52429" lon="6.79417">
        <ele>1532.2532996025</ele>
        <time>2019-07-06T05:15:55Z</time>
      </trkpt>
      <trkpt lat="45.5243" lon="6.79415">
        <ele>1532.1837673359</ele>
        <time>2019-07-06T05:15:56Z</time>
      </trkpt>
      <trkpt lat="45.52429" lon="6.79411">
        <ele>1531.815072098</ele>
        <time>2019-07-06T05:15:58Z</time>
      </trkpt>
      <trkpt lat="45.52429" lon="6.79406">
        <ele>1531.4356510581</ele>
        <time>2019-07-06T05:16:00Z</time>
      </trkpt>
      <trkpt lat="45.52429" lon="6.79402">
        <ele>1531.5093713734</ele>
        <time>2019-07-06T05:16:02Z</time>
      </trkpt>
      <trkpt lat="45.52427" lon="6.79398">
        <ele>1531.5092456973</ele>
        <time>2019-07-06T05:16:04Z</time>
      </trkpt>
      <trkpt lat="45.52427" lon="6.79394">
        <ele>1531.1067973638</ele>
        <time>2019-07-06T05:16:06Z</time>
      </trkpt>
      <trkpt lat="45.52426" lon="6.7939">
        <ele>1530.440775237</ele>
        <time>2019-07-06T05:16:08Z</time>
      </trkpt>
      <trkpt lat="45.52425" lon="6.79385">
        <ele>1529.7261649658</ele>
        <time>2019-07-06T05:16:10Z</time>
      </trkpt>
      <trkpt lat="45.52425" lon="6.7938">
        <ele>1529.317299589</ele>
        <time>2019-07-06T05:16:12Z</time>
      </trkpt>
      <trkpt lat="45.52423" lon="6.79377">
        <ele>1529.4763779769</ele>
        <time>2019-07-06T05:16:14Z</time>
      </trkpt>
      <trkpt lat="45.52421" lon="6.79373">
        <ele>1529.2886762375</ele>
        <time>2019-07-06T05:16:17Z</time>
      </trkpt>
      <trkpt lat="45.52421" lon="6.7937">
        <ele>1529.1055270602</ele>
        <time>2019-07-06T05:16:18Z</time>
      </trkpt>
      <trkpt lat="45.52421" lon="6.79367">
        <ele>1528.8318879894</ele>
        <time>2019-07-06T05:16:19Z</time>
      </trkpt>
      <trkpt lat="45.52421" lon="6.79362">
        <ele>1528.3688015786</ele>
        <time>2019-07-06T05:16:21Z</time>
      </trkpt>
      <trkpt lat="45.52421" lon="6.79358">
        <ele>1527.8053338683</ele>
        <time>2019-07-06T05:16:23Z</time>
      </trkpt>
      <trkpt lat="45.52421" lon="6.79356">
        <ele>1527.2994189479</ele>
        <time>2019-07-06T05:16:27Z</time>
      </trkpt>
      <trkpt lat="45.52421" lon="6.79351">
        <ele>1527.7296289265</ele>
        <time>2019-07-06T05:16:34Z</time>
      </trkpt>
      <trkpt lat="45.52419" lon="6.7935">
        <ele>1527.4720726701</ele>
        <time>2019-07-06T05:16:35Z</time>
      </trkpt>
      <trkpt lat="45.52417" lon="6.79348">
        <ele>1527.031435831</ele>
        <time>2019-07-06T05:16:37Z</time>
      </trkpt>
      <trkpt lat="45.52417" lon="6.79348">
        <ele>1526.8040501594</ele>
        <time>2019-07-06T05:16:38Z</time>
      </trkpt>
      <trkpt lat="45.52414" lon="6.79348">
        <ele>1526.7146450778</ele>
        <time>2019-07-06T05:16:40Z</time>
      </trkpt>
      <trkpt lat="45.52412" lon="6.79346">
        <ele>1526.8053189902</ele>
        <time>2019-07-06T05:16:42Z</time>
      </trkpt>
      <trkpt lat="45.52408" lon="6.79346">
        <ele>1527.0231738077</ele>
        <time>2019-07-06T05:16:44Z</time>
      </trkpt>
      <trkpt lat="45.52407" lon="6.79342">
        <ele>1526.589294308</ele>
        <time>2019-07-06T05:16:46Z</time>
      </trkpt>
      <trkpt lat="45.52407" lon="6.79339">
        <ele>1526.3927210462</ele>
        <time>2019-07-06T05:16:47Z</time>
      </trkpt>
      <trkpt lat="45.52407" lon="6.79334">
        <ele>1525.529099527</ele>
        <time>2019-07-06T05:16:49Z</time>
      </trkpt>
      <trkpt lat="45.52408" lon="6.79332">
        <ele>1524.9464911073</ele>
        <time>2019-07-06T05:16:50Z</time>
      </trkpt>
      <trkpt lat="45.5241" lon="6.79327">
        <ele>1523.9063414378</ele>
        <time>2019-07-06T05:16:52Z</time>
      </trkpt>
      <trkpt lat="45.52411" lon="6.79324">
        <ele>1523.2661647064</ele>
        <time>2019-07-06T05:16:53Z</time>
      </trkpt>
      <trkpt lat="45.52411" lon="6.79322">
        <ele>1522.8799028655</ele>
        <time>2019-07-06T05:16:54Z</time>
      </trkpt>
      <trkpt lat="45.52413" lon="6.79319">
        <ele>1522.5207700781</ele>
        <time>2019-07-06T05:16:55Z</time>
      </trkpt>
      <trkpt lat="45.52414" lon="6.79317">
        <ele>1522.5657042167</ele>
        <time>2019-07-06T05:16:56Z</time>
      </trkpt>
      <trkpt lat="45.52416" lon="6.79313">
        <ele>1522.7464580764</ele>
        <time>2019-07-06T05:16:58Z</time>
      </trkpt>
      <trkpt lat="45.52417" lon="6.7931">
        <ele>1522.5721581648</ele>
        <time>2019-07-06T05:16:59Z</time>
      </trkpt>
      <trkpt lat="45.52418" lon="6.79307">
        <ele>1522.4859651474</ele>
        <time>2019-07-06T05:17:00Z</time>
      </trkpt>
      <trkpt lat="45.52418" lon="6.79304">
        <ele>1522.7342738276</ele>
        <time>2019-07-06T05:17:01Z</time>
      </trkpt>
      <trkpt lat="45.5242" lon="6.79301">
        <ele>1523.0982657888</ele>
        <time>2019-07-06T05:17:02Z</time>
      </trkpt>
      <trkpt lat="45.52422" lon="6.79299">
        <ele>1523.939061579</ele>
        <time>2019-07-06T05:17:04Z</time>
      </trkpt>
      <trkpt lat="45.52424" lon="6.79296">
        <ele>1525.0466999229</ele>
        <time>2019-07-06T05:17:06Z</time>
      </trkpt>
      <trkpt lat="45.52425" lon="6.79294">
        <ele>1525.6344142054</ele>
        <time>2019-07-06T05:17:07Z</time>
      </trkpt>
      <trkpt lat="45.52427" lon="6.79291">
        <ele>1526.7698976705</ele>
        <time>2019-07-06T05:17:09Z</time>
      </trkpt>
      <trkpt lat="45.52429" lon="6.79287">
        <ele>1527.0799932657</ele>
        <time>2019-07-06T05:17:11Z</time>
      </trkpt>
      <trkpt lat="45.5243" lon="6.79283">
        <ele>1526.9165849266</ele>
        <time>2019-07-06T05:17:13Z</time>
      </trkpt>
      <trkpt lat="45.52431" lon="6.79281">
        <ele>1526.561341694</ele>
        <time>2019-07-06T05:17:15Z</time>
      </trkpt>
      <trkpt lat="45.52434" lon="6.79278">
        <ele>1525.9906372364</ele>
        <time>2019-07-06T05:17:17Z</time>
      </trkpt>
      <trkpt lat="45.52436" lon="6.79275">
        <ele>1525.3415722241</ele>
        <time>2019-07-06T05:17:19Z</time>
      </trkpt>
      <trkpt lat="45.52438" lon="6.79272">
        <ele>1524.0167377799</ele>
        <time>2019-07-06T05:17:21Z</time>
      </trkpt>
      <trkpt lat="45.5244" lon="6.79271">
        <ele>1522.9994045973</ele>
        <time>2019-07-06T05:17:23Z</time>
      </trkpt>
      <trkpt lat="45.52441" lon="6.79267">
        <ele>1522.9860723978</ele>
        <time>2019-07-06T05:17:25Z</time>
      </trkpt>
      <trkpt lat="45.52443" lon="6.79266">
        <ele>1523.2718822664</ele>
        <time>2019-07-06T05:17:26Z</time>
      </trkpt>
      <trkpt lat="45.52444" lon="6.79264">
        <ele>1523.4016535952</ele>
        <time>2019-07-06T05:17:27Z</time>
      </trkpt>
      <trkpt lat="45.52447" lon="6.79262">
        <ele>1523.9586787469</ele>
        <time>2019-07-06T05:17:29Z</time>
      </trkpt>
      <trkpt lat="45.52448" lon="6.7926">
        <ele>1524.3909681768</ele>
        <time>2019-07-06T05:17:30Z</time>
      </trkpt>
      <trkpt lat="45.52449" lon="6.79257">
        <ele>1524.8590036939</ele>
        <time>2019-07-06T05:17:32Z</time>
      </trkpt>
      <trkpt lat="45.52451" lon="6.79255">
        <ele>1524.6209331869</ele>
        <time>2019-07-06T05:17:34Z</time>
      </trkpt>
      <trkpt lat="45.52452" lon="6.79251">
        <ele>1524.5832496741</ele>
        <time>2019-07-06T05:17:36Z</time>
      </trkpt>
      <trkpt lat="45.52454" lon="6.79248">
        <ele>1524.8613681447</ele>
        <time>2019-07-06T05:17:38Z</time>
      </trkpt>
      <trkpt lat="45.52456" lon="6.79245">
        <ele>1526.0836778693</ele>
        <time>2019-07-06T05:17:40Z</time>
      </trkpt>
      <trkpt lat="45.52456" lon="6.79241">
        <ele>1526.406118299</ele>
        <time>2019-07-06T05:17:42Z</time>
      </trkpt>
      <trkpt lat="45.52457" lon="6.79239">
        <ele>1526.2952846021</ele>
        <time>2019-07-06T05:17:44Z</time>
      </trkpt>
      <trkpt lat="45.52457" lon="6.79236">
        <ele>1525.9266945322</ele>
        <time>2019-07-06T05:17:46Z</time>
      </trkpt>
      <trkpt lat="45.5246" lon="6.79232">
        <ele>1525.7507034668</ele>
        <time>2019-07-06T05:17:48Z</time>
      </trkpt>
      <trkpt lat="45.52461" lon="6.79229">
        <ele>1525.9146988152</ele>
        <time>2019-07-06T05:17:50Z</time>
      </trkpt>
      <trkpt lat="45.52463" lon="6.79226">
        <ele>1525.4732404873</ele>
        <time>2019-07-06T05:17:52Z</time>
      </trkpt>
      <trkpt lat="45.52464" lon="6.79223">
        <ele>1525.1308651667</ele>
        <time>2019-07-06T05:17:53Z</time>
      </trkpt>
      <trkpt lat="45.52464" lon="6.7922">
        <ele>1524.9687127935</ele>
        <time>2019-07-06T05:17:54Z</time>
      </trkpt>
      <trkpt lat="45.52466" lon="6.79217">
        <ele>1525.2222597776</ele>
        <time>2019-07-06T05:17:56Z</time>
      </trkpt>
      <trkpt lat="45.52467" lon="6.79213">
        <ele>1524.7182207025</ele>
        <time>2019-07-06T05:17:58Z</time>
      </trkpt>
      <trkpt lat="45.52468" lon="6.79208">
        <ele>1525.1440023269</ele>
        <time>2019-07-06T05:18:00Z</time>
      </trkpt>
      <trkpt lat="45.52469" lon="6.79206">
        <ele>1525.4889968765</ele>
        <time>2019-07-06T05:18:02Z</time>
      </trkpt>
      <trkpt lat="45.5247" lon="6.79202">
        <ele>1525.2751424276</ele>
        <time>2019-07-06T05:18:04Z</time>
      </trkpt>
      <trkpt lat="45.52472" lon="6.79199">
        <ele>1525.2906253215</ele>
        <time>2019-07-06T05:18:06Z</time>
      </trkpt>
      <trkpt lat="45.52473" lon="6.79196">
        <ele>1525.4501686758</ele>
        <time>2019-07-06T05:18:07Z</time>
      </trkpt>
      <trkpt lat="45.52474" lon="6.79194">
        <ele>1525.7034218557</ele>
        <time>2019-07-06T05:18:08Z</time>
      </trkpt>
      <trkpt lat="45.52475" lon="6.79191">
        <ele>1525.9440873517</ele>
        <time>2019-07-06T05:18:10Z</time>
      </trkpt>
      <trkpt lat="45.52476" lon="6.79187">
        <ele>1525.9123745122</ele>
        <time>2019-07-06T05:18:12Z</time>
      </trkpt>
      <trkpt lat="45.52476" lon="6.79184">
        <ele>1525.7839153141</ele>
        <time>2019-07-06T05:18:14Z</time>
      </trkpt>
      <trkpt lat="45.52476" lon="6.79181">
        <ele>1525.9006782869</ele>
        <time>2019-07-06T05:18:16Z</time>
      </trkpt>
      <trkpt lat="45.52478" lon="6.79179">
        <ele>1525.992683137</ele>
        <time>2019-07-06T05:18:18Z</time>
      </trkpt>
      <trkpt lat="45.5248" lon="6.79178">
        <ele>1526.0362249635</ele>
        <time>2019-07-06T05:18:19Z</time>
      </trkpt>
      <trkpt lat="45.52481" lon="6.79175">
        <ele>1525.9915115507</ele>
        <time>2019-07-06T05:18:20Z</time>
      </trkpt>
      <trkpt lat="45.52483" lon="6.79171">
        <ele>1525.6351777244</ele>
        <time>2019-07-06T05:18:22Z</time>
      </trkpt>
      <trkpt lat="45.52483" lon="6.79169">
        <ele>1525.1504819335</ele>
        <time>2019-07-06T05:18:23Z</time>
      </trkpt>
      <trkpt lat="45.52485" lon="6.79164">
        <ele>1525.0547982762</ele>
        <time>2019-07-06T05:18:25Z</time>
      </trkpt>
      <trkpt lat="45.52486" lon="6.7916">
        <ele>1525.325584163</ele>
        <time>2019-07-06T05:18:27Z</time>
      </trkpt>
      <trkpt lat="45.52486" lon="6.79156">
        <ele>1525.3278050456</ele>
        <time>2019-07-06T05:18:29Z</time>
      </trkpt>
      <trkpt lat="45.52486" lon="6.79152">
        <ele>1525.5838409119</ele>
        <time>2019-07-06T05:18:32Z</time>
      </trkpt>
      <trkpt lat="45.52487" lon="6.79148">
        <ele>1524.8819163471</ele>
        <time>2019-07-06T05:18:34Z</time>
      </trkpt>
      <trkpt lat="45.52486" lon="6.79146">
        <ele>1524.6234946984</ele>
        <time>2019-07-06T05:18:35Z</time>
      </trkpt>
      <trkpt lat="45.52484" lon="6.7914">
        <ele>1524.1223609968</ele>
        <time>2019-07-06T05:18:37Z</time>
      </trkpt>
      <trkpt lat="45.52484" lon="6.79138">
        <ele>1523.8960091723</ele>
        <time>2019-07-06T05:18:38Z</time>
      </trkpt>
      <trkpt lat="45.52485" lon="6.79134">
        <ele>1524.1134173995</ele>
        <time>2019-07-06T05:18:40Z</time>
      </trkpt>
      <trkpt lat="45.52486" lon="6.7913">
        <ele>1523.7870272634</ele>
        <time>2019-07-06T05:18:42Z</time>
      </trkpt>
      <trkpt lat="45.52487" lon="6.79127">
        <ele>1523.4349026405</ele>
        <time>2019-07-06T05:18:44Z</time>
      </trkpt>
      <trkpt lat="45.52489" lon="6.79124">
        <ele>1523.3129460129</ele>
        <time>2019-07-06T05:18:46Z</time>
      </trkpt>
      <trkpt lat="45.5249" lon="6.79121">
        <ele>1523.2462700797</ele>
        <time>2019-07-06T05:18:47Z</time>
      </trkpt>
      <trkpt lat="45.52491" lon="6.79118">
        <ele>1523.169382115</ele>
        <time>2019-07-06T05:18:49Z</time>
      </trkpt>
      <trkpt lat="45.5249" lon="6.79116">
        <ele>1523.2749524167</ele>
        <time>2019-07-06T05:18:51Z</time>
      </trkpt>
      <trkpt lat="45.52489" lon="6.79112">
        <ele>1523.8746275992</ele>
        <time>2019-07-06T05:18:53Z</time>
      </trkpt>
      <trkpt lat="45.52489" lon="6.7911">
        <ele>1524.9629355747</ele>
        <time>2019-07-06T05:18:55Z</time>
      </trkpt>
      <trkpt lat="45.52488" lon="6.79107">
        <ele>1524.8621227595</ele>
        <time>2019-07-06T05:18:56Z</time>
      </trkpt>
      <trkpt lat="45.52488" lon="6.79105">
        <ele>1525.1113850018</ele>
        <time>2019-07-06T05:18:58Z</time>
      </trkpt>
      <trkpt lat="45.52487" lon="6.79101">
        <ele>1525.1467180858</ele>
        <time>2019-07-06T05:19:01Z</time>
      </trkpt>
      <trkpt lat="45.52488" lon="6.79098">
        <ele>1524.8145826789</ele>
        <time>2019-07-06T05:19:05Z</time>
      </trkpt>
      <trkpt lat="45.52486" lon="6.79097">
        <ele>1524.0744052542</ele>
        <time>2019-07-06T05:19:17Z</time>
      </trkpt>
      <trkpt lat="45.52488" lon="6.79097">
        <ele>1528.6000674906</ele>
        <time>2019-07-06T05:19:31Z</time>
      </trkpt>
      <trkpt lat="45.52489" lon="6.79095">
        <ele>1529.1151091421</ele>
        <time>2019-07-06T05:19:33Z</time>
      </trkpt>
      <trkpt lat="45.52488" lon="6.79094">
        <ele>1525.1217169018</ele>
        <time>2019-07-06T05:19:49Z</time>
      </trkpt>
      <trkpt lat="45.52486" lon="6.79094">
        <ele>1525.0392303125</ele>
        <time>2019-07-06T05:19:51Z</time>
      </trkpt>
      <trkpt lat="45.52486" lon="6.79097">
        <ele>1524.2119690135</ele>
        <time>2019-07-06T05:19:55Z</time>
      </trkpt>
      <trkpt lat="45.52487" lon="6.79099">
        <ele>1523.7106920682</ele>
        <time>2019-07-06T05:19:58Z</time>
      </trkpt>
      <trkpt lat="45.52485" lon="6.79101">
        <ele>1523.3673218875</ele>
        <time>2019-07-06T05:20:06Z</time>
      </trkpt>
      <trkpt lat="45.52484" lon="6.79099">
        <ele>1525.2485105742</ele>
        <time>2019-07-06T05:20:11Z</time>
      </trkpt>
      <trkpt lat="45.52482" lon="6.79096">
        <ele>1525.6232476855</ele>
        <time>2019-07-06T05:20:13Z</time>
      </trkpt>
      <trkpt lat="45.52481" lon="6.79094">
        <ele>1526.8932118322</ele>
        <time>2019-07-06T05:20:15Z</time>
      </trkpt>
      <trkpt lat="45.52479" lon="6.79096">
        <ele>1527.9943505593</ele>
        <time>2019-07-06T05:20:19Z</time>
      </trkpt>
      <trkpt lat="45.52483" lon="6.79094">
        <ele>1523.8988114242</ele>
        <time>2019-07-06T05:20:25Z</time>
      </trkpt>
      <trkpt lat="45.52486" lon="6.79093">
        <ele>1522.1073860596</ele>
        <time>2019-07-06T05:20:27Z</time>
      </trkpt>
      <trkpt lat="45.52487" lon="6.79091">
        <ele>1521.2034967359</ele>
        <time>2019-07-06T05:20:28Z</time>
      </trkpt>
      <trkpt lat="45.5249" lon="6.79089">
        <ele>1519.9195560492</ele>
        <time>2019-07-06T05:20:30Z</time>
      </trkpt>
      <trkpt lat="45.52493" lon="6.79087">
        <ele>1518.8560633885</ele>
        <time>2019-07-06T05:20:32Z</time>
      </trkpt>
      <trkpt lat="45.52496" lon="6.79085">
        <ele>1517.9871132447</ele>
        <time>2019-07-06T05:20:34Z</time>
      </trkpt>
      <trkpt lat="45.52498" lon="6.79083">
        <ele>1517.7975624455</ele>
        <time>2019-07-06T05:20:36Z</time>
      </trkpt>
      <trkpt lat="45.52501" lon="6.79081">
        <ele>1517.3293827884</ele>
        <time>2019-07-06T05:20:38Z</time>
      </trkpt>
      <trkpt lat="45.52503" lon="6.79078">
        <ele>1516.5867394441</ele>
        <time>2019-07-06T05:20:40Z</time>
      </trkpt>
      <trkpt lat="45.52506" lon="6.79077">
        <ele>1516.7976614068</ele>
        <time>2019-07-06T05:20:42Z</time>
      </trkpt>
      <trkpt lat="45.52508" lon="6.79074">
        <ele>1517.6519367091</ele>
        <time>2019-07-06T05:20:44Z</time>
      </trkpt>
      <trkpt lat="45.5251" lon="6.79073">
        <ele>1518.1870691406</ele>
        <time>2019-07-06T05:20:45Z</time>
      </trkpt>
      <trkpt lat="45.52511" lon="6.79071">
        <ele>1518.397714111</ele>
        <time>2019-07-06T05:20:46Z</time>
      </trkpt>
      <trkpt lat="45.52513" lon="6.79069">
        <ele>1518.3735018726</ele>
        <time>2019-07-06T05:20:48Z</time>
      </trkpt>
      <trkpt lat="45.52516" lon="6.79067">
        <ele>1518.3478356465</ele>
        <time>2019-07-06T05:20:50Z</time>
      </trkpt>
      <trkpt lat="45.52517" lon="6.79066">
        <ele>1518.0483586246</ele>
        <time>2019-07-06T05:20:51Z</time>
      </trkpt>
      <trkpt lat="45.52519" lon="6.79064">
        <ele>1517.0341393271</ele>
        <time>2019-07-06T05:20:53Z</time>
      </trkpt>
      <trkpt lat="45.52521" lon="6.79061">
        <ele>1516.6210604804</ele>
        <time>2019-07-06T05:20:55Z</time>
      </trkpt>
      <trkpt lat="45.52523" lon="6.79059">
        <ele>1516.3610624709</ele>
        <time>2019-07-06T05:20:56Z</time>
      </trkpt>
      <trkpt lat="45.52526" lon="6.79055">
        <ele>1516.3566464254</ele>
        <time>2019-07-06T05:20:58Z</time>
      </trkpt>
      <trkpt lat="45.52527" lon="6.79053">
        <ele>1516.3027071061</ele>
        <time>2019-07-06T05:20:59Z</time>
      </trkpt>
      <trkpt lat="45.52527" lon="6.79049">
        <ele>1516.550067631</ele>
        <time>2019-07-06T05:21:01Z</time>
      </trkpt>
      <trkpt lat="45.52529" lon="6.79047">
        <ele>1516.5774258801</ele>
        <time>2019-07-06T05:21:02Z</time>
      </trkpt>
      <trkpt lat="45.52532" lon="6.79045">
        <ele>1515.5795965996</ele>
        <time>2019-07-06T05:21:04Z</time>
      </trkpt>
      <trkpt lat="45.52533" lon="6.79043">
        <ele>1514.9390496199</ele>
        <time>2019-07-06T05:21:05Z</time>
      </trkpt>
      <trkpt lat="45.52535" lon="6.79038">
        <ele>1513.7460700038</ele>
        <time>2019-07-06T05:21:07Z</time>
      </trkpt>
      <trkpt lat="45.52536" lon="6.79035">
        <ele>1513.2750541757</ele>
        <time>2019-07-06T05:21:09Z</time>
      </trkpt>
      <trkpt lat="45.52537" lon="6.79031">
        <ele>1513.3806522614</ele>
        <time>2019-07-06T05:21:11Z</time>
      </trkpt>
      <trkpt lat="45.52539" lon="6.79027">
        <ele>1513.3185061637</ele>
        <time>2019-07-06T05:21:13Z</time>
      </trkpt>
      <trkpt lat="45.5254" lon="6.79023">
        <ele>1513.8261746989</ele>
        <time>2019-07-06T05:21:15Z</time>
      </trkpt>
      <trkpt lat="45.52541" lon="6.79021">
        <ele>1513.8195413274</ele>
        <time>2019-07-06T05:21:16Z</time>
      </trkpt>
      <trkpt lat="45.52542" lon="6.79017">
        <ele>1514.362444002</ele>
        <time>2019-07-06T05:21:18Z</time>
      </trkpt>
      <trkpt lat="45.52542" lon="6.79012">
        <ele>1514.3100927359</ele>
        <time>2019-07-06T05:21:20Z</time>
      </trkpt>
      <trkpt lat="45.52544" lon="6.79009">
        <ele>1514.9171517038</ele>
        <time>2019-07-06T05:21:22Z</time>
      </trkpt>
      <trkpt lat="45.52545" lon="6.79006">
        <ele>1515.5228654194</ele>
        <time>2019-07-06T05:21:24Z</time>
      </trkpt>
      <trkpt lat="45.52546" lon="6.79003">
        <ele>1515.5617487793</ele>
        <time>2019-07-06T05:21:25Z</time>
      </trkpt>
      <trkpt lat="45.52547" lon="6.78999">
        <ele>1515.2814425542</ele>
        <time>2019-07-06T05:21:27Z</time>
      </trkpt>
      <trkpt lat="45.52547" lon="6.78994">
        <ele>1514.9879159491</ele>
        <time>2019-07-06T05:21:29Z</time>
      </trkpt>
      <trkpt lat="45.52548" lon="6.78991">
        <ele>1514.6025798285</ele>
        <time>2019-07-06T05:21:31Z</time>
      </trkpt>
      <trkpt lat="45.52549" lon="6.78987">
        <ele>1513.8442672069</ele>
        <time>2019-07-06T05:21:33Z</time>
      </trkpt>
      <trkpt lat="45.52549" lon="6.78985">
        <ele>1513.6994929112</ele>
        <time>2019-07-06T05:21:34Z</time>
      </trkpt>
      <trkpt lat="45.52551" lon="6.7898">
        <ele>1513.7422366607</ele>
        <time>2019-07-06T05:21:36Z</time>
      </trkpt>
      <trkpt lat="45.52552" lon="6.78976">
        <ele>1513.5172144138</ele>
        <time>2019-07-06T05:21:38Z</time>
      </trkpt>
      <trkpt lat="45.52554" lon="6.78974">
        <ele>1513.3719944557</ele>
        <time>2019-07-06T05:21:40Z</time>
      </trkpt>
      <trkpt lat="45.52555" lon="6.7897">
        <ele>1513.5220186981</ele>
        <time>2019-07-06T05:21:42Z</time>
      </trkpt>
      <trkpt lat="45.52556" lon="6.78966">
        <ele>1514.32358484</ele>
        <time>2019-07-06T05:21:44Z</time>
      </trkpt>
      <trkpt lat="45.52557" lon="6.78961">
        <ele>1514.715732973</ele>
        <time>2019-07-06T05:21:46Z</time>
      </trkpt>
      <trkpt lat="45.52559" lon="6.78957">
        <ele>1514.3466988949</ele>
        <time>2019-07-06T05:21:48Z</time>
      </trkpt>
      <trkpt lat="45.52561" lon="6.78953">
        <ele>1513.3297175883</ele>
        <time>2019-07-06T05:21:50Z</time>
      </trkpt>
      <trkpt lat="45.52562" lon="6.7895">
        <ele>1513.2398987327</ele>
        <time>2019-07-06T05:21:52Z</time>
      </trkpt>
      <trkpt lat="45.52564" lon="6.78947">
        <ele>1513.3894849441</ele>
        <time>2019-07-06T05:21:54Z</time>
      </trkpt>
      <trkpt lat="45.52566" lon="6.78943">
        <ele>1513.4415476305</ele>
        <time>2019-07-06T05:21:56Z</time>
      </trkpt>
      <trkpt lat="45.52567" lon="6.7894">
        <ele>1513.7050964495</ele>
        <time>2019-07-06T05:21:58Z</time>
      </trkpt>
      <trkpt lat="45.52568" lon="6.78937">
        <ele>1513.8865451849</ele>
        <time>2019-07-06T05:22:00Z</time>
      </trkpt>
      <trkpt lat="45.52569" lon="6.78934">
        <ele>1514.0765248999</ele>
        <time>2019-07-06T05:22:01Z</time>
      </trkpt>
      <trkpt lat="45.52571" lon="6.78931">
        <ele>1514.0498113776</ele>
        <time>2019-07-06T05:22:03Z</time>
      </trkpt>
      <trkpt lat="45.52572" lon="6.78928">
        <ele>1514.1684231959</ele>
        <time>2019-07-06T05:22:04Z</time>
      </trkpt>
      <trkpt lat="45.52574" lon="6.78926">
        <ele>1514.0679139071</ele>
        <time>2019-07-06T05:22:05Z</time>
      </trkpt>
      <trkpt lat="45.52576" lon="6.78925">
        <ele>1514.2000978247</ele>
        <time>2019-07-06T05:22:06Z</time>
      </trkpt>
      <trkpt lat="45.52577" lon="6.78922">
        <ele>1513.9722614752</ele>
        <time>2019-07-06T05:22:08Z</time>
      </trkpt>
      <trkpt lat="45.52578" lon="6.7892">
        <ele>1513.9100501167</ele>
        <time>2019-07-06T05:22:09Z</time>
      </trkpt>
      <trkpt lat="45.5258" lon="6.78917">
        <ele>1513.6657198798</ele>
        <time>2019-07-06T05:22:11Z</time>
      </trkpt>
      <trkpt lat="45.52581" lon="6.78914">
        <ele>1513.1590076907</ele>
        <time>2019-07-06T05:22:13Z</time>
      </trkpt>
      <trkpt lat="45.52583" lon="6.78912">
        <ele>1512.495108419</ele>
        <time>2019-07-06T05:22:15Z</time>
      </trkpt>
      <trkpt lat="45.52584" lon="6.78908">
        <ele>1511.3021417954</ele>
        <time>2019-07-06T05:22:17Z</time>
      </trkpt>
      <trkpt lat="45.52586" lon="6.78905">
        <ele>1510.6672287938</ele>
        <time>2019-07-06T05:22:19Z</time>
      </trkpt>
      <trkpt lat="45.52586" lon="6.78901">
        <ele>1510.3792228004</ele>
        <time>2019-07-06T05:22:21Z</time>
      </trkpt>
      <trkpt lat="45.52587" lon="6.78898">
        <ele>1509.2282644503</ele>
        <time>2019-07-06T05:22:23Z</time>
      </trkpt>
      <trkpt lat="45.52588" lon="6.78895">
        <ele>1509.3126522643</ele>
        <time>2019-07-06T05:22:25Z</time>
      </trkpt>
      <trkpt lat="45.52588" lon="6.78893">
        <ele>1509.4092062904</ele>
        <time>2019-07-06T05:22:26Z</time>
      </trkpt>
      <trkpt lat="45.52589" lon="6.78889">
        <ele>1509.2599171146</ele>
        <time>2019-07-06T05:22:28Z</time>
      </trkpt>
      <trkpt lat="45.52591" lon="6.78887">
        <ele>1508.919354761</ele>
        <time>2019-07-06T05:22:29Z</time>
      </trkpt>
      <trkpt lat="45.52592" lon="6.78885">
        <ele>1508.3260579532</ele>
        <time>2019-07-06T05:22:30Z</time>
      </trkpt>
      <trkpt lat="45.52593" lon="6.78883">
        <ele>1507.9581601649</ele>
        <time>2019-07-06T05:22:32Z</time>
      </trkpt>
      <trkpt lat="45.52595" lon="6.78879">
        <ele>1507.6025786654</ele>
        <time>2019-07-06T05:22:34Z</time>
      </trkpt>
      <trkpt lat="45.52597" lon="6.78875">
        <ele>1506.8476433617</ele>
        <time>2019-07-06T05:22:36Z</time>
      </trkpt>
      <trkpt lat="45.52597" lon="6.78873">
        <ele>1506.5929071866</ele>
        <time>2019-07-06T05:22:38Z</time>
      </trkpt>
      <trkpt lat="45.52598" lon="6.7887">
        <ele>1506.4239032502</ele>
        <time>2019-07-06T05:22:40Z</time>
      </trkpt>
      <trkpt lat="45.526" lon="6.78867">
        <ele>1506.4940419343</ele>
        <time>2019-07-06T05:22:42Z</time>
      </trkpt>
      <trkpt lat="45.52602" lon="6.78865">
        <ele>1506.6186836803</ele>
        <time>2019-07-06T05:22:44Z</time>
      </trkpt>
      <trkpt lat="45.52603" lon="6.7886">
        <ele>1507.3468056385</ele>
        <time>2019-07-06T05:22:46Z</time>
      </trkpt>
      <trkpt lat="45.52604" lon="6.78858">
        <ele>1507.7899729286</ele>
        <time>2019-07-06T05:22:48Z</time>
      </trkpt>
      <trkpt lat="45.52606" lon="6.78854">
        <ele>1507.8397751701</ele>
        <time>2019-07-06T05:22:50Z</time>
      </trkpt>
      <trkpt lat="45.52608" lon="6.7885">
        <ele>1507.7754611497</ele>
        <time>2019-07-06T05:22:52Z</time>
      </trkpt>
      <trkpt lat="45.52609" lon="6.78848">
        <ele>1507.253181986</ele>
        <time>2019-07-06T05:22:53Z</time>
      </trkpt>
      <trkpt lat="45.52609" lon="6.78845">
        <ele>1505.9649711005</ele>
        <time>2019-07-06T05:22:55Z</time>
      </trkpt>
      <trkpt lat="45.52608" lon="6.78843">
        <ele>1505.4683768298</ele>
        <time>2019-07-06T05:22:56Z</time>
      </trkpt>
      <trkpt lat="45.52609" lon="6.78839">
        <ele>1504.6160024679</ele>
        <time>2019-07-06T05:22:58Z</time>
      </trkpt>
      <trkpt lat="45.52611" lon="6.78836">
        <ele>1503.7011695856</ele>
        <time>2019-07-06T05:23:00Z</time>
      </trkpt>
      <trkpt lat="45.52613" lon="6.78831">
        <ele>1503.2174220871</ele>
        <time>2019-07-06T05:23:02Z</time>
      </trkpt>
      <trkpt lat="45.52614" lon="6.78828">
        <ele>1503.2655107375</ele>
        <time>2019-07-06T05:23:04Z</time>
      </trkpt>
      <trkpt lat="45.52615" lon="6.78826">
        <ele>1503.0376725767</ele>
        <time>2019-07-06T05:23:05Z</time>
      </trkpt>
      <trkpt lat="45.52616" lon="6.78824">
        <ele>1502.9004382148</ele>
        <time>2019-07-06T05:23:07Z</time>
      </trkpt>
      <trkpt lat="45.52618" lon="6.7882">
        <ele>1503.1168696687</ele>
        <time>2019-07-06T05:23:09Z</time>
      </trkpt>
      <trkpt lat="45.52619" lon="6.78816">
        <ele>1502.5424290878</ele>
        <time>2019-07-06T05:23:11Z</time>
      </trkpt>
      <trkpt lat="45.52619" lon="6.78812">
        <ele>1502.0456050626</ele>
        <time>2019-07-06T05:23:13Z</time>
      </trkpt>
      <trkpt lat="45.52619" lon="6.78809">
        <ele>1501.0977507268</ele>
        <time>2019-07-06T05:23:15Z</time>
      </trkpt>
      <trkpt lat="45.52621" lon="6.78807">
        <ele>1500.5374101973</ele>
        <time>2019-07-06T05:23:17Z</time>
      </trkpt>
      <trkpt lat="45.52622" lon="6.78804">
        <ele>1500.1347146825</ele>
        <time>2019-07-06T05:23:19Z</time>
      </trkpt>
      <trkpt lat="45.52625" lon="6.78801">
        <ele>1499.288404292</ele>
        <time>2019-07-06T05:23:21Z</time>
      </trkpt>
      <trkpt lat="45.52626" lon="6.78797">
        <ele>1498.4427695369</ele>
        <time>2019-07-06T05:23:23Z</time>
      </trkpt>
      <trkpt lat="45.52628" lon="6.78793">
        <ele>1498.9394705599</ele>
        <time>2019-07-06T05:23:25Z</time>
      </trkpt>
      <trkpt lat="45.52629" lon="6.78791">
        <ele>1499.4508926763</ele>
        <time>2019-07-06T05:23:26Z</time>
      </trkpt>
      <trkpt lat="45.5263" lon="6.78789">
        <ele>1499.9810849374</ele>
        <time>2019-07-06T05:23:27Z</time>
      </trkpt>
      <trkpt lat="45.52631" lon="6.78787">
        <ele>1500.4441835892</ele>
        <time>2019-07-06T05:23:28Z</time>
      </trkpt>
      <trkpt lat="45.52632" lon="6.78785">
        <ele>1500.7678880617</ele>
        <time>2019-07-06T05:23:29Z</time>
      </trkpt>
      <trkpt lat="45.52633" lon="6.78781">
        <ele>1501.2197962769</ele>
        <time>2019-07-06T05:23:31Z</time>
      </trkpt>
      <trkpt lat="45.52632" lon="6.78777">
        <ele>1501.4081107349</ele>
        <time>2019-07-06T05:23:33Z</time>
      </trkpt>
      <trkpt lat="45.52635" lon="6.78774">
        <ele>1501.7200107635</ele>
        <time>2019-07-06T05:23:35Z</time>
      </trkpt>
      <trkpt lat="45.52636" lon="6.78771">
        <ele>1501.3029472405</ele>
        <time>2019-07-06T05:23:37Z</time>
      </trkpt>
      <trkpt lat="45.52638" lon="6.78769">
        <ele>1500.8377190729</ele>
        <time>2019-07-06T05:23:38Z</time>
      </trkpt>
      <trkpt lat="45.52639" lon="6.78764">
        <ele>1499.8079737172</ele>
        <time>2019-07-06T05:23:40Z</time>
      </trkpt>
      <trkpt lat="45.52639" lon="6.78761">
        <ele>1500.3014277774</ele>
        <time>2019-07-06T05:23:42Z</time>
      </trkpt>
      <trkpt lat="45.52639" lon="6.78757">
        <ele>1501.063938319</ele>
        <time>2019-07-06T05:23:45Z</time>
      </trkpt>
      <trkpt lat="45.5264" lon="6.78754">
        <ele>1501.9206532918</ele>
        <time>2019-07-06T05:23:47Z</time>
      </trkpt>
      <trkpt lat="45.52642" lon="6.78751">
        <ele>1502.4828577994</ele>
        <time>2019-07-06T05:23:49Z</time>
      </trkpt>
      <trkpt lat="45.52645" lon="6.78747">
        <ele>1503.0487505645</ele>
        <time>2019-07-06T05:23:51Z</time>
      </trkpt>
      <trkpt lat="45.52646" lon="6.78744">
        <ele>1503.4531476676</ele>
        <time>2019-07-06T05:23:52Z</time>
      </trkpt>
      <trkpt lat="45.52647" lon="6.78742">
        <ele>1503.8621913007</ele>
        <time>2019-07-06T05:23:53Z</time>
      </trkpt>
      <trkpt lat="45.52649" lon="6.7874">
        <ele>1504.0748920367</ele>
        <time>2019-07-06T05:23:54Z</time>
      </trkpt>
      <trkpt lat="45.52652" lon="6.78737">
        <ele>1503.9361733264</ele>
        <time>2019-07-06T05:23:56Z</time>
      </trkpt>
      <trkpt lat="45.52653" lon="6.78735">
        <ele>1503.8720933546</ele>
        <time>2019-07-06T05:23:57Z</time>
      </trkpt>
      <trkpt lat="45.52655" lon="6.78732">
        <ele>1503.0111252195</ele>
        <time>2019-07-06T05:23:59Z</time>
      </trkpt>
      <trkpt lat="45.52657" lon="6.78727">
        <ele>1502.2286039303</ele>
        <time>2019-07-06T05:24:01Z</time>
      </trkpt>
      <trkpt lat="45.5266" lon="6.78724">
        <ele>1502.0728438122</ele>
        <time>2019-07-06T05:24:03Z</time>
      </trkpt>
      <trkpt lat="45.52661" lon="6.78721">
        <ele>1502.2867324371</ele>
        <time>2019-07-06T05:24:05Z</time>
      </trkpt>
      <trkpt lat="45.52663" lon="6.78719">
        <ele>1502.2977205523</ele>
        <time>2019-07-06T05:24:07Z</time>
      </trkpt>
      <trkpt lat="45.52665" lon="6.78715">
        <ele>1502.3158751731</ele>
        <time>2019-07-06T05:24:09Z</time>
      </trkpt>
      <trkpt lat="45.52666" lon="6.7871">
        <ele>1502.5932605084</ele>
        <time>2019-07-06T05:24:11Z</time>
      </trkpt>
      <trkpt lat="45.52667" lon="6.78708">
        <ele>1502.7542546947</ele>
        <time>2019-07-06T05:24:12Z</time>
      </trkpt>
      <trkpt lat="45.52669" lon="6.78705">
        <ele>1502.8634653342</ele>
        <time>2019-07-06T05:24:13Z</time>
      </trkpt>
      <trkpt lat="45.5267" lon="6.78703">
        <ele>1502.754232829</ele>
        <time>2019-07-06T05:24:14Z</time>
      </trkpt>
      <trkpt lat="45.52671" lon="6.78701">
        <ele>1502.4760624973</ele>
        <time>2019-07-06T05:24:15Z</time>
      </trkpt>
      <trkpt lat="45.52673" lon="6.78699">
        <ele>1502.2798436317</ele>
        <time>2019-07-06T05:24:17Z</time>
      </trkpt>
      <trkpt lat="45.52674" lon="6.78697">
        <ele>1502.7924242509</ele>
        <time>2019-07-06T05:24:19Z</time>
      </trkpt>
      <trkpt lat="45.52676" lon="6.78694">
        <ele>1502.7448905544</ele>
        <time>2019-07-06T05:24:21Z</time>
      </trkpt>
      <trkpt lat="45.52677" lon="6.7869">
        <ele>1502.2975632762</ele>
        <time>2019-07-06T05:24:24Z</time>
      </trkpt>
      <trkpt lat="45.52679" lon="6.78688">
        <ele>1501.4708875546</ele>
        <time>2019-07-06T05:24:26Z</time>
      </trkpt>
      <trkpt lat="45.5268" lon="6.78686">
        <ele>1500.222088716</ele>
        <time>2019-07-06T05:24:28Z</time>
      </trkpt>
      <trkpt lat="45.52683" lon="6.78681">
        <ele>1499.3981642081</ele>
        <time>2019-07-06T05:24:30Z</time>
      </trkpt>
      <trkpt lat="45.52685" lon="6.78676">
        <ele>1499.2581742917</ele>
        <time>2019-07-06T05:24:31Z</time>
      </trkpt>
      <trkpt lat="45.52688" lon="6.78674">
        <ele>1498.8098815011</ele>
        <time>2019-07-06T05:24:33Z</time>
      </trkpt>
      <trkpt lat="45.52688" lon="6.78671">
        <ele>1497.6274942969</ele>
        <time>2019-07-06T05:24:36Z</time>
      </trkpt>
      <trkpt lat="45.52689" lon="6.78668">
        <ele>1497.1664013359</ele>
        <time>2019-07-06T05:24:38Z</time>
      </trkpt>
      <trkpt lat="45.52692" lon="6.78665">
        <ele>1497.0636345431</ele>
        <time>2019-07-06T05:24:39Z</time>
      </trkpt>
      <trkpt lat="45.52693" lon="6.78662">
        <ele>1496.8379588119</ele>
        <time>2019-07-06T05:24:41Z</time>
      </trkpt>
      <trkpt lat="45.52695" lon="6.78661">
        <ele>1496.83566524</ele>
        <time>2019-07-06T05:24:42Z</time>
      </trkpt>
      <trkpt lat="45.52696" lon="6.78658">
        <ele>1496.8371871523</ele>
        <time>2019-07-06T05:24:44Z</time>
      </trkpt>
      <trkpt lat="45.52699" lon="6.78654">
        <ele>1496.2103245219</ele>
        <time>2019-07-06T05:24:46Z</time>
      </trkpt>
      <trkpt lat="45.527" lon="6.78651">
        <ele>1496.0824106134</ele>
        <time>2019-07-06T05:24:47Z</time>
      </trkpt>
      <trkpt lat="45.52702" lon="6.7865">
        <ele>1495.502318961</ele>
        <time>2019-07-06T05:24:49Z</time>
      </trkpt>
      <trkpt lat="45.52703" lon="6.78647">
        <ele>1494.9528175986</ele>
        <time>2019-07-06T05:24:50Z</time>
      </trkpt>
      <trkpt lat="45.52705" lon="6.78645">
        <ele>1494.1980904572</ele>
        <time>2019-07-06T05:24:52Z</time>
      </trkpt>
      <trkpt lat="45.52709" lon="6.78641">
        <ele>1493.5546790412</ele>
        <time>2019-07-06T05:24:54Z</time>
      </trkpt>
      <trkpt lat="45.52711" lon="6.78638">
        <ele>1493.6413158041</ele>
        <time>2019-07-06T05:24:56Z</time>
      </trkpt>
      <trkpt lat="45.52712" lon="6.78635">
        <ele>1493.2740206823</ele>
        <time>2019-07-06T05:24:58Z</time>
      </trkpt>
      <trkpt lat="45.52714" lon="6.78633">
        <ele>1493.7245770535</ele>
        <time>2019-07-06T05:25:00Z</time>
      </trkpt>
      <trkpt lat="45.52715" lon="6.78631">
        <ele>1494.6263749375</ele>
        <time>2019-07-06T05:25:03Z</time>
      </trkpt>
      <trkpt lat="45.52719" lon="6.78629">
        <ele>1494.5331529733</ele>
        <time>2019-07-06T05:25:05Z</time>
      </trkpt>
      <trkpt lat="45.52722" lon="6.78628">
        <ele>1494.6095032384</ele>
        <time>2019-07-06T05:25:07Z</time>
      </trkpt>
      <trkpt lat="45.52724" lon="6.78627">
        <ele>1494.3035684456</ele>
        <time>2019-07-06T05:25:08Z</time>
      </trkpt>
      <trkpt lat="45.52726" lon="6.78626">
        <ele>1493.7462689483</ele>
        <time>2019-07-06T05:25:10Z</time>
      </trkpt>
      <trkpt lat="45.52729" lon="6.78625">
        <ele>1493.7267273933</ele>
        <time>2019-07-06T05:25:11Z</time>
      </trkpt>
      <trkpt lat="45.5273" lon="6.78623">
        <ele>1493.6798431948</ele>
        <time>2019-07-06T05:25:12Z</time>
      </trkpt>
      <trkpt lat="45.52732" lon="6.78619">
        <ele>1493.7676537568</ele>
        <time>2019-07-06T05:25:14Z</time>
      </trkpt>
      <trkpt lat="45.52734" lon="6.78615">
        <ele>1493.568707578</ele>
        <time>2019-07-06T05:25:16Z</time>
      </trkpt>
      <trkpt lat="45.52736" lon="6.78612">
        <ele>1493.09358911</ele>
        <time>2019-07-06T05:25:18Z</time>
      </trkpt>
      <trkpt lat="45.52739" lon="6.78609">
        <ele>1491.7200929434</ele>
        <time>2019-07-06T05:25:20Z</time>
      </trkpt>
      <trkpt lat="45.52741" lon="6.78609">
        <ele>1490.2107358317</ele>
        <time>2019-07-06T05:25:22Z</time>
      </trkpt>
      <trkpt lat="45.52744" lon="6.78609">
        <ele>1488.8849601738</ele>
        <time>2019-07-06T05:25:24Z</time>
      </trkpt>
      <trkpt lat="45.52746" lon="6.78607">
        <ele>1488.1820753497</ele>
        <time>2019-07-06T05:25:25Z</time>
      </trkpt>
      <trkpt lat="45.52749" lon="6.78606">
        <ele>1486.4142018874</ele>
        <time>2019-07-06T05:25:27Z</time>
      </trkpt>
      <trkpt lat="45.52751" lon="6.78607">
        <ele>1485.6209673653</ele>
        <time>2019-07-06T05:25:29Z</time>
      </trkpt>
      <trkpt lat="45.52753" lon="6.78606">
        <ele>1485.5889518071</ele>
        <time>2019-07-06T05:25:30Z</time>
      </trkpt>
      <trkpt lat="45.52755" lon="6.78605">
        <ele>1485.6687043548</ele>
        <time>2019-07-06T05:25:31Z</time>
      </trkpt>
      <trkpt lat="45.52758" lon="6.78602">
        <ele>1485.1629231179</ele>
        <time>2019-07-06T05:25:33Z</time>
      </trkpt>
      <trkpt lat="45.52759" lon="6.78602">
        <ele>1484.907658955</ele>
        <time>2019-07-06T05:25:34Z</time>
      </trkpt>
      <trkpt lat="45.52762" lon="6.78599">
        <ele>1482.6020115192</ele>
        <time>2019-07-06T05:25:37Z</time>
      </trkpt>
      <trkpt lat="45.52764" lon="6.78597">
        <ele>1481.289439422</ele>
        <time>2019-07-06T05:25:39Z</time>
      </trkpt>
      <trkpt lat="45.52766" lon="6.78596">
        <ele>1480.8120107156</ele>
        <time>2019-07-06T05:25:41Z</time>
      </trkpt>
      <trkpt lat="45.52769" lon="6.78595">
        <ele>1480.1727375661</ele>
        <time>2019-07-06T05:25:43Z</time>
      </trkpt>
      <trkpt lat="45.52771" lon="6.78592">
        <ele>1479.0240016613</ele>
        <time>2019-07-06T05:25:45Z</time>
      </trkpt>
      <trkpt lat="45.52774" lon="6.78589">
        <ele>1478.2088697629</ele>
        <time>2019-07-06T05:25:47Z</time>
      </trkpt>
      <trkpt lat="45.52776" lon="6.78586">
        <ele>1478.071329967</ele>
        <time>2019-07-06T05:25:49Z</time>
      </trkpt>
      <trkpt lat="45.52777" lon="6.78585">
        <ele>1478.5161245715</ele>
        <time>2019-07-06T05:25:50Z</time>
      </trkpt>
      <trkpt lat="45.52779" lon="6.78583">
        <ele>1478.8812126918</ele>
        <time>2019-07-06T05:25:51Z</time>
      </trkpt>
      <trkpt lat="45.5278" lon="6.78581">
        <ele>1478.9531613476</ele>
        <time>2019-07-06T05:25:52Z</time>
      </trkpt>
      <trkpt lat="45.52782" lon="6.78576">
        <ele>1478.7344043016</ele>
        <time>2019-07-06T05:25:54Z</time>
      </trkpt>
      <trkpt lat="45.52784" lon="6.78574">
        <ele>1478.4291621751</ele>
        <time>2019-07-06T05:25:56Z</time>
      </trkpt>
      <trkpt lat="45.52786" lon="6.78572">
        <ele>1477.6906530397</ele>
        <time>2019-07-06T05:25:58Z</time>
      </trkpt>
      <trkpt lat="45.52787" lon="6.78567">
        <ele>1475.7133417731</ele>
        <time>2019-07-06T05:26:00Z</time>
      </trkpt>
      <trkpt lat="45.52789" lon="6.78562">
        <ele>1474.0275916142</ele>
        <time>2019-07-06T05:26:02Z</time>
      </trkpt>
      <trkpt lat="45.5279" lon="6.78557">
        <ele>1474.0206084282</ele>
        <time>2019-07-06T05:26:04Z</time>
      </trkpt>
      <trkpt lat="45.52791" lon="6.78555">
        <ele>1474.6286565108</ele>
        <time>2019-07-06T05:26:06Z</time>
      </trkpt>
      <trkpt lat="45.52792" lon="6.78554">
        <ele>1474.0344790185</ele>
        <time>2019-07-06T05:26:08Z</time>
      </trkpt>
      <trkpt lat="45.52794" lon="6.78551">
        <ele>1473.1947559864</ele>
        <time>2019-07-06T05:26:09Z</time>
      </trkpt>
      <trkpt lat="45.52795" lon="6.7855">
        <ele>1472.7903916894</ele>
        <time>2019-07-06T05:26:11Z</time>
      </trkpt>
      <trkpt lat="45.52796" lon="6.78546">
        <ele>1472.5223172431</ele>
        <time>2019-07-06T05:26:13Z</time>
      </trkpt>
      <trkpt lat="45.52798" lon="6.78545">
        <ele>1472.7273113331</ele>
        <time>2019-07-06T05:26:14Z</time>
      </trkpt>
      <trkpt lat="45.52799" lon="6.78541">
        <ele>1471.9245368944</ele>
        <time>2019-07-06T05:26:16Z</time>
      </trkpt>
      <trkpt lat="45.528" lon="6.78538">
        <ele>1471.4388166094</ele>
        <time>2019-07-06T05:26:17Z</time>
      </trkpt>
      <trkpt lat="45.52801" lon="6.78537">
        <ele>1471.4635346223</ele>
        <time>2019-07-06T05:26:18Z</time>
      </trkpt>
      <trkpt lat="45.52803" lon="6.78535">
        <ele>1471.6924692155</ele>
        <time>2019-07-06T05:26:19Z</time>
      </trkpt>
      <trkpt lat="45.52804" lon="6.78532">
        <ele>1471.8136370044</ele>
        <time>2019-07-06T05:26:21Z</time>
      </trkpt>
      <trkpt lat="45.52805" lon="6.78529">
        <ele>1470.9486008817</ele>
        <time>2019-07-06T05:26:23Z</time>
      </trkpt>
      <trkpt lat="45.52806" lon="6.78526">
        <ele>1470.4133191451</ele>
        <time>2019-07-06T05:26:24Z</time>
      </trkpt>
      <trkpt lat="45.52808" lon="6.78524">
        <ele>1469.2000395877</ele>
        <time>2019-07-06T05:26:26Z</time>
      </trkpt>
      <trkpt lat="45.52809" lon="6.78521">
        <ele>1468.5891962096</ele>
        <time>2019-07-06T05:26:27Z</time>
      </trkpt>
      <trkpt lat="45.5281" lon="6.78516">
        <ele>1467.5640323892</ele>
        <time>2019-07-06T05:26:29Z</time>
      </trkpt>
      <trkpt lat="45.5281" lon="6.78512">
        <ele>1467.1003660281</ele>
        <time>2019-07-06T05:26:31Z</time>
      </trkpt>
      <trkpt lat="45.52808" lon="6.78509">
        <ele>1468.4838874922</ele>
        <time>2019-07-06T05:26:33Z</time>
      </trkpt>
      <trkpt lat="45.52808" lon="6.78505">
        <ele>1470.2495918846</ele>
        <time>2019-07-06T05:26:35Z</time>
      </trkpt>
      <trkpt lat="45.52809" lon="6.78502">
        <ele>1470.3362998551</ele>
        <time>2019-07-06T05:26:37Z</time>
      </trkpt>
      <trkpt lat="45.52809" lon="6.78499">
        <ele>1470.7575978771</ele>
        <time>2019-07-06T05:26:38Z</time>
      </trkpt>
      <trkpt lat="45.5281" lon="6.78495">
        <ele>1471.8319560476</ele>
        <time>2019-07-06T05:26:40Z</time>
      </trkpt>
      <trkpt lat="45.52809" lon="6.78492">
        <ele>1472.5417705528</ele>
        <time>2019-07-06T05:26:41Z</time>
      </trkpt>
      <trkpt lat="45.5281" lon="6.7849">
        <ele>1473.7814901055</ele>
        <time>2019-07-06T05:26:43Z</time>
      </trkpt>
      <trkpt lat="45.52812" lon="6.78487">
        <ele>1474.2305950925</ele>
        <time>2019-07-06T05:26:44Z</time>
      </trkpt>
      <trkpt lat="45.52814" lon="6.78486">
        <ele>1476.4660975563</ele>
        <time>2019-07-06T05:26:47Z</time>
      </trkpt>
      <trkpt lat="45.52817" lon="6.78484">
        <ele>1477.6497612919</ele>
        <time>2019-07-06T05:26:49Z</time>
      </trkpt>
      <trkpt lat="45.52819" lon="6.78482">
        <ele>1478.2002782557</ele>
        <time>2019-07-06T05:26:50Z</time>
      </trkpt>
      <trkpt lat="45.52821" lon="6.78481">
        <ele>1477.8686544526</ele>
        <time>2019-07-06T05:26:53Z</time>
      </trkpt>
      <trkpt lat="45.52825" lon="6.7848">
        <ele>1477.588237519</ele>
        <time>2019-07-06T05:26:55Z</time>
      </trkpt>
      <trkpt lat="45.52828" lon="6.78478">
        <ele>1476.9170732367</ele>
        <time>2019-07-06T05:26:57Z</time>
      </trkpt>
      <trkpt lat="45.5283" lon="6.78478">
        <ele>1476.1780451726</ele>
        <time>2019-07-06T05:26:59Z</time>
      </trkpt>
      <trkpt lat="45.52831" lon="6.78475">
        <ele>1476.0646084903</ele>
        <time>2019-07-06T05:27:00Z</time>
      </trkpt>
      <trkpt lat="45.52833" lon="6.78473">
        <ele>1475.5812268435</ele>
        <time>2019-07-06T05:27:02Z</time>
      </trkpt>
      <trkpt lat="45.52835" lon="6.78471">
        <ele>1475.4824072193</ele>
        <time>2019-07-06T05:27:03Z</time>
      </trkpt>
      <trkpt lat="45.52838" lon="6.7847">
        <ele>1475.4925362017</ele>
        <time>2019-07-06T05:27:05Z</time>
      </trkpt>
      <trkpt lat="45.52841" lon="6.78469">
        <ele>1475.0162205317</ele>
        <time>2019-07-06T05:27:07Z</time>
      </trkpt>
      <trkpt lat="45.52843" lon="6.78467">
        <ele>1474.8386252822</ele>
        <time>2019-07-06T05:27:08Z</time>
      </trkpt>
      <trkpt lat="45.52845" lon="6.78465">
        <ele>1475.0431121403</ele>
        <time>2019-07-06T05:27:09Z</time>
      </trkpt>
      <trkpt lat="45.52847" lon="6.78462">
        <ele>1475.4266833709</ele>
        <time>2019-07-06T05:27:10Z</time>
      </trkpt>
      <trkpt lat="45.52848" lon="6.78461">
        <ele>1476.2313297711</ele>
        <time>2019-07-06T05:27:13Z</time>
      </trkpt>
      <trkpt lat="45.5285" lon="6.78458">
        <ele>1476.298097627</ele>
        <time>2019-07-06T05:27:15Z</time>
      </trkpt>
      <trkpt lat="45.52852" lon="6.78456">
        <ele>1476.571535144</ele>
        <time>2019-07-06T05:27:17Z</time>
      </trkpt>
      <trkpt lat="45.52854" lon="6.78454">
        <ele>1476.2677983852</ele>
        <time>2019-07-06T05:27:19Z</time>
      </trkpt>
      <trkpt lat="45.52855" lon="6.78452">
        <ele>1476.0256529162</ele>
        <time>2019-07-06T05:27:20Z</time>
      </trkpt>
      <trkpt lat="45.52857" lon="6.7845">
        <ele>1476.4823429388</ele>
        <time>2019-07-06T05:27:23Z</time>
      </trkpt>
      <trkpt lat="45.52858" lon="6.78448">
        <ele>1476.7820113103</ele>
        <time>2019-07-06T05:27:24Z</time>
      </trkpt>
      <trkpt lat="45.52861" lon="6.78445">
        <ele>1477.4394786464</ele>
        <time>2019-07-06T05:27:26Z</time>
      </trkpt>
      <trkpt lat="45.52862" lon="6.78442">
        <ele>1478.0290906079</ele>
        <time>2019-07-06T05:27:28Z</time>
      </trkpt>
      <trkpt lat="45.52864" lon="6.7844">
        <ele>1477.685065234</ele>
        <time>2019-07-06T05:27:32Z</time>
      </trkpt>
      <trkpt lat="45.52864" lon="6.78437">
        <ele>1475.7963843671</ele>
        <time>2019-07-06T05:27:36Z</time>
      </trkpt>
      <trkpt lat="45.52866" lon="6.78436">
        <ele>1475.4894367204</ele>
        <time>2019-07-06T05:27:39Z</time>
      </trkpt>
      <trkpt lat="45.52869" lon="6.78434">
        <ele>1475.0474206835</ele>
        <time>2019-07-06T05:27:41Z</time>
      </trkpt>
      <trkpt lat="45.52872" lon="6.7843">
        <ele>1474.1948917705</ele>
        <time>2019-07-06T05:27:44Z</time>
      </trkpt>
      <trkpt lat="45.52874" lon="6.78428">
        <ele>1474.1680220376</ele>
        <time>2019-07-06T05:27:45Z</time>
      </trkpt>
      <trkpt lat="45.52875" lon="6.78424">
        <ele>1474.405661805</ele>
        <time>2019-07-06T05:27:46Z</time>
      </trkpt>
      <trkpt lat="45.52876" lon="6.78422">
        <ele>1474.5698598945</ele>
        <time>2019-07-06T05:27:47Z</time>
      </trkpt>
      <trkpt lat="45.52878" lon="6.78419">
        <ele>1474.481888831</ele>
        <time>2019-07-06T05:27:49Z</time>
      </trkpt>
      <trkpt lat="45.5288" lon="6.78418">
        <ele>1473.9771748235</ele>
        <time>2019-07-06T05:27:51Z</time>
      </trkpt>
      <trkpt lat="45.52884" lon="6.78415">
        <ele>1473.9353402038</ele>
        <time>2019-07-06T05:27:53Z</time>
      </trkpt>
      <trkpt lat="45.52885" lon="6.78414">
        <ele>1473.8492950087</ele>
        <time>2019-07-06T05:27:54Z</time>
      </trkpt>
      <trkpt lat="45.52887" lon="6.78411">
        <ele>1474.3985798969</ele>
        <time>2019-07-06T05:27:58Z</time>
      </trkpt>
      <trkpt lat="45.52889" lon="6.7841">
        <ele>1474.2388423311</ele>
        <time>2019-07-06T05:28:00Z</time>
      </trkpt>
      <trkpt lat="45.52891" lon="6.78407">
        <ele>1473.5513617309</ele>
        <time>2019-07-06T05:28:02Z</time>
      </trkpt>
      <trkpt lat="45.52892" lon="6.78404">
        <ele>1473.2536660514</ele>
        <time>2019-07-06T05:28:03Z</time>
      </trkpt>
      <trkpt lat="45.52895" lon="6.78401">
        <ele>1472.5564017121</ele>
        <time>2019-07-06T05:28:05Z</time>
      </trkpt>
      <trkpt lat="45.52896" lon="6.78399">
        <ele>1472.018594956</ele>
        <time>2019-07-06T05:28:07Z</time>
      </trkpt>
      <trkpt lat="45.52898" lon="6.78396">
        <ele>1471.8086113477</ele>
        <time>2019-07-06T05:28:09Z</time>
      </trkpt>
      <trkpt lat="45.52901" lon="6.78393">
        <ele>1471.514858642</ele>
        <time>2019-07-06T05:28:11Z</time>
      </trkpt>
      <trkpt lat="45.52904" lon="6.7839">
        <ele>1470.9123432722</ele>
        <time>2019-07-06T05:28:13Z</time>
      </trkpt>
      <trkpt lat="45.52906" lon="6.78387">
        <ele>1469.7553563306</ele>
        <time>2019-07-06T05:28:15Z</time>
      </trkpt>
      <trkpt lat="45.52907" lon="6.78383">
        <ele>1468.4954179848</ele>
        <time>2019-07-06T05:28:17Z</time>
      </trkpt>
      <trkpt lat="45.52908" lon="6.78381">
        <ele>1468.0896589702</ele>
        <time>2019-07-06T05:28:18Z</time>
      </trkpt>
      <trkpt lat="45.52909" lon="6.78378">
        <ele>1467.7501436208</ele>
        <time>2019-07-06T05:28:19Z</time>
      </trkpt>
      <trkpt lat="45.52911" lon="6.78376">
        <ele>1467.4051632092</ele>
        <time>2019-07-06T05:28:21Z</time>
      </trkpt>
      <trkpt lat="45.52913" lon="6.78376">
        <ele>1467.5287887944</ele>
        <time>2019-07-06T05:28:24Z</time>
      </trkpt>
      <trkpt lat="45.52914" lon="6.78374">
        <ele>1467.8895053434</ele>
        <time>2019-07-06T05:28:28Z</time>
      </trkpt>
      <trkpt lat="45.52915" lon="6.78372">
        <ele>1468.0521095842</ele>
        <time>2019-07-06T05:28:30Z</time>
      </trkpt>
      <trkpt lat="45.52916" lon="6.78369">
        <ele>1469.3785273525</ele>
        <time>2019-07-06T05:28:34Z</time>
      </trkpt>
      <trkpt lat="45.52918" lon="6.78368">
        <ele>1470.5280624598</ele>
        <time>2019-07-06T05:28:37Z</time>
      </trkpt>
      <trkpt lat="45.5292" lon="6.78364">
        <ele>1470.5923953828</ele>
        <time>2019-07-06T05:28:40Z</time>
      </trkpt>
      <trkpt lat="45.52921" lon="6.78362">
        <ele>1470.2843895978</ele>
        <time>2019-07-06T05:28:42Z</time>
      </trkpt>
      <trkpt lat="45.52921" lon="6.78361">
        <ele>1470.276377309</ele>
        <time>2019-07-06T05:28:43Z</time>
      </trkpt>
      <trkpt lat="45.52923" lon="6.78359">
        <ele>1470.0783706512</ele>
        <time>2019-07-06T05:28:45Z</time>
      </trkpt>
      <trkpt lat="45.52925" lon="6.78356">
        <ele>1469.5338041055</ele>
        <time>2019-07-06T05:28:47Z</time>
      </trkpt>
      <trkpt lat="45.52927" lon="6.78354">
        <ele>1468.6157443555</ele>
        <time>2019-07-06T05:28:49Z</time>
      </trkpt>
      <trkpt lat="45.52927" lon="6.78351">
        <ele>1469.1924358759</ele>
        <time>2019-07-06T05:28:54Z</time>
      </trkpt>
      <trkpt lat="45.52928" lon="6.78349">
        <ele>1468.8493551867</ele>
        <time>2019-07-06T05:28:57Z</time>
      </trkpt>
      <trkpt lat="45.52928" lon="6.78346">
        <ele>1468.3320649853</ele>
        <time>2019-07-06T05:28:59Z</time>
      </trkpt>
      <trkpt lat="45.52931" lon="6.78343">
        <ele>1468.0979192889</ele>
        <time>2019-07-06T05:29:02Z</time>
      </trkpt>
      <trkpt lat="45.52934" lon="6.78341">
        <ele>1467.4128136647</ele>
        <time>2019-07-06T05:29:04Z</time>
      </trkpt>
      <trkpt lat="45.52936" lon="6.7834">
        <ele>1467.0404110941</ele>
        <time>2019-07-06T05:29:05Z</time>
      </trkpt>
      <trkpt lat="45.52937" lon="6.78338">
        <ele>1466.0675133658</ele>
        <time>2019-07-06T05:29:07Z</time>
      </trkpt>
      <trkpt lat="45.5294" lon="6.78335">
        <ele>1465.7067677564</ele>
        <time>2019-07-06T05:29:09Z</time>
      </trkpt>
      <trkpt lat="45.52941" lon="6.78332">
        <ele>1466.2889262913</ele>
        <time>2019-07-06T05:29:11Z</time>
      </trkpt>
      <trkpt lat="45.52942" lon="6.78329">
        <ele>1466.941764338</ele>
        <time>2019-07-06T05:29:13Z</time>
      </trkpt>
      <trkpt lat="45.52944" lon="6.78326">
        <ele>1467.2987697023</ele>
        <time>2019-07-06T05:29:16Z</time>
      </trkpt>
      <trkpt lat="45.52946" lon="6.78324">
        <ele>1466.9471639309</ele>
        <time>2019-07-06T05:29:18Z</time>
      </trkpt>
      <trkpt lat="45.52949" lon="6.78322">
        <ele>1466.1529331579</ele>
        <time>2019-07-06T05:29:20Z</time>
      </trkpt>
      <trkpt lat="45.52951" lon="6.78319">
        <ele>1466.0432534496</ele>
        <time>2019-07-06T05:29:23Z</time>
      </trkpt>
      <trkpt lat="45.52953" lon="6.78318">
        <ele>1465.9672332014</ele>
        <time>2019-07-06T05:29:24Z</time>
      </trkpt>
      <trkpt lat="45.52954" lon="6.78316">
        <ele>1465.7686493539</ele>
        <time>2019-07-06T05:29:25Z</time>
      </trkpt>
      <trkpt lat="45.52956" lon="6.78315">
        <ele>1465.3190502263</ele>
        <time>2019-07-06T05:29:27Z</time>
      </trkpt>
      <trkpt lat="45.52958" lon="6.78313">
        <ele>1464.9742457005</ele>
        <time>2019-07-06T05:29:29Z</time>
      </trkpt>
      <trkpt lat="45.52959" lon="6.7831">
        <ele>1464.779573858</ele>
        <time>2019-07-06T05:29:30Z</time>
      </trkpt>
      <trkpt lat="45.52961" lon="6.78307">
        <ele>1465.0363280238</ele>
        <time>2019-07-06T05:29:33Z</time>
      </trkpt>
      <trkpt lat="45.52962" lon="6.78305">
        <ele>1465.5832037808</ele>
        <time>2019-07-06T05:29:34Z</time>
      </trkpt>
      <trkpt lat="45.52964" lon="6.78303">
        <ele>1466.2815981603</ele>
        <time>2019-07-06T05:29:36Z</time>
      </trkpt>
      <trkpt lat="45.52964" lon="6.783">
        <ele>1465.8551692811</ele>
        <time>2019-07-06T05:29:39Z</time>
      </trkpt>
      <trkpt lat="45.52966" lon="6.78298">
        <ele>1464.6330716615</ele>
        <time>2019-07-06T05:29:41Z</time>
      </trkpt>
      <trkpt lat="45.52968" lon="6.78293">
        <ele>1464.0876012824</ele>
        <time>2019-07-06T05:29:43Z</time>
      </trkpt>
      <trkpt lat="45.52969" lon="6.78289">
        <ele>1463.3366492956</ele>
        <time>2019-07-06T05:29:45Z</time>
      </trkpt>
      <trkpt lat="45.52971" lon="6.78288">
        <ele>1462.686047425</ele>
        <time>2019-07-06T05:29:46Z</time>
      </trkpt>
      <trkpt lat="45.52973" lon="6.78286">
        <ele>1461.3961682332</ele>
        <time>2019-07-06T05:29:48Z</time>
      </trkpt>
      <trkpt lat="45.52975" lon="6.78283">
        <ele>1460.7366077523</ele>
        <time>2019-07-06T05:29:50Z</time>
      </trkpt>
      <trkpt lat="45.52977" lon="6.7828">
        <ele>1459.2588765554</ele>
        <time>2019-07-06T05:29:52Z</time>
      </trkpt>
      <trkpt lat="45.52978" lon="6.78278">
        <ele>1458.4252982311</ele>
        <time>2019-07-06T05:29:53Z</time>
      </trkpt>
      <trkpt lat="45.52981" lon="6.78277">
        <ele>1458.2624729201</ele>
        <time>2019-07-06T05:29:55Z</time>
      </trkpt>
      <trkpt lat="45.52982" lon="6.78274">
        <ele>1458.566714283</ele>
        <time>2019-07-06T05:29:57Z</time>
      </trkpt>
      <trkpt lat="45.52984" lon="6.78272">
        <ele>1458.5727733096</ele>
        <time>2019-07-06T05:29:59Z</time>
      </trkpt>
      <trkpt lat="45.52986" lon="6.7827">
        <ele>1458.8179309419</ele>
        <time>2019-07-06T05:30:00Z</time>
      </trkpt>
      <trkpt lat="45.52987" lon="6.78268">
        <ele>1459.0178141099</ele>
        <time>2019-07-06T05:30:01Z</time>
      </trkpt>
      <trkpt lat="45.5299" lon="6.78264">
        <ele>1459.3072952508</ele>
        <time>2019-07-06T05:30:03Z</time>
      </trkpt>
      <trkpt lat="45.52992" lon="6.78262">
        <ele>1458.7613931778</ele>
        <time>2019-07-06T05:30:05Z</time>
      </trkpt>
      <trkpt lat="45.52994" lon="6.78259">
        <ele>1457.8452909937</ele>
        <time>2019-07-06T05:30:07Z</time>
      </trkpt>
      <trkpt lat="45.52995" lon="6.78256">
        <ele>1456.8365111991</ele>
        <time>2019-07-06T05:30:09Z</time>
      </trkpt>
      <trkpt lat="45.52996" lon="6.78253">
        <ele>1455.4319869087</ele>
        <time>2019-07-06T05:30:12Z</time>
      </trkpt>
      <trkpt lat="45.52997" lon="6.78251">
        <ele>1455.3912826664</ele>
        <time>2019-07-06T05:30:13Z</time>
      </trkpt>
      <trkpt lat="45.52999" lon="6.78248">
        <ele>1454.6138612637</ele>
        <time>2019-07-06T05:30:15Z</time>
      </trkpt>
      <trkpt lat="45.53001" lon="6.78245">
        <ele>1454.419546463</ele>
        <time>2019-07-06T05:30:17Z</time>
      </trkpt>
      <trkpt lat="45.53003" lon="6.78243">
        <ele>1454.340543818</ele>
        <time>2019-07-06T05:30:19Z</time>
      </trkpt>
      <trkpt lat="45.53005" lon="6.7824">
        <ele>1453.5287131513</ele>
        <time>2019-07-06T05:30:21Z</time>
      </trkpt>
      <trkpt lat="45.53007" lon="6.78238">
        <ele>1453.8744847518</ele>
        <time>2019-07-06T05:30:22Z</time>
      </trkpt>
      <trkpt lat="45.53009" lon="6.78237">
        <ele>1454.3850934025</ele>
        <time>2019-07-06T05:30:23Z</time>
      </trkpt>
      <trkpt lat="45.5301" lon="6.78236">
        <ele>1455.0979588778</ele>
        <time>2019-07-06T05:30:25Z</time>
      </trkpt>
      <trkpt lat="45.53012" lon="6.78234">
        <ele>1455.522665979</ele>
        <time>2019-07-06T05:30:26Z</time>
      </trkpt>
      <trkpt lat="45.53014" lon="6.7823">
        <ele>1456.2095819004</ele>
        <time>2019-07-06T05:30:28Z</time>
      </trkpt>
      <trkpt lat="45.53015" lon="6.78227">
        <ele>1456.5052795397</ele>
        <time>2019-07-06T05:30:29Z</time>
      </trkpt>
      <trkpt lat="45.53016" lon="6.78225">
        <ele>1456.8687071951</ele>
        <time>2019-07-06T05:30:30Z</time>
      </trkpt>
      <trkpt lat="45.53018" lon="6.78223">
        <ele>1458.3318919252</ele>
        <time>2019-07-06T05:30:33Z</time>
      </trkpt>
      <trkpt lat="45.53019" lon="6.7822">
        <ele>1458.7788181491</ele>
        <time>2019-07-06T05:30:35Z</time>
      </trkpt>
      <trkpt lat="45.53021" lon="6.78218">
        <ele>1458.6349004664</ele>
        <time>2019-07-06T05:30:37Z</time>
      </trkpt>
      <trkpt lat="45.53023" lon="6.78215">
        <ele>1458.4006464472</ele>
        <time>2019-07-06T05:30:39Z</time>
      </trkpt>
      <trkpt lat="45.53025" lon="6.78212">
        <ele>1457.533936467</ele>
        <time>2019-07-06T05:30:41Z</time>
      </trkpt>
      <trkpt lat="45.53027" lon="6.78208">
        <ele>1456.6887115623</ele>
        <time>2019-07-06T05:30:43Z</time>
      </trkpt>
      <trkpt lat="45.53028" lon="6.78205">
        <ele>1457.0698204181</ele>
        <time>2019-07-06T05:30:45Z</time>
      </trkpt>
      <trkpt lat="45.5303" lon="6.78202">
        <ele>1457.8697257525</ele>
        <time>2019-07-06T05:30:47Z</time>
      </trkpt>
      <trkpt lat="45.53032" lon="6.78198">
        <ele>1458.2624203708</ele>
        <time>2019-07-06T05:30:49Z</time>
      </trkpt>
      <trkpt lat="45.53032" lon="6.78196">
        <ele>1458.5286818972</ele>
        <time>2019-07-06T05:30:51Z</time>
      </trkpt>
      <trkpt lat="45.53033" lon="6.78192">
        <ele>1458.4188333406</ele>
        <time>2019-07-06T05:30:53Z</time>
      </trkpt>
      <trkpt lat="45.53034" lon="6.78189">
        <ele>1457.6813383654</ele>
        <time>2019-07-06T05:30:55Z</time>
      </trkpt>
      <trkpt lat="45.53035" lon="6.78186">
        <ele>1456.8328273063</ele>
        <time>2019-07-06T05:30:57Z</time>
      </trkpt>
      <trkpt lat="45.53036" lon="6.78185">
        <ele>1455.7518016921</ele>
        <time>2019-07-06T05:30:59Z</time>
      </trkpt>
      <trkpt lat="45.53037" lon="6.78183">
        <ele>1454.6124174028</ele>
        <time>2019-07-06T05:31:01Z</time>
      </trkpt>
      <trkpt lat="45.5304" lon="6.78182">
        <ele>1452.6852128603</ele>
        <time>2019-07-06T05:31:04Z</time>
      </trkpt>
      <trkpt lat="45.53042" lon="6.78179">
        <ele>1451.9355990428</ele>
        <time>2019-07-06T05:31:06Z</time>
      </trkpt>
      <trkpt lat="45.53042" lon="6.78176">
        <ele>1451.0807604307</ele>
        <time>2019-07-06T05:31:08Z</time>
      </trkpt>
      <trkpt lat="45.53043" lon="6.78173">
        <ele>1449.3194493426</ele>
        <time>2019-07-06T05:31:10Z</time>
      </trkpt>
      <trkpt lat="45.53044" lon="6.78169">
        <ele>1447.5387961323</ele>
        <time>2019-07-06T05:31:12Z</time>
      </trkpt>
      <trkpt lat="45.53045" lon="6.78166">
        <ele>1446.4548362146</ele>
        <time>2019-07-06T05:31:14Z</time>
      </trkpt>
      <trkpt lat="45.53046" lon="6.78161">
        <ele>1446.0629036258</ele>
        <time>2019-07-06T05:31:16Z</time>
      </trkpt>
      <trkpt lat="45.53047" lon="6.78158">
        <ele>1445.2974468089</ele>
        <time>2019-07-06T05:31:18Z</time>
      </trkpt>
      <trkpt lat="45.53049" lon="6.78155">
        <ele>1444.7985665202</ele>
        <time>2019-07-06T05:31:20Z</time>
      </trkpt>
      <trkpt lat="45.53051" lon="6.78155">
        <ele>1444.6550861346</ele>
        <time>2019-07-06T05:31:21Z</time>
      </trkpt>
      <trkpt lat="45.53052" lon="6.78152">
        <ele>1444.5179281703</ele>
        <time>2019-07-06T05:31:23Z</time>
      </trkpt>
      <trkpt lat="45.53054" lon="6.78149">
        <ele>1444.2605460789</ele>
        <time>2019-07-06T05:31:25Z</time>
      </trkpt>
      <trkpt lat="45.53054" lon="6.78146">
        <ele>1444.1665337918</ele>
        <time>2019-07-06T05:31:27Z</time>
      </trkpt>
      <trkpt lat="45.53055" lon="6.78143">
        <ele>1444.0403606171</ele>
        <time>2019-07-06T05:31:29Z</time>
      </trkpt>
      <trkpt lat="45.53056" lon="6.7814">
        <ele>1444.6874669356</ele>
        <time>2019-07-06T05:31:31Z</time>
      </trkpt>
      <trkpt lat="45.53058" lon="6.78138">
        <ele>1444.8286632781</ele>
        <time>2019-07-06T05:31:32Z</time>
      </trkpt>
      <trkpt lat="45.53059" lon="6.78135">
        <ele>1444.7459319676</ele>
        <time>2019-07-06T05:31:34Z</time>
      </trkpt>
      <trkpt lat="45.5306" lon="6.78131">
        <ele>1444.3906163417</ele>
        <time>2019-07-06T05:31:37Z</time>
      </trkpt>
      <trkpt lat="45.53061" lon="6.78128">
        <ele>1444.3264668853</ele>
        <time>2019-07-06T05:31:38Z</time>
      </trkpt>
      <trkpt lat="45.53062" lon="6.78124">
        <ele>1443.8441043972</ele>
        <time>2019-07-06T05:31:40Z</time>
      </trkpt>
      <trkpt lat="45.53064" lon="6.78122">
        <ele>1443.9425796352</ele>
        <time>2019-07-06T05:31:42Z</time>
      </trkpt>
      <trkpt lat="45.53065" lon="6.7812">
        <ele>1444.0724080538</ele>
        <time>2019-07-06T05:31:43Z</time>
      </trkpt>
      <trkpt lat="45.53066" lon="6.78118">
        <ele>1445.0388562872</ele>
        <time>2019-07-06T05:31:45Z</time>
      </trkpt>
      <trkpt lat="45.53069" lon="6.78117">
        <ele>1445.8846483645</ele>
        <time>2019-07-06T05:31:46Z</time>
      </trkpt>
      <trkpt lat="45.53069" lon="6.78114">
        <ele>1446.8236506392</ele>
        <time>2019-07-06T05:31:47Z</time>
      </trkpt>
      <trkpt lat="45.53069" lon="6.78111">
        <ele>1447.6674944446</ele>
        <time>2019-07-06T05:31:48Z</time>
      </trkpt>
      <trkpt lat="45.5307" lon="6.78108">
        <ele>1448.1861159844</ele>
        <time>2019-07-06T05:31:49Z</time>
      </trkpt>
      <trkpt lat="45.5307" lon="6.78104">
        <ele>1448.823633156</ele>
        <time>2019-07-06T05:31:51Z</time>
      </trkpt>
      <trkpt lat="45.53071" lon="6.78102">
        <ele>1448.9943265193</ele>
        <time>2019-07-06T05:31:52Z</time>
      </trkpt>
      <trkpt lat="45.53072" lon="6.78099">
        <ele>1449.1921318462</ele>
        <time>2019-07-06T05:31:53Z</time>
      </trkpt>
      <trkpt lat="45.53073" lon="6.78096">
        <ele>1449.1491085566</ele>
        <time>2019-07-06T05:31:55Z</time>
      </trkpt>
      <trkpt lat="45.53074" lon="6.78091">
        <ele>1448.6763221399</ele>
        <time>2019-07-06T05:31:57Z</time>
      </trkpt>
      <trkpt lat="45.53075" lon="6.78088">
        <ele>1448.7141482985</ele>
        <time>2019-07-06T05:31:58Z</time>
      </trkpt>
      <trkpt lat="45.53076" lon="6.78085">
        <ele>1448.4812316219</ele>
        <time>2019-07-06T05:31:59Z</time>
      </trkpt>
      <trkpt lat="45.53077" lon="6.78082">
        <ele>1448.2196621681</ele>
        <time>2019-07-06T05:32:00Z</time>
      </trkpt>
      <trkpt lat="45.53079" lon="6.78079">
        <ele>1446.9183821195</ele>
        <time>2019-07-06T05:32:03Z</time>
      </trkpt>
      <trkpt lat="45.5308" lon="6.78075">
        <ele>1446.6308597302</ele>
        <time>2019-07-06T05:32:05Z</time>
      </trkpt>
      <trkpt lat="45.53082" lon="6.78073">
        <ele>1446.74038424</ele>
        <time>2019-07-06T05:32:06Z</time>
      </trkpt>
      <trkpt lat="45.53084" lon="6.78069">
        <ele>1447.3362819338</ele>
        <time>2019-07-06T05:32:09Z</time>
      </trkpt>
      <trkpt lat="45.53084" lon="6.78066">
        <ele>1446.9536854406</ele>
        <time>2019-07-06T05:32:11Z</time>
      </trkpt>
      <trkpt lat="45.53084" lon="6.78062">
        <ele>1447.2242486056</ele>
        <time>2019-07-06T05:32:13Z</time>
      </trkpt>
      <trkpt lat="45.53085" lon="6.78059">
        <ele>1447.8470428205</ele>
        <time>2019-07-06T05:32:15Z</time>
      </trkpt>
      <trkpt lat="45.53087" lon="6.78056">
        <ele>1448.0736022779</ele>
        <time>2019-07-06T05:32:16Z</time>
      </trkpt>
      <trkpt lat="45.53088" lon="6.78054">
        <ele>1448.5872536415</ele>
        <time>2019-07-06T05:32:18Z</time>
      </trkpt>
      <trkpt lat="45.5309" lon="6.78052">
        <ele>1448.7092807232</ele>
        <time>2019-07-06T05:32:19Z</time>
      </trkpt>
      <trkpt lat="45.53092" lon="6.78049">
        <ele>1449.306594303</ele>
        <time>2019-07-06T05:32:21Z</time>
      </trkpt>
      <trkpt lat="45.53094" lon="6.78046">
        <ele>1450.1401977128</ele>
        <time>2019-07-06T05:32:23Z</time>
      </trkpt>
      <trkpt lat="45.53096" lon="6.78043">
        <ele>1450.6047362303</ele>
        <time>2019-07-06T05:32:25Z</time>
      </trkpt>
      <trkpt lat="45.53097" lon="6.7804">
        <ele>1451.046696817</ele>
        <time>2019-07-06T05:32:27Z</time>
      </trkpt>
      <trkpt lat="45.53098" lon="6.78036">
        <ele>1450.8933744566</ele>
        <time>2019-07-06T05:32:29Z</time>
      </trkpt>
      <trkpt lat="45.53099" lon="6.78033">
        <ele>1450.0368470322</ele>
        <time>2019-07-06T05:32:31Z</time>
      </trkpt>
      <trkpt lat="45.53099" lon="6.78029">
        <ele>1449.1896357202</ele>
        <time>2019-07-06T05:32:33Z</time>
      </trkpt>
      <trkpt lat="45.531" lon="6.78025">
        <ele>1448.4523613278</ele>
        <time>2019-07-06T05:32:35Z</time>
      </trkpt>
      <trkpt lat="45.53102" lon="6.78022">
        <ele>1448.2544992368</ele>
        <time>2019-07-06T05:32:37Z</time>
      </trkpt>
      <trkpt lat="45.53102" lon="6.7802">
        <ele>1448.5085016721</ele>
        <time>2019-07-06T05:32:38Z</time>
      </trkpt>
      <trkpt lat="45.53103" lon="6.78017">
        <ele>1448.9201206664</ele>
        <time>2019-07-06T05:32:39Z</time>
      </trkpt>
      <trkpt lat="45.53103" lon="6.78014">
        <ele>1449.7268318237</ele>
        <time>2019-07-06T05:32:41Z</time>
      </trkpt>
      <trkpt lat="45.53105" lon="6.78011">
        <ele>1449.1710404635</ele>
        <time>2019-07-06T05:32:43Z</time>
      </trkpt>
      <trkpt lat="45.53107" lon="6.78009">
        <ele>1448.794901837</ele>
        <time>2019-07-06T05:32:44Z</time>
      </trkpt>
      <trkpt lat="45.53107" lon="6.78006">
        <ele>1448.7527145363</ele>
        <time>2019-07-06T05:32:45Z</time>
      </trkpt>
      <trkpt lat="45.53109" lon="6.78005">
        <ele>1448.6773618288</ele>
        <time>2019-07-06T05:32:46Z</time>
      </trkpt>
      <trkpt lat="45.5311" lon="6.78003">
        <ele>1448.9520179035</ele>
        <time>2019-07-06T05:32:47Z</time>
      </trkpt>
      <trkpt lat="45.53111" lon="6.77999">
        <ele>1449.37912121</ele>
        <time>2019-07-06T05:32:49Z</time>
      </trkpt>
      <trkpt lat="45.53111" lon="6.77997">
        <ele>1449.4379057049</ele>
        <time>2019-07-06T05:32:50Z</time>
      </trkpt>
      <trkpt lat="45.53113" lon="6.77994">
        <ele>1449.5809536483</ele>
        <time>2019-07-06T05:32:52Z</time>
      </trkpt>
      <trkpt lat="45.53115" lon="6.77991">
        <ele>1449.1656923216</ele>
        <time>2019-07-06T05:32:55Z</time>
      </trkpt>
      <trkpt lat="45.53114" lon="6.77986">
        <ele>1449.170969507</ele>
        <time>2019-07-06T05:32:57Z</time>
      </trkpt>
      <trkpt lat="45.53114" lon="6.77981">
        <ele>1449.0553266295</ele>
        <time>2019-07-06T05:32:59Z</time>
      </trkpt>
      <trkpt lat="45.53114" lon="6.77978">
        <ele>1448.9925480946</ele>
        <time>2019-07-06T05:33:01Z</time>
      </trkpt>
      <trkpt lat="45.53116" lon="6.77975">
        <ele>1449.4847733752</ele>
        <time>2019-07-06T05:33:03Z</time>
      </trkpt>
      <trkpt lat="45.53117" lon="6.77972">
        <ele>1449.3903332885</ele>
        <time>2019-07-06T05:33:05Z</time>
      </trkpt>
      <trkpt lat="45.53118" lon="6.77968">
        <ele>1449.0138765099</ele>
        <time>2019-07-06T05:33:07Z</time>
      </trkpt>
      <trkpt lat="45.53118" lon="6.77966">
        <ele>1448.7575873676</ele>
        <time>2019-07-06T05:33:08Z</time>
      </trkpt>
      <trkpt lat="45.53119" lon="6.77962">
        <ele>1449.1882516768</ele>
        <time>2019-07-06T05:33:10Z</time>
      </trkpt>
      <trkpt lat="45.5312" lon="6.77957">
        <ele>1449.7345850454</ele>
        <time>2019-07-06T05:33:12Z</time>
      </trkpt>
      <trkpt lat="45.5312" lon="6.77955">
        <ele>1450.247528157</ele>
        <time>2019-07-06T05:33:13Z</time>
      </trkpt>
      <trkpt lat="45.53122" lon="6.77948">
        <ele>1450.4484208981</ele>
        <time>2019-07-06T05:33:15Z</time>
      </trkpt>
      <trkpt lat="45.53123" lon="6.77944">
        <ele>1450.9734987497</ele>
        <time>2019-07-06T05:33:16Z</time>
      </trkpt>
      <trkpt lat="45.53125" lon="6.77941">
        <ele>1451.6331961162</ele>
        <time>2019-07-06T05:33:17Z</time>
      </trkpt>
      <trkpt lat="45.53126" lon="6.77937">
        <ele>1452.2392885902</ele>
        <time>2019-07-06T05:33:18Z</time>
      </trkpt>
      <trkpt lat="45.53127" lon="6.77933">
        <ele>1453.8295095746</ele>
        <time>2019-07-06T05:33:20Z</time>
      </trkpt>
      <trkpt lat="45.53127" lon="6.77928">
        <ele>1455.5859846904</ele>
        <time>2019-07-06T05:33:22Z</time>
      </trkpt>
      <trkpt lat="45.53128" lon="6.77925">
        <ele>1456.3762688759</ele>
        <time>2019-07-06T05:33:23Z</time>
      </trkpt>
      <trkpt lat="45.53128" lon="6.77922">
        <ele>1458.2401206917</ele>
        <time>2019-07-06T05:33:25Z</time>
      </trkpt>
      <trkpt lat="45.53128" lon="6.77918">
        <ele>1460.1206717148</ele>
        <time>2019-07-06T05:33:27Z</time>
      </trkpt>
      <trkpt lat="45.53129" lon="6.77914">
        <ele>1460.7173126759</ele>
        <time>2019-07-06T05:33:29Z</time>
      </trkpt>
      <trkpt lat="45.53131" lon="6.7791">
        <ele>1461.305705869</ele>
        <time>2019-07-06T05:33:31Z</time>
      </trkpt>
      <trkpt lat="45.53132" lon="6.77906">
        <ele>1461.457227052</ele>
        <time>2019-07-06T05:33:33Z</time>
      </trkpt>
      <trkpt lat="45.53133" lon="6.77903">
        <ele>1462.267681964</ele>
        <time>2019-07-06T05:33:35Z</time>
      </trkpt>
      <trkpt lat="45.53133" lon="6.779">
        <ele>1462.8777806858</ele>
        <time>2019-07-06T05:33:36Z</time>
      </trkpt>
      <trkpt lat="45.53134" lon="6.77897">
        <ele>1463.7014459332</ele>
        <time>2019-07-06T05:33:38Z</time>
      </trkpt>
      <trkpt lat="45.53134" lon="6.77893">
        <ele>1463.9416386659</ele>
        <time>2019-07-06T05:33:40Z</time>
      </trkpt>
      <trkpt lat="45.53135" lon="6.7789">
        <ele>1464.7713044766</ele>
        <time>2019-07-06T05:33:42Z</time>
      </trkpt>
      <trkpt lat="45.53136" lon="6.77886">
        <ele>1465.9508809224</ele>
        <time>2019-07-06T05:33:44Z</time>
      </trkpt>
      <trkpt lat="45.53137" lon="6.77883">
        <ele>1466.2087282265</ele>
        <time>2019-07-06T05:33:45Z</time>
      </trkpt>
      <trkpt lat="45.53138" lon="6.77879">
        <ele>1466.6385015358</ele>
        <time>2019-07-06T05:33:47Z</time>
      </trkpt>
      <trkpt lat="45.53138" lon="6.77875">
        <ele>1466.9129545348</ele>
        <time>2019-07-06T05:33:49Z</time>
      </trkpt>
      <trkpt lat="45.53138" lon="6.77871">
        <ele>1467.0850734893</ele>
        <time>2019-07-06T05:33:51Z</time>
      </trkpt>
      <trkpt lat="45.53138" lon="6.77867">
        <ele>1466.9821596795</ele>
        <time>2019-07-06T05:33:53Z</time>
      </trkpt>
      <trkpt lat="45.53138" lon="6.77864">
        <ele>1466.7646832775</ele>
        <time>2019-07-06T05:33:54Z</time>
      </trkpt>
      <trkpt lat="45.53139" lon="6.77861">
        <ele>1466.2319658999</ele>
        <time>2019-07-06T05:33:56Z</time>
      </trkpt>
      <trkpt lat="45.53138" lon="6.77858">
        <ele>1466.123082198</ele>
        <time>2019-07-06T05:33:57Z</time>
      </trkpt>
      <trkpt lat="45.53138" lon="6.77854">
        <ele>1465.888860214</ele>
        <time>2019-07-06T05:33:59Z</time>
      </trkpt>
      <trkpt lat="45.53139" lon="6.7785">
        <ele>1465.7170292325</ele>
        <time>2019-07-06T05:34:01Z</time>
      </trkpt>
      <trkpt lat="45.53138" lon="6.77847">
        <ele>1465.8491434451</ele>
        <time>2019-07-06T05:34:03Z</time>
      </trkpt>
      <trkpt lat="45.53138" lon="6.77844">
        <ele>1466.1938518132</ele>
        <time>2019-07-06T05:34:05Z</time>
      </trkpt>
      <trkpt lat="45.53139" lon="6.7784">
        <ele>1466.3870030508</ele>
        <time>2019-07-06T05:34:07Z</time>
      </trkpt>
      <trkpt lat="45.53139" lon="6.77835">
        <ele>1466.6181456439</ele>
        <time>2019-07-06T05:34:09Z</time>
      </trkpt>
      <trkpt lat="45.5314" lon="6.77831">
        <ele>1466.5500195571</ele>
        <time>2019-07-06T05:34:11Z</time>
      </trkpt>
      <trkpt lat="45.53139" lon="6.77828">
        <ele>1466.391015431</ele>
        <time>2019-07-06T05:34:12Z</time>
      </trkpt>
      <trkpt lat="45.53139" lon="6.77825">
        <ele>1466.1251030412</ele>
        <time>2019-07-06T05:34:14Z</time>
      </trkpt>
      <trkpt lat="45.53138" lon="6.7782">
        <ele>1465.293264787</ele>
        <time>2019-07-06T05:34:17Z</time>
      </trkpt>
      <trkpt lat="45.53137" lon="6.77817">
        <ele>1465.130193891</ele>
        <time>2019-07-06T05:34:19Z</time>
      </trkpt>
      <trkpt lat="45.53138" lon="6.77814">
        <ele>1465.2827613918</ele>
        <time>2019-07-06T05:34:21Z</time>
      </trkpt>
      <trkpt lat="45.53138" lon="6.7781">
        <ele>1464.9397051365</ele>
        <time>2019-07-06T05:34:23Z</time>
      </trkpt>
      <trkpt lat="45.53138" lon="6.77805">
        <ele>1464.6348791643</ele>
        <time>2019-07-06T05:34:25Z</time>
      </trkpt>
      <trkpt lat="45.53138" lon="6.77802">
        <ele>1464.4947118662</ele>
        <time>2019-07-06T05:34:26Z</time>
      </trkpt>
      <trkpt lat="45.53138" lon="6.77797">
        <ele>1463.5930977675</ele>
        <time>2019-07-06T05:34:28Z</time>
      </trkpt>
      <trkpt lat="45.53137" lon="6.77793">
        <ele>1463.3217159487</ele>
        <time>2019-07-06T05:34:30Z</time>
      </trkpt>
      <trkpt lat="45.53137" lon="6.77788">
        <ele>1463.539626648</ele>
        <time>2019-07-06T05:34:32Z</time>
      </trkpt>
      <trkpt lat="45.53138" lon="6.77784">
        <ele>1463.3451404593</ele>
        <time>2019-07-06T05:34:34Z</time>
      </trkpt>
      <trkpt lat="45.53137" lon="6.7778">
        <ele>1462.8239050558</ele>
        <time>2019-07-06T05:34:36Z</time>
      </trkpt>
      <trkpt lat="45.53137" lon="6.77775">
        <ele>1462.4068895967</ele>
        <time>2019-07-06T05:34:38Z</time>
      </trkpt>
      <trkpt lat="45.53137" lon="6.77772">
        <ele>1463.0731406579</ele>
        <time>2019-07-06T05:34:40Z</time>
      </trkpt>
      <trkpt lat="45.53137" lon="6.77767">
        <ele>1463.8186267629</ele>
        <time>2019-07-06T05:34:42Z</time>
      </trkpt>
      <trkpt lat="45.53136" lon="6.77766">
        <ele>1463.9320515085</ele>
        <time>2019-07-06T05:34:43Z</time>
      </trkpt>
      <trkpt lat="45.53137" lon="6.77762">
        <ele>1463.8350068002</ele>
        <time>2019-07-06T05:34:45Z</time>
      </trkpt>
      <trkpt lat="45.53135" lon="6.77758">
        <ele>1463.8438580979</ele>
        <time>2019-07-06T05:34:47Z</time>
      </trkpt>
      <trkpt lat="45.53136" lon="6.77753">
        <ele>1464.1849938594</ele>
        <time>2019-07-06T05:34:49Z</time>
      </trkpt>
      <trkpt lat="45.53135" lon="6.7775">
        <ele>1464.45119452</ele>
        <time>2019-07-06T05:34:50Z</time>
      </trkpt>
      <trkpt lat="45.53135" lon="6.77747">
        <ele>1464.9246033806</ele>
        <time>2019-07-06T05:34:52Z</time>
      </trkpt>
      <trkpt lat="45.53135" lon="6.77743">
        <ele>1465.0359495048</ele>
        <time>2019-07-06T05:34:54Z</time>
      </trkpt>
      <trkpt lat="45.53135" lon="6.77739">
        <ele>1464.7618211739</ele>
        <time>2019-07-06T05:34:56Z</time>
      </trkpt>
      <trkpt lat="45.53134" lon="6.77737">
        <ele>1464.7329854211</ele>
        <time>2019-07-06T05:34:57Z</time>
      </trkpt>
      <trkpt lat="45.53134" lon="6.77732">
        <ele>1465.1378847607</ele>
        <time>2019-07-06T05:34:59Z</time>
      </trkpt>
      <trkpt lat="45.53134" lon="6.77728">
        <ele>1464.700653484</ele>
        <time>2019-07-06T05:35:01Z</time>
      </trkpt>
      <trkpt lat="45.53135" lon="6.77724">
        <ele>1463.9995524344</ele>
        <time>2019-07-06T05:35:03Z</time>
      </trkpt>
      <trkpt lat="45.53135" lon="6.77721">
        <ele>1463.9797801693</ele>
        <time>2019-07-06T05:35:04Z</time>
      </trkpt>
      <trkpt lat="45.53134" lon="6.77718">
        <ele>1464.0321644451</ele>
        <time>2019-07-06T05:35:06Z</time>
      </trkpt>
      <trkpt lat="45.53133" lon="6.77715">
        <ele>1464.7069008653</ele>
        <time>2019-07-06T05:35:08Z</time>
      </trkpt>
      <trkpt lat="45.53133" lon="6.77712">
        <ele>1465.0249372294</ele>
        <time>2019-07-06T05:35:10Z</time>
      </trkpt>
      <trkpt lat="45.53131" lon="6.77708">
        <ele>1464.9942021144</ele>
        <time>2019-07-06T05:35:12Z</time>
      </trkpt>
      <trkpt lat="45.53132" lon="6.77704">
        <ele>1465.2596922318</ele>
        <time>2019-07-06T05:35:14Z</time>
      </trkpt>
      <trkpt lat="45.53131" lon="6.77699">
        <ele>1465.9258307777</ele>
        <time>2019-07-06T05:35:16Z</time>
      </trkpt>
      <trkpt lat="45.53131" lon="6.77695">
        <ele>1466.4724787372</ele>
        <time>2019-07-06T05:35:18Z</time>
      </trkpt>
      <trkpt lat="45.53131" lon="6.77692">
        <ele>1466.8397327695</ele>
        <time>2019-07-06T05:35:19Z</time>
      </trkpt>
      <trkpt lat="45.53131" lon="6.77689">
        <ele>1467.2062380752</ele>
        <time>2019-07-06T05:35:20Z</time>
      </trkpt>
      <trkpt lat="45.5313" lon="6.77687">
        <ele>1467.4554191148</ele>
        <time>2019-07-06T05:35:21Z</time>
      </trkpt>
      <trkpt lat="45.53129" lon="6.77682">
        <ele>1467.6938617164</ele>
        <time>2019-07-06T05:35:23Z</time>
      </trkpt>
      <trkpt lat="45.53128" lon="6.77679">
        <ele>1467.9101224789</ele>
        <time>2019-07-06T05:35:24Z</time>
      </trkpt>
      <trkpt lat="45.53127" lon="6.77676">
        <ele>1468.1584440031</ele>
        <time>2019-07-06T05:35:26Z</time>
      </trkpt>
      <trkpt lat="45.53126" lon="6.77673">
        <ele>1468.1052635047</ele>
        <time>2019-07-06T05:35:27Z</time>
      </trkpt>
      <trkpt lat="45.53126" lon="6.7767">
        <ele>1467.6974500966</ele>
        <time>2019-07-06T05:35:29Z</time>
      </trkpt>
      <trkpt lat="45.53125" lon="6.77667">
        <ele>1467.2124459311</ele>
        <time>2019-07-06T05:35:31Z</time>
      </trkpt>
      <trkpt lat="45.53124" lon="6.77664">
        <ele>1466.7036191529</ele>
        <time>2019-07-06T05:35:33Z</time>
      </trkpt>
      <trkpt lat="45.53124" lon="6.77661">
        <ele>1465.4315525259</ele>
        <time>2019-07-06T05:35:35Z</time>
      </trkpt>
      <trkpt lat="45.53124" lon="6.77658">
        <ele>1464.0391709168</ele>
        <time>2019-07-06T05:35:37Z</time>
      </trkpt>
      <trkpt lat="45.53124" lon="6.77654">
        <ele>1463.0831205177</ele>
        <time>2019-07-06T05:35:39Z</time>
      </trkpt>
      <trkpt lat="45.53123" lon="6.77649">
        <ele>1462.4798832057</ele>
        <time>2019-07-06T05:35:41Z</time>
      </trkpt>
      <trkpt lat="45.53122" lon="6.77645">
        <ele>1462.1286714501</ele>
        <time>2019-07-06T05:35:43Z</time>
      </trkpt>
      <trkpt lat="45.53122" lon="6.77641">
        <ele>1462.2499074</ele>
        <time>2019-07-06T05:35:45Z</time>
      </trkpt>
      <trkpt lat="45.53121" lon="6.77637">
        <ele>1462.659827676</ele>
        <time>2019-07-06T05:35:47Z</time>
      </trkpt>
      <trkpt lat="45.5312" lon="6.77635">
        <ele>1462.8175499034</ele>
        <time>2019-07-06T05:35:48Z</time>
      </trkpt>
      <trkpt lat="45.53122" lon="6.77631">
        <ele>1463.3550706274</ele>
        <time>2019-07-06T05:35:50Z</time>
      </trkpt>
      <trkpt lat="45.53123" lon="6.77628">
        <ele>1463.3973786826</ele>
        <time>2019-07-06T05:35:51Z</time>
      </trkpt>
      <trkpt lat="45.53122" lon="6.77624">
        <ele>1463.8013481285</ele>
        <time>2019-07-06T05:35:53Z</time>
      </trkpt>
      <trkpt lat="45.53121" lon="6.77621">
        <ele>1464.6609231453</ele>
        <time>2019-07-06T05:35:55Z</time>
      </trkpt>
      <trkpt lat="45.5312" lon="6.77617">
        <ele>1464.946567301</ele>
        <time>2019-07-06T05:35:57Z</time>
      </trkpt>
      <trkpt lat="45.53119" lon="6.77613">
        <ele>1464.7732777991</ele>
        <time>2019-07-06T05:35:59Z</time>
      </trkpt>
      <trkpt lat="45.53119" lon="6.77609">
        <ele>1464.1792594497</ele>
        <time>2019-07-06T05:36:01Z</time>
      </trkpt>
      <trkpt lat="45.5312" lon="6.77606">
        <ele>1463.7269304421</ele>
        <time>2019-07-06T05:36:03Z</time>
      </trkpt>
      <trkpt lat="45.5312" lon="6.77602">
        <ele>1463.3979695366</ele>
        <time>2019-07-06T05:36:05Z</time>
      </trkpt>
      <trkpt lat="45.5312" lon="6.77598">
        <ele>1463.0731724484</ele>
        <time>2019-07-06T05:36:07Z</time>
      </trkpt>
      <trkpt lat="45.53121" lon="6.77595">
        <ele>1463.0473692425</ele>
        <time>2019-07-06T05:36:08Z</time>
      </trkpt>
      <trkpt lat="45.53121" lon="6.77591">
        <ele>1462.7337563314</ele>
        <time>2019-07-06T05:36:10Z</time>
      </trkpt>
      <trkpt lat="45.53121" lon="6.77587">
        <ele>1462.7180717026</ele>
        <time>2019-07-06T05:36:12Z</time>
      </trkpt>
      <trkpt lat="45.53121" lon="6.77583">
        <ele>1462.7785182851</ele>
        <time>2019-07-06T05:36:14Z</time>
      </trkpt>
      <trkpt lat="45.53122" lon="6.77579">
        <ele>1462.754551309</ele>
        <time>2019-07-06T05:36:16Z</time>
      </trkpt>
      <trkpt lat="45.53123" lon="6.77575">
        <ele>1462.8315544536</ele>
        <time>2019-07-06T05:36:18Z</time>
      </trkpt>
      <trkpt lat="45.53124" lon="6.77571">
        <ele>1463.2554809837</ele>
        <time>2019-07-06T05:36:20Z</time>
      </trkpt>
      <trkpt lat="45.53125" lon="6.77568">
        <ele>1463.5714880019</ele>
        <time>2019-07-06T05:36:21Z</time>
      </trkpt>
      <trkpt lat="45.53126" lon="6.77566">
        <ele>1463.8158745275</ele>
        <time>2019-07-06T05:36:22Z</time>
      </trkpt>
      <trkpt lat="45.53127" lon="6.77564">
        <ele>1464.0572510372</ele>
        <time>2019-07-06T05:36:23Z</time>
      </trkpt>
      <trkpt lat="45.53128" lon="6.7756">
        <ele>1464.4373621902</ele>
        <time>2019-07-06T05:36:25Z</time>
      </trkpt>
      <trkpt lat="45.5313" lon="6.77556">
        <ele>1464.859115676</ele>
        <time>2019-07-06T05:36:27Z</time>
      </trkpt>
      <trkpt lat="45.53131" lon="6.77552">
        <ele>1465.0733226068</ele>
        <time>2019-07-06T05:36:29Z</time>
      </trkpt>
      <trkpt lat="45.53134" lon="6.77548">
        <ele>1465.5032990342</ele>
        <time>2019-07-06T05:36:31Z</time>
      </trkpt>
      <trkpt lat="45.53135" lon="6.77547">
        <ele>1465.6063295655</ele>
        <time>2019-07-06T05:36:32Z</time>
      </trkpt>
      <trkpt lat="45.53137" lon="6.77544">
        <ele>1465.713884662</ele>
        <time>2019-07-06T05:36:33Z</time>
      </trkpt>
      <trkpt lat="45.53138" lon="6.77542">
        <ele>1465.9740189907</ele>
        <time>2019-07-06T05:36:35Z</time>
      </trkpt>
      <trkpt lat="45.5314" lon="6.77539">
        <ele>1467.0144010326</ele>
        <time>2019-07-06T05:36:37Z</time>
      </trkpt>
      <trkpt lat="45.53143" lon="6.77537">
        <ele>1468.0301431263</ele>
        <time>2019-07-06T05:36:39Z</time>
      </trkpt>
      <trkpt lat="45.53145" lon="6.77533">
        <ele>1468.9398420256</ele>
        <time>2019-07-06T05:36:42Z</time>
      </trkpt>
      <trkpt lat="45.53147" lon="6.77532">
        <ele>1469.1234952554</ele>
        <time>2019-07-06T05:36:44Z</time>
      </trkpt>
      <trkpt lat="45.53149" lon="6.7753">
        <ele>1468.7243837185</ele>
        <time>2019-07-06T05:36:45Z</time>
      </trkpt>
      <trkpt lat="45.5315" lon="6.77529">
        <ele>1468.2708572283</ele>
        <time>2019-07-06T05:36:46Z</time>
      </trkpt>
      <trkpt lat="45.53152" lon="6.77527">
        <ele>1467.4670432144</ele>
        <time>2019-07-06T05:36:48Z</time>
      </trkpt>
      <trkpt lat="45.53155" lon="6.77525">
        <ele>1467.0540352842</ele>
        <time>2019-07-06T05:36:50Z</time>
      </trkpt>
      <trkpt lat="45.53158" lon="6.77524">
        <ele>1466.6558199105</ele>
        <time>2019-07-06T05:36:52Z</time>
      </trkpt>
      <trkpt lat="45.5316" lon="6.77522">
        <ele>1466.4219921008</ele>
        <time>2019-07-06T05:36:54Z</time>
      </trkpt>
      <trkpt lat="45.53163" lon="6.77519">
        <ele>1466.4501683243</ele>
        <time>2019-07-06T05:36:56Z</time>
      </trkpt>
      <trkpt lat="45.53166" lon="6.77517">
        <ele>1467.1347739424</ele>
        <time>2019-07-06T05:36:58Z</time>
      </trkpt>
      <trkpt lat="45.53168" lon="6.77514">
        <ele>1467.3638630561</ele>
        <time>2019-07-06T05:37:00Z</time>
      </trkpt>
      <trkpt lat="45.5317" lon="6.77513">
        <ele>1467.625222101</ele>
        <time>2019-07-06T05:37:02Z</time>
      </trkpt>
      <trkpt lat="45.53173" lon="6.77511">
        <ele>1467.6800368604</ele>
        <time>2019-07-06T05:37:04Z</time>
      </trkpt>
      <trkpt lat="45.53176" lon="6.77509">
        <ele>1467.7391212478</ele>
        <time>2019-07-06T05:37:06Z</time>
      </trkpt>
      <trkpt lat="45.53178" lon="6.77507">
        <ele>1467.0989637041</ele>
        <time>2019-07-06T05:37:08Z</time>
      </trkpt>
      <trkpt lat="45.5318" lon="6.77505">
        <ele>1466.6200660022</ele>
        <time>2019-07-06T05:37:09Z</time>
      </trkpt>
      <trkpt lat="45.53182" lon="6.77502">
        <ele>1466.5558143066</ele>
        <time>2019-07-06T05:37:11Z</time>
      </trkpt>
      <trkpt lat="45.53185" lon="6.775">
        <ele>1467.0438971417</ele>
        <time>2019-07-06T05:37:13Z</time>
      </trkpt>
      <trkpt lat="45.53187" lon="6.77499">
        <ele>1467.857989924</ele>
        <time>2019-07-06T05:37:15Z</time>
      </trkpt>
      <trkpt lat="45.53189" lon="6.77497">
        <ele>1468.0264655093</ele>
        <time>2019-07-06T05:37:16Z</time>
      </trkpt>
      <trkpt lat="45.53192" lon="6.77494">
        <ele>1468.7793778937</ele>
        <time>2019-07-06T05:37:18Z</time>
      </trkpt>
      <trkpt lat="45.53194" lon="6.77492">
        <ele>1469.7358679323</ele>
        <time>2019-07-06T05:37:20Z</time>
      </trkpt>
      <trkpt lat="45.53196" lon="6.7749">
        <ele>1470.3435642733</ele>
        <time>2019-07-06T05:37:21Z</time>
      </trkpt>
      <trkpt lat="45.53198" lon="6.77489">
        <ele>1471.1248068316</ele>
        <time>2019-07-06T05:37:22Z</time>
      </trkpt>
      <trkpt lat="45.53201" lon="6.77487">
        <ele>1472.1552591474</ele>
        <time>2019-07-06T05:37:24Z</time>
      </trkpt>
      <trkpt lat="45.53203" lon="6.77486">
        <ele>1473.0044293735</ele>
        <time>2019-07-06T05:37:26Z</time>
      </trkpt>
      <trkpt lat="45.53204" lon="6.77483">
        <ele>1472.795358916</ele>
        <time>2019-07-06T05:37:28Z</time>
      </trkpt>
      <trkpt lat="45.53207" lon="6.7748">
        <ele>1472.6037369299</ele>
        <time>2019-07-06T05:37:30Z</time>
      </trkpt>
      <trkpt lat="45.53207" lon="6.77477">
        <ele>1472.6834685975</ele>
        <time>2019-07-06T05:37:32Z</time>
      </trkpt>
      <trkpt lat="45.53209" lon="6.77477">
        <ele>1472.4641100842</ele>
        <time>2019-07-06T05:37:34Z</time>
      </trkpt>
      <trkpt lat="45.53213" lon="6.77474">
        <ele>1472.2547646708</ele>
        <time>2019-07-06T05:37:36Z</time>
      </trkpt>
      <trkpt lat="45.53215" lon="6.77472">
        <ele>1472.1863920828</ele>
        <time>2019-07-06T05:37:37Z</time>
      </trkpt>
      <trkpt lat="45.53217" lon="6.7747">
        <ele>1472.4657745313</ele>
        <time>2019-07-06T05:37:39Z</time>
      </trkpt>
      <trkpt lat="45.53219" lon="6.77469">
        <ele>1472.4935500048</ele>
        <time>2019-07-06T05:37:40Z</time>
      </trkpt>
      <trkpt lat="45.53221" lon="6.77466">
        <ele>1472.6751206017</ele>
        <time>2019-07-06T05:37:42Z</time>
      </trkpt>
      <trkpt lat="45.53222" lon="6.77464">
        <ele>1472.6026006147</ele>
        <time>2019-07-06T05:37:43Z</time>
      </trkpt>
      <trkpt lat="45.53224" lon="6.77463">
        <ele>1472.4790644772</ele>
        <time>2019-07-06T05:37:44Z</time>
      </trkpt>
      <trkpt lat="45.53227" lon="6.77461">
        <ele>1472.1861385257</ele>
        <time>2019-07-06T05:37:46Z</time>
      </trkpt>
      <trkpt lat="45.53229" lon="6.77458">
        <ele>1472.2367490609</ele>
        <time>2019-07-06T05:37:48Z</time>
      </trkpt>
      <trkpt lat="45.53231" lon="6.77456">
        <ele>1471.8786532706</ele>
        <time>2019-07-06T05:37:50Z</time>
      </trkpt>
      <trkpt lat="45.53234" lon="6.77454">
        <ele>1471.6886511698</ele>
        <time>2019-07-06T05:37:52Z</time>
      </trkpt>
      <trkpt lat="45.53236" lon="6.77452">
        <ele>1471.7447792994</ele>
        <time>2019-07-06T05:37:54Z</time>
      </trkpt>
      <trkpt lat="45.53238" lon="6.77449">
        <ele>1472.1188110319</ele>
        <time>2019-07-06T05:37:56Z</time>
      </trkpt>
      <trkpt lat="45.5324" lon="6.77445">
        <ele>1472.5076065846</ele>
        <time>2019-07-06T05:37:58Z</time>
      </trkpt>
      <trkpt lat="45.53242" lon="6.77442">
        <ele>1472.7888780239</ele>
        <time>2019-07-06T05:38:00Z</time>
      </trkpt>
      <trkpt lat="45.53244" lon="6.77439">
        <ele>1473.1055226806</ele>
        <time>2019-07-06T05:38:02Z</time>
      </trkpt>
      <trkpt lat="45.53246" lon="6.77437">
        <ele>1472.8257444638</ele>
        <time>2019-07-06T05:38:04Z</time>
      </trkpt>
      <trkpt lat="45.53249" lon="6.77434">
        <ele>1472.8864928521</ele>
        <time>2019-07-06T05:38:06Z</time>
      </trkpt>
      <trkpt lat="45.53251" lon="6.77432">
        <ele>1472.3172843774</ele>
        <time>2019-07-06T05:38:08Z</time>
      </trkpt>
      <trkpt lat="45.53253" lon="6.7743">
        <ele>1471.8779278216</ele>
        <time>2019-07-06T05:38:10Z</time>
      </trkpt>
      <trkpt lat="45.53255" lon="6.77427">
        <ele>1471.1875853102</ele>
        <time>2019-07-06T05:38:12Z</time>
      </trkpt>
      <trkpt lat="45.53257" lon="6.77424">
        <ele>1470.3580084824</ele>
        <time>2019-07-06T05:38:14Z</time>
      </trkpt>
      <trkpt lat="45.53258" lon="6.77422">
        <ele>1469.8292219635</ele>
        <time>2019-07-06T05:38:16Z</time>
      </trkpt>
      <trkpt lat="45.5326" lon="6.7742">
        <ele>1469.3637492022</ele>
        <time>2019-07-06T05:38:19Z</time>
      </trkpt>
      <trkpt lat="45.53263" lon="6.77418">
        <ele>1469.3033819635</ele>
        <time>2019-07-06T05:38:22Z</time>
      </trkpt>
      <trkpt lat="45.53264" lon="6.77416">
        <ele>1469.0002923947</ele>
        <time>2019-07-06T05:38:24Z</time>
      </trkpt>
      <trkpt lat="45.53266" lon="6.77412">
        <ele>1468.9496365956</ele>
        <time>2019-07-06T05:38:26Z</time>
      </trkpt>
      <trkpt lat="45.53268" lon="6.77408">
        <ele>1468.3887632593</ele>
        <time>2019-07-06T05:38:28Z</time>
      </trkpt>
      <trkpt lat="45.5327" lon="6.77405">
        <ele>1468.5942672818</ele>
        <time>2019-07-06T05:38:30Z</time>
      </trkpt>
      <trkpt lat="45.53272" lon="6.77404">
        <ele>1468.8936970314</ele>
        <time>2019-07-06T05:38:31Z</time>
      </trkpt>
      <trkpt lat="45.53275" lon="6.77401">
        <ele>1468.8284425853</ele>
        <time>2019-07-06T05:38:33Z</time>
      </trkpt>
      <trkpt lat="45.53277" lon="6.774">
        <ele>1468.8250415621</ele>
        <time>2019-07-06T05:38:35Z</time>
      </trkpt>
      <trkpt lat="45.53278" lon="6.77398">
        <ele>1469.0760592845</ele>
        <time>2019-07-06T05:38:36Z</time>
      </trkpt>
      <trkpt lat="45.53281" lon="6.77396">
        <ele>1469.4943675898</ele>
        <time>2019-07-06T05:38:38Z</time>
      </trkpt>
      <trkpt lat="45.53283" lon="6.77393">
        <ele>1469.3426788106</ele>
        <time>2019-07-06T05:38:40Z</time>
      </trkpt>
      <trkpt lat="45.53285" lon="6.77391">
        <ele>1469.5572132971</ele>
        <time>2019-07-06T05:38:42Z</time>
      </trkpt>
      <trkpt lat="45.53286" lon="6.7739">
        <ele>1469.4997585454</ele>
        <time>2019-07-06T05:38:44Z</time>
      </trkpt>
      <trkpt lat="45.53289" lon="6.77389">
        <ele>1469.4796660791</ele>
        <time>2019-07-06T05:38:46Z</time>
      </trkpt>
      <trkpt lat="45.53291" lon="6.77387">
        <ele>1469.4319541489</ele>
        <time>2019-07-06T05:38:48Z</time>
      </trkpt>
      <trkpt lat="45.53295" lon="6.77386">
        <ele>1469.7329109541</ele>
        <time>2019-07-06T05:38:50Z</time>
      </trkpt>
      <trkpt lat="45.53298" lon="6.77384">
        <ele>1469.9796434647</ele>
        <time>2019-07-06T05:38:53Z</time>
      </trkpt>
      <trkpt lat="45.533" lon="6.77381">
        <ele>1470.3238260867</ele>
        <time>2019-07-06T05:38:55Z</time>
      </trkpt>
      <trkpt lat="45.53301" lon="6.77378">
        <ele>1471.0218186597</ele>
        <time>2019-07-06T05:38:57Z</time>
      </trkpt>
      <trkpt lat="45.53302" lon="6.77379">
        <ele>1471.5555852785</ele>
        <time>2019-07-06T05:39:01Z</time>
      </trkpt>
      <trkpt lat="45.53303" lon="6.77376">
        <ele>1471.812519264</ele>
        <time>2019-07-06T05:39:05Z</time>
      </trkpt>
      <trkpt lat="45.53303" lon="6.77373">
        <ele>1471.840783345</ele>
        <time>2019-07-06T05:39:06Z</time>
      </trkpt>
      <trkpt lat="45.53302" lon="6.7737">
        <ele>1471.9393610012</ele>
        <time>2019-07-06T05:39:07Z</time>
      </trkpt>
      <trkpt lat="45.53301" lon="6.77372">
        <ele>1469.0324903933</ele>
        <time>2019-07-06T05:39:16Z</time>
      </trkpt>
      <trkpt lat="45.53302" lon="6.77375">
        <ele>1466.4298661051</ele>
        <time>2019-07-06T05:39:25Z</time>
      </trkpt>
      <trkpt lat="45.53303" lon="6.77372">
        <ele>1466.5927607925</ele>
        <time>2019-07-06T05:39:27Z</time>
      </trkpt>
      <trkpt lat="45.53306" lon="6.77369">
        <ele>1466.7120252873</ele>
        <time>2019-07-06T05:39:29Z</time>
      </trkpt>
      <trkpt lat="45.53308" lon="6.77368">
        <ele>1466.50096453</ele>
        <time>2019-07-06T05:39:31Z</time>
      </trkpt>
      <trkpt lat="45.5331" lon="6.77366">
        <ele>1466.3202305431</ele>
        <time>2019-07-06T05:39:32Z</time>
      </trkpt>
      <trkpt lat="45.53311" lon="6.77364">
        <ele>1465.8620608966</ele>
        <time>2019-07-06T05:39:34Z</time>
      </trkpt>
      <trkpt lat="45.53312" lon="6.77361">
        <ele>1465.5363979731</ele>
        <time>2019-07-06T05:39:36Z</time>
      </trkpt>
      <trkpt lat="45.53313" lon="6.77358">
        <ele>1465.5400853154</ele>
        <time>2019-07-06T05:39:37Z</time>
      </trkpt>
      <trkpt lat="45.53315" lon="6.77355">
        <ele>1465.5803105137</ele>
        <time>2019-07-06T05:39:39Z</time>
      </trkpt>
      <trkpt lat="45.53315" lon="6.77351">
        <ele>1465.7067170767</ele>
        <time>2019-07-06T05:39:41Z</time>
      </trkpt>
      <trkpt lat="45.53317" lon="6.77347">
        <ele>1464.6835580062</ele>
        <time>2019-07-06T05:39:43Z</time>
      </trkpt>
      <trkpt lat="45.53319" lon="6.77345">
        <ele>1463.4173098798</ele>
        <time>2019-07-06T05:39:45Z</time>
      </trkpt>
      <trkpt lat="45.53322" lon="6.77343">
        <ele>1462.9746067373</ele>
        <time>2019-07-06T05:39:47Z</time>
      </trkpt>
      <trkpt lat="45.53324" lon="6.77342">
        <ele>1462.739620599</ele>
        <time>2019-07-06T05:39:48Z</time>
      </trkpt>
      <trkpt lat="45.53326" lon="6.77338">
        <ele>1461.9146182187</ele>
        <time>2019-07-06T05:39:50Z</time>
      </trkpt>
      <trkpt lat="45.53328" lon="6.77334">
        <ele>1461.0149342478</ele>
        <time>2019-07-06T05:39:52Z</time>
      </trkpt>
      <trkpt lat="45.5333" lon="6.77331">
        <ele>1460.4945901089</ele>
        <time>2019-07-06T05:39:54Z</time>
      </trkpt>
      <trkpt lat="45.53331" lon="6.77327">
        <ele>1460.4140821446</ele>
        <time>2019-07-06T05:39:56Z</time>
      </trkpt>
      <trkpt lat="45.53332" lon="6.77323">
        <ele>1460.0006138217</ele>
        <time>2019-07-06T05:39:58Z</time>
      </trkpt>
      <trkpt lat="45.53332" lon="6.77322">
        <ele>1459.8386548542</ele>
        <time>2019-07-06T05:39:59Z</time>
      </trkpt>
      <trkpt lat="45.53335" lon="6.77318">
        <ele>1459.7522791825</ele>
        <time>2019-07-06T05:40:01Z</time>
      </trkpt>
      <trkpt lat="45.53336" lon="6.77314">
        <ele>1459.6924236877</ele>
        <time>2019-07-06T05:40:03Z</time>
      </trkpt>
      <trkpt lat="45.53338" lon="6.77311">
        <ele>1459.6602456244</ele>
        <time>2019-07-06T05:40:05Z</time>
      </trkpt>
      <trkpt lat="45.53339" lon="6.77308">
        <ele>1459.699342807</ele>
        <time>2019-07-06T05:40:07Z</time>
      </trkpt>
      <trkpt lat="45.5334" lon="6.77305">
        <ele>1459.0921429003</ele>
        <time>2019-07-06T05:40:09Z</time>
      </trkpt>
      <trkpt lat="45.53341" lon="6.77302">
        <ele>1457.9541571122</ele>
        <time>2019-07-06T05:40:11Z</time>
      </trkpt>
      <trkpt lat="45.53342" lon="6.77299">
        <ele>1457.2221528113</ele>
        <time>2019-07-06T05:40:13Z</time>
      </trkpt>
      <trkpt lat="45.53344" lon="6.77295">
        <ele>1456.4480078505</ele>
        <time>2019-07-06T05:40:15Z</time>
      </trkpt>
      <trkpt lat="45.53345" lon="6.77292">
        <ele>1456.0717776784</ele>
        <time>2019-07-06T05:40:17Z</time>
      </trkpt>
      <trkpt lat="45.53346" lon="6.77288">
        <ele>1456.2344121331</ele>
        <time>2019-07-06T05:40:19Z</time>
      </trkpt>
      <trkpt lat="45.53349" lon="6.77286">
        <ele>1456.391300166</ele>
        <time>2019-07-06T05:40:21Z</time>
      </trkpt>
      <trkpt lat="45.53349" lon="6.77282">
        <ele>1456.3516074543</ele>
        <time>2019-07-06T05:40:23Z</time>
      </trkpt>
      <trkpt lat="45.5335" lon="6.77279">
        <ele>1456.4855228817</ele>
        <time>2019-07-06T05:40:25Z</time>
      </trkpt>
      <trkpt lat="45.53352" lon="6.77275">
        <ele>1456.2206800089</ele>
        <time>2019-07-06T05:40:27Z</time>
      </trkpt>
      <trkpt lat="45.53354" lon="6.77272">
        <ele>1455.7648429257</ele>
        <time>2019-07-06T05:40:29Z</time>
      </trkpt>
      <trkpt lat="45.53354" lon="6.77268">
        <ele>1455.7772250721</ele>
        <time>2019-07-06T05:40:31Z</time>
      </trkpt>
      <trkpt lat="45.53356" lon="6.77265">
        <ele>1456.2510529624</ele>
        <time>2019-07-06T05:40:33Z</time>
      </trkpt>
      <trkpt lat="45.53358" lon="6.77261">
        <ele>1456.4012085109</ele>
        <time>2019-07-06T05:40:35Z</time>
      </trkpt>
      <trkpt lat="45.5336" lon="6.77258">
        <ele>1455.9996177946</ele>
        <time>2019-07-06T05:40:37Z</time>
      </trkpt>
      <trkpt lat="45.53361" lon="6.77256">
        <ele>1455.0683001037</ele>
        <time>2019-07-06T05:40:39Z</time>
      </trkpt>
      <trkpt lat="45.53363" lon="6.77252">
        <ele>1453.6976027051</ele>
        <time>2019-07-06T05:40:41Z</time>
      </trkpt>
      <trkpt lat="45.53366" lon="6.77251">
        <ele>1452.502409914</ele>
        <time>2019-07-06T05:40:43Z</time>
      </trkpt>
      <trkpt lat="45.53367" lon="6.77248">
        <ele>1451.9353669001</ele>
        <time>2019-07-06T05:40:44Z</time>
      </trkpt>
      <trkpt lat="45.53368" lon="6.77246">
        <ele>1451.3304911738</ele>
        <time>2019-07-06T05:40:45Z</time>
      </trkpt>
      <trkpt lat="45.53369" lon="6.77243">
        <ele>1450.8909159077</ele>
        <time>2019-07-06T05:40:46Z</time>
      </trkpt>
      <trkpt lat="45.53371" lon="6.77242">
        <ele>1450.3807288375</ele>
        <time>2019-07-06T05:40:48Z</time>
      </trkpt>
      <trkpt lat="45.53372" lon="6.77239">
        <ele>1449.8671454185</ele>
        <time>2019-07-06T05:40:50Z</time>
      </trkpt>
      <trkpt lat="45.53374" lon="6.77237">
        <ele>1450.0376003035</ele>
        <time>2019-07-06T05:40:51Z</time>
      </trkpt>
      <trkpt lat="45.53376" lon="6.77234">
        <ele>1450.0116214056</ele>
        <time>2019-07-06T05:40:53Z</time>
      </trkpt>
      <trkpt lat="45.53377" lon="6.77233">
        <ele>1449.8105658033</ele>
        <time>2019-07-06T05:40:54Z</time>
      </trkpt>
      <trkpt lat="45.53379" lon="6.77229">
        <ele>1449.6294305874</ele>
        <time>2019-07-06T05:40:56Z</time>
      </trkpt>
      <trkpt lat="45.5338" lon="6.77224">
        <ele>1449.4459978564</ele>
        <time>2019-07-06T05:40:58Z</time>
      </trkpt>
      <trkpt lat="45.53381" lon="6.77221">
        <ele>1449.3553610613</ele>
        <time>2019-07-06T05:40:59Z</time>
      </trkpt>
      <trkpt lat="45.53384" lon="6.77218">
        <ele>1449.2280372941</ele>
        <time>2019-07-06T05:41:01Z</time>
      </trkpt>
      <trkpt lat="45.53385" lon="6.77215">
        <ele>1449.0298865786</ele>
        <time>2019-07-06T05:41:03Z</time>
      </trkpt>
      <trkpt lat="45.53386" lon="6.7721">
        <ele>1448.8169436018</ele>
        <time>2019-07-06T05:41:05Z</time>
      </trkpt>
      <trkpt lat="45.53387" lon="6.77206">
        <ele>1448.029473585</ele>
        <time>2019-07-06T05:41:07Z</time>
      </trkpt>
      <trkpt lat="45.53388" lon="6.77203">
        <ele>1447.6728220513</ele>
        <time>2019-07-06T05:41:09Z</time>
      </trkpt>
      <trkpt lat="45.5339" lon="6.77201">
        <ele>1447.1551148698</ele>
        <time>2019-07-06T05:41:11Z</time>
      </trkpt>
      <trkpt lat="45.53392" lon="6.77199">
        <ele>1446.8038000607</ele>
        <time>2019-07-06T05:41:12Z</time>
      </trkpt>
      <trkpt lat="45.53394" lon="6.77197">
        <ele>1447.2574784061</ele>
        <time>2019-07-06T05:41:14Z</time>
      </trkpt>
      <trkpt lat="45.53397" lon="6.77195">
        <ele>1447.5644881521</ele>
        <time>2019-07-06T05:41:16Z</time>
      </trkpt>
      <trkpt lat="45.53399" lon="6.77191">
        <ele>1447.8944619749</ele>
        <time>2019-07-06T05:41:18Z</time>
      </trkpt>
      <trkpt lat="45.53401" lon="6.77187">
        <ele>1447.958311026</ele>
        <time>2019-07-06T05:41:20Z</time>
      </trkpt>
      <trkpt lat="45.53403" lon="6.77185">
        <ele>1447.8835419386</ele>
        <time>2019-07-06T05:41:22Z</time>
      </trkpt>
      <trkpt lat="45.53403" lon="6.77182">
        <ele>1447.8166214418</ele>
        <time>2019-07-06T05:41:24Z</time>
      </trkpt>
      <trkpt lat="45.53405" lon="6.7718">
        <ele>1447.9423491997</ele>
        <time>2019-07-06T05:41:26Z</time>
      </trkpt>
      <trkpt lat="45.53406" lon="6.77177">
        <ele>1447.96855677</ele>
        <time>2019-07-06T05:41:28Z</time>
      </trkpt>
      <trkpt lat="45.53407" lon="6.77173">
        <ele>1448.6418447359</ele>
        <time>2019-07-06T05:41:30Z</time>
      </trkpt>
      <trkpt lat="45.5341" lon="6.77172">
        <ele>1449.1896037597</ele>
        <time>2019-07-06T05:41:32Z</time>
      </trkpt>
      <trkpt lat="45.53411" lon="6.7717">
        <ele>1448.491934988</ele>
        <time>2019-07-06T05:41:34Z</time>
      </trkpt>
      <trkpt lat="45.53413" lon="6.77168">
        <ele>1447.5858358183</ele>
        <time>2019-07-06T05:41:36Z</time>
      </trkpt>
      <trkpt lat="45.53416" lon="6.77167">
        <ele>1447.0466279622</ele>
        <time>2019-07-06T05:41:38Z</time>
      </trkpt>
      <trkpt lat="45.53418" lon="6.77165">
        <ele>1446.8744141607</ele>
        <time>2019-07-06T05:41:40Z</time>
      </trkpt>
      <trkpt lat="45.5342" lon="6.77163">
        <ele>1447.4246994842</ele>
        <time>2019-07-06T05:41:42Z</time>
      </trkpt>
      <trkpt lat="45.53423" lon="6.77161">
        <ele>1447.4432874404</ele>
        <time>2019-07-06T05:41:43Z</time>
      </trkpt>
      <trkpt lat="45.53425" lon="6.77158">
        <ele>1447.2030743342</ele>
        <time>2019-07-06T05:41:45Z</time>
      </trkpt>
      <trkpt lat="45.53427" lon="6.77157">
        <ele>1447.8601177871</ele>
        <time>2019-07-06T05:41:47Z</time>
      </trkpt>
      <trkpt lat="45.53429" lon="6.77155">
        <ele>1448.3610988721</ele>
        <time>2019-07-06T05:41:49Z</time>
      </trkpt>
      <trkpt lat="45.53432" lon="6.77156">
        <ele>1448.1220342301</ele>
        <time>2019-07-06T05:41:51Z</time>
      </trkpt>
      <trkpt lat="45.53434" lon="6.77157">
        <ele>1448.0723852727</ele>
        <time>2019-07-06T05:41:52Z</time>
      </trkpt>
      <trkpt lat="45.53437" lon="6.77158">
        <ele>1448.1953656789</ele>
        <time>2019-07-06T05:41:54Z</time>
      </trkpt>
      <trkpt lat="45.53439" lon="6.77157">
        <ele>1448.5340475214</ele>
        <time>2019-07-06T05:41:56Z</time>
      </trkpt>
      <trkpt lat="45.53442" lon="6.77157">
        <ele>1448.860073171</ele>
        <time>2019-07-06T05:41:58Z</time>
      </trkpt>
      <trkpt lat="45.53444" lon="6.77156">
        <ele>1448.6992815382</ele>
        <time>2019-07-06T05:42:00Z</time>
      </trkpt>
      <trkpt lat="45.53447" lon="6.77154">
        <ele>1448.334372861</ele>
        <time>2019-07-06T05:42:02Z</time>
      </trkpt>
      <trkpt lat="45.5345" lon="6.77153">
        <ele>1448.4239207952</ele>
        <time>2019-07-06T05:42:03Z</time>
      </trkpt>
      <trkpt lat="45.53452" lon="6.7715">
        <ele>1448.9724198237</ele>
        <time>2019-07-06T05:42:04Z</time>
      </trkpt>
      <trkpt lat="45.53455" lon="6.77148">
        <ele>1450.0244095397</ele>
        <time>2019-07-06T05:42:06Z</time>
      </trkpt>
      <trkpt lat="45.53457" lon="6.77148">
        <ele>1450.5719831441</ele>
        <time>2019-07-06T05:42:09Z</time>
      </trkpt>
      <trkpt lat="45.5346" lon="6.77148">
        <ele>1450.7317077123</ele>
        <time>2019-07-06T05:42:11Z</time>
      </trkpt>
      <trkpt lat="45.53462" lon="6.77148">
        <ele>1451.1063593059</ele>
        <time>2019-07-06T05:42:12Z</time>
      </trkpt>
      <trkpt lat="45.53464" lon="6.77148">
        <ele>1451.0679933002</ele>
        <time>2019-07-06T05:42:14Z</time>
      </trkpt>
      <trkpt lat="45.53468" lon="6.77146">
        <ele>1450.6731300617</ele>
        <time>2019-07-06T05:42:16Z</time>
      </trkpt>
      <trkpt lat="45.5347" lon="6.77145">
        <ele>1450.3498331002</ele>
        <time>2019-07-06T05:42:17Z</time>
      </trkpt>
      <trkpt lat="45.53472" lon="6.77143">
        <ele>1450.1967201899</ele>
        <time>2019-07-06T05:42:19Z</time>
      </trkpt>
      <trkpt lat="45.53473" lon="6.77142">
        <ele>1450.2392343264</ele>
        <time>2019-07-06T05:42:20Z</time>
      </trkpt>
      <trkpt lat="45.53477" lon="6.77142">
        <ele>1449.9306796219</ele>
        <time>2019-07-06T05:42:22Z</time>
      </trkpt>
      <trkpt lat="45.53479" lon="6.77141">
        <ele>1449.598133956</ele>
        <time>2019-07-06T05:42:24Z</time>
      </trkpt>
      <trkpt lat="45.53482" lon="6.7714">
        <ele>1449.2496385584</ele>
        <time>2019-07-06T05:42:26Z</time>
      </trkpt>
      <trkpt lat="45.53485" lon="6.77138">
        <ele>1448.727568993</ele>
        <time>2019-07-06T05:42:28Z</time>
      </trkpt>
      <trkpt lat="45.53487" lon="6.77138">
        <ele>1448.9931802851</ele>
        <time>2019-07-06T05:42:29Z</time>
      </trkpt>
      <trkpt lat="45.5349" lon="6.77138">
        <ele>1448.649359298</ele>
        <time>2019-07-06T05:42:31Z</time>
      </trkpt>
      <trkpt lat="45.53492" lon="6.77137">
        <ele>1447.8412415436</ele>
        <time>2019-07-06T05:42:33Z</time>
      </trkpt>
      <trkpt lat="45.53494" lon="6.77137">
        <ele>1447.3059806516</ele>
        <time>2019-07-06T05:42:35Z</time>
      </trkpt>
      <trkpt lat="45.53497" lon="6.77136">
        <ele>1446.6969658822</ele>
        <time>2019-07-06T05:42:37Z</time>
      </trkpt>
      <trkpt lat="45.53498" lon="6.77137">
        <ele>1446.3466523706</ele>
        <time>2019-07-06T05:42:38Z</time>
      </trkpt>
      <trkpt lat="45.53501" lon="6.7714">
        <ele>1446.079046074</ele>
        <time>2019-07-06T05:42:40Z</time>
      </trkpt>
      <trkpt lat="45.53502" lon="6.77142">
        <ele>1446.0562481572</ele>
        <time>2019-07-06T05:42:41Z</time>
      </trkpt>
      <trkpt lat="45.53504" lon="6.77143">
        <ele>1446.0990233093</ele>
        <time>2019-07-06T05:42:42Z</time>
      </trkpt>
      <trkpt lat="45.53505" lon="6.77145">
        <ele>1446.5161798386</ele>
        <time>2019-07-06T05:42:43Z</time>
      </trkpt>
      <trkpt lat="45.53507" lon="6.77147">
        <ele>1446.6775604192</ele>
        <time>2019-07-06T05:42:44Z</time>
      </trkpt>
      <trkpt lat="45.53509" lon="6.77151">
        <ele>1446.6988132993</ele>
        <time>2019-07-06T05:42:46Z</time>
      </trkpt>
      <trkpt lat="45.5351" lon="6.77155">
        <ele>1446.3558508158</ele>
        <time>2019-07-06T05:42:49Z</time>
      </trkpt>
      <trkpt lat="45.53512" lon="6.77158">
        <ele>1445.2055657188</ele>
        <time>2019-07-06T05:42:52Z</time>
      </trkpt>
      <trkpt lat="45.53512" lon="6.77161">
        <ele>1445.0717274717</ele>
        <time>2019-07-06T05:42:53Z</time>
      </trkpt>
      <trkpt lat="45.53515" lon="6.77163">
        <ele>1444.4823190693</ele>
        <time>2019-07-06T05:42:55Z</time>
      </trkpt>
      <trkpt lat="45.53516" lon="6.77165">
        <ele>1444.3267302085</ele>
        <time>2019-07-06T05:42:56Z</time>
      </trkpt>
      <trkpt lat="45.53518" lon="6.77167">
        <ele>1444.0798117089</ele>
        <time>2019-07-06T05:42:57Z</time>
      </trkpt>
      <trkpt lat="45.5352" lon="6.77169">
        <ele>1443.7756817791</ele>
        <time>2019-07-06T05:42:59Z</time>
      </trkpt>
      <trkpt lat="45.53522" lon="6.77171">
        <ele>1443.4663607282</ele>
        <time>2019-07-06T05:43:01Z</time>
      </trkpt>
      <trkpt lat="45.53523" lon="6.77175">
        <ele>1444.1893939722</ele>
        <time>2019-07-06T05:43:03Z</time>
      </trkpt>
      <trkpt lat="45.53525" lon="6.77177">
        <ele>1445.3284209614</ele>
        <time>2019-07-06T05:43:05Z</time>
      </trkpt>
      <trkpt lat="45.53527" lon="6.77178">
        <ele>1446.8110022441</ele>
        <time>2019-07-06T05:43:07Z</time>
      </trkpt>
      <trkpt lat="45.5353" lon="6.77177">
        <ele>1448.2926225605</ele>
        <time>2019-07-06T05:43:10Z</time>
      </trkpt>
      <trkpt lat="45.53532" lon="6.77177">
        <ele>1448.1158894584</ele>
        <time>2019-07-06T05:43:11Z</time>
      </trkpt>
      <trkpt lat="45.53534" lon="6.77176">
        <ele>1447.5855620294</ele>
        <time>2019-07-06T05:43:13Z</time>
      </trkpt>
      <trkpt lat="45.53536" lon="6.77173">
        <ele>1446.2993001706</ele>
        <time>2019-07-06T05:43:15Z</time>
      </trkpt>
      <trkpt lat="45.53538" lon="6.77171">
        <ele>1443.6553951744</ele>
        <time>2019-07-06T05:43:18Z</time>
      </trkpt>
      <trkpt lat="45.53539" lon="6.7717">
        <ele>1441.4279952803</ele>
        <time>2019-07-06T05:43:20Z</time>
      </trkpt>
      <trkpt lat="45.5354" lon="6.77168">
        <ele>1439.9143641703</ele>
        <time>2019-07-06T05:43:22Z</time>
      </trkpt>
      <trkpt lat="45.53541" lon="6.77165">
        <ele>1438.6423352917</ele>
        <time>2019-07-06T05:43:24Z</time>
      </trkpt>
      <trkpt lat="45.53541" lon="6.77162">
        <ele>1437.6292312866</ele>
        <time>2019-07-06T05:43:26Z</time>
      </trkpt>
      <trkpt lat="45.53541" lon="6.77159">
        <ele>1437.0700818078</ele>
        <time>2019-07-06T05:43:27Z</time>
      </trkpt>
      <trkpt lat="45.53541" lon="6.77154">
        <ele>1436.4100685558</ele>
        <time>2019-07-06T05:43:29Z</time>
      </trkpt>
      <trkpt lat="45.53541" lon="6.77151">
        <ele>1436.1630038077</ele>
        <time>2019-07-06T05:43:30Z</time>
      </trkpt>
      <trkpt lat="45.53542" lon="6.77148">
        <ele>1435.2861291465</ele>
        <time>2019-07-06T05:43:32Z</time>
      </trkpt>
      <trkpt lat="45.53544" lon="6.77146">
        <ele>1434.7930365669</ele>
        <time>2019-07-06T05:43:34Z</time>
      </trkpt>
      <trkpt lat="45.53546" lon="6.77142">
        <ele>1434.2735170438</ele>
        <time>2019-07-06T05:43:36Z</time>
      </trkpt>
      <trkpt lat="45.53546" lon="6.77138">
        <ele>1434.5076552629</ele>
        <time>2019-07-06T05:43:38Z</time>
      </trkpt>
      <trkpt lat="45.53546" lon="6.77134">
        <ele>1434.8931174929</ele>
        <time>2019-07-06T05:43:40Z</time>
      </trkpt>
      <trkpt lat="45.53544" lon="6.77131">
        <ele>1435.2646782949</ele>
        <time>2019-07-06T05:43:42Z</time>
      </trkpt>
      <trkpt lat="45.53544" lon="6.77128">
        <ele>1435.3239450432</ele>
        <time>2019-07-06T05:43:44Z</time>
      </trkpt>
      <trkpt lat="45.53544" lon="6.77124">
        <ele>1434.6576802798</ele>
        <time>2019-07-06T05:43:46Z</time>
      </trkpt>
      <trkpt lat="45.53544" lon="6.77122">
        <ele>1434.2477852921</ele>
        <time>2019-07-06T05:43:47Z</time>
      </trkpt>
      <trkpt lat="45.53545" lon="6.7712">
        <ele>1432.8539705582</ele>
        <time>2019-07-06T05:43:49Z</time>
      </trkpt>
      <trkpt lat="45.53545" lon="6.77116">
        <ele>1430.6021139735</ele>
        <time>2019-07-06T05:43:52Z</time>
      </trkpt>
      <trkpt lat="45.53546" lon="6.77112">
        <ele>1429.0971852378</ele>
        <time>2019-07-06T05:43:54Z</time>
      </trkpt>
      <trkpt lat="45.53547" lon="6.7711">
        <ele>1428.4904813911</ele>
        <time>2019-07-06T05:43:55Z</time>
      </trkpt>
      <trkpt lat="45.53547" lon="6.77107">
        <ele>1428.1575315434</ele>
        <time>2019-07-06T05:43:57Z</time>
      </trkpt>
      <trkpt lat="45.53546" lon="6.77103">
        <ele>1427.6674448983</ele>
        <time>2019-07-06T05:43:59Z</time>
      </trkpt>
      <trkpt lat="45.53545" lon="6.77099">
        <ele>1427.4081372385</ele>
        <time>2019-07-06T05:44:01Z</time>
      </trkpt>
      <trkpt lat="45.53545" lon="6.77096">
        <ele>1426.7758651287</ele>
        <time>2019-07-06T05:44:05Z</time>
      </trkpt>
      <trkpt lat="45.53545" lon="6.77094">
        <ele>1426.0015768243</ele>
        <time>2019-07-06T05:44:06Z</time>
      </trkpt>
      <trkpt lat="45.53544" lon="6.77093">
        <ele>1425.027619928</ele>
        <time>2019-07-06T05:44:07Z</time>
      </trkpt>
      <trkpt lat="45.53543" lon="6.77091">
        <ele>1424.1357559181</ele>
        <time>2019-07-06T05:44:08Z</time>
      </trkpt>
      <trkpt lat="45.53542" lon="6.77088">
        <ele>1422.928337415</ele>
        <time>2019-07-06T05:44:10Z</time>
      </trkpt>
      <trkpt lat="45.53541" lon="6.77085">
        <ele>1422.576958081</ele>
        <time>2019-07-06T05:44:11Z</time>
      </trkpt>
      <trkpt lat="45.53539" lon="6.77082">
        <ele>1421.2749879506</ele>
        <time>2019-07-06T05:44:15Z</time>
      </trkpt>
      <trkpt lat="45.53539" lon="6.77079">
        <ele>1420.0520722431</ele>
        <time>2019-07-06T05:44:18Z</time>
      </trkpt>
      <trkpt lat="45.53538" lon="6.77075">
        <ele>1419.2857973001</ele>
        <time>2019-07-06T05:44:20Z</time>
      </trkpt>
      <trkpt lat="45.53538" lon="6.77072">
        <ele>1418.9823509482</ele>
        <time>2019-07-06T05:44:21Z</time>
      </trkpt>
      <trkpt lat="45.5354" lon="6.7707">
        <ele>1419.0345619408</ele>
        <time>2019-07-06T05:44:23Z</time>
      </trkpt>
      <trkpt lat="45.53541" lon="6.77066">
        <ele>1419.024031341</ele>
        <time>2019-07-06T05:44:25Z</time>
      </trkpt>
      <trkpt lat="45.53543" lon="6.77064">
        <ele>1419.0526702234</ele>
        <time>2019-07-06T05:44:26Z</time>
      </trkpt>
      <trkpt lat="45.53544" lon="6.77062">
        <ele>1419.1746302819</ele>
        <time>2019-07-06T05:44:27Z</time>
      </trkpt>
      <trkpt lat="45.53546" lon="6.77058">
        <ele>1418.8472233958</ele>
        <time>2019-07-06T05:44:29Z</time>
      </trkpt>
      <trkpt lat="45.53549" lon="6.77056">
        <ele>1418.668023003</ele>
        <time>2019-07-06T05:44:31Z</time>
      </trkpt>
      <trkpt lat="45.53551" lon="6.77055">
        <ele>1418.3060169967</ele>
        <time>2019-07-06T05:44:33Z</time>
      </trkpt>
      <trkpt lat="45.53552" lon="6.77051">
        <ele>1417.2878883134</ele>
        <time>2019-07-06T05:44:35Z</time>
      </trkpt>
      <trkpt lat="45.53553" lon="6.77049">
        <ele>1417.0437852127</ele>
        <time>2019-07-06T05:44:36Z</time>
      </trkpt>
      <trkpt lat="45.53554" lon="6.77047">
        <ele>1416.8445005716</ele>
        <time>2019-07-06T05:44:37Z</time>
      </trkpt>
      <trkpt lat="45.53556" lon="6.77044">
        <ele>1416.4593766967</ele>
        <time>2019-07-06T05:44:39Z</time>
      </trkpt>
      <trkpt lat="45.53557" lon="6.77041">
        <ele>1415.5862040894</ele>
        <time>2019-07-06T05:44:41Z</time>
      </trkpt>
      <trkpt lat="45.53559" lon="6.77039">
        <ele>1414.9725706066</ele>
        <time>2019-07-06T05:44:43Z</time>
      </trkpt>
      <trkpt lat="45.53561" lon="6.77037">
        <ele>1414.8138068676</ele>
        <time>2019-07-06T05:44:45Z</time>
      </trkpt>
      <trkpt lat="45.53562" lon="6.77034">
        <ele>1414.8115981303</ele>
        <time>2019-07-06T05:44:47Z</time>
      </trkpt>
      <trkpt lat="45.53563" lon="6.77032">
        <ele>1414.7109617216</ele>
        <time>2019-07-06T05:44:49Z</time>
      </trkpt>
      <trkpt lat="45.53564" lon="6.77027">
        <ele>1414.8838859836</ele>
        <time>2019-07-06T05:44:50Z</time>
      </trkpt>
      <trkpt lat="45.53566" lon="6.77022">
        <ele>1415.4410322791</ele>
        <time>2019-07-06T05:44:51Z</time>
      </trkpt>
      <trkpt lat="45.53568" lon="6.77017">
        <ele>1415.9105499916</ele>
        <time>2019-07-06T05:44:52Z</time>
      </trkpt>
      <trkpt lat="45.5357" lon="6.77014">
        <ele>1416.3869664749</ele>
        <time>2019-07-06T05:44:53Z</time>
      </trkpt>
      <trkpt lat="45.53572" lon="6.77011">
        <ele>1417.0000823289</ele>
        <time>2019-07-06T05:44:54Z</time>
      </trkpt>
      <trkpt lat="45.53573" lon="6.77011">
        <ele>1417.783616598</ele>
        <time>2019-07-06T05:44:55Z</time>
      </trkpt>
      <trkpt lat="45.53575" lon="6.77008">
        <ele>1418.7065909457</ele>
        <time>2019-07-06T05:44:57Z</time>
      </trkpt>
      <trkpt lat="45.53576" lon="6.77007">
        <ele>1418.9403485035</ele>
        <time>2019-07-06T05:44:58Z</time>
      </trkpt>
      <trkpt lat="45.53578" lon="6.77003">
        <ele>1419.8495000208</ele>
        <time>2019-07-06T05:45:00Z</time>
      </trkpt>
      <trkpt lat="45.53581" lon="6.76999">
        <ele>1419.8346940967</ele>
        <time>2019-07-06T05:45:02Z</time>
      </trkpt>
      <trkpt lat="45.53581" lon="6.76996">
        <ele>1419.572399874</ele>
        <time>2019-07-06T05:45:04Z</time>
      </trkpt>
      <trkpt lat="45.53582" lon="6.76993">
        <ele>1418.6665785588</ele>
        <time>2019-07-06T05:45:07Z</time>
      </trkpt>
      <trkpt lat="45.53584" lon="6.7699">
        <ele>1417.8429779461</ele>
        <time>2019-07-06T05:45:09Z</time>
      </trkpt>
      <trkpt lat="45.53586" lon="6.76989">
        <ele>1417.3524657101</ele>
        <time>2019-07-06T05:45:10Z</time>
      </trkpt>
      <trkpt lat="45.53588" lon="6.76987">
        <ele>1416.4624328209</ele>
        <time>2019-07-06T05:45:12Z</time>
      </trkpt>
      <trkpt lat="45.5359" lon="6.76984">
        <ele>1415.7967572864</ele>
        <time>2019-07-06T05:45:14Z</time>
      </trkpt>
      <trkpt lat="45.53591" lon="6.76981">
        <ele>1414.7537820242</ele>
        <time>2019-07-06T05:45:16Z</time>
      </trkpt>
      <trkpt lat="45.53592" lon="6.76978">
        <ele>1414.0820869671</ele>
        <time>2019-07-06T05:45:18Z</time>
      </trkpt>
      <trkpt lat="45.53594" lon="6.76975">
        <ele>1414.1304574044</ele>
        <time>2019-07-06T05:45:20Z</time>
      </trkpt>
      <trkpt lat="45.53595" lon="6.76972">
        <ele>1414.1255970479</ele>
        <time>2019-07-06T05:45:22Z</time>
      </trkpt>
      <trkpt lat="45.53596" lon="6.76968">
        <ele>1413.6925074798</ele>
        <time>2019-07-06T05:45:24Z</time>
      </trkpt>
      <trkpt lat="45.53597" lon="6.76965">
        <ele>1413.4318748317</ele>
        <time>2019-07-06T05:45:26Z</time>
      </trkpt>
      <trkpt lat="45.53599" lon="6.76964">
        <ele>1413.1013991763</ele>
        <time>2019-07-06T05:45:28Z</time>
      </trkpt>
      <trkpt lat="45.53601" lon="6.7696">
        <ele>1413.6636123533</ele>
        <time>2019-07-06T05:45:30Z</time>
      </trkpt>
      <trkpt lat="45.53603" lon="6.76959">
        <ele>1414.1835378763</ele>
        <time>2019-07-06T05:45:33Z</time>
      </trkpt>
      <trkpt lat="45.53605" lon="6.76957">
        <ele>1414.5704317494</ele>
        <time>2019-07-06T05:45:34Z</time>
      </trkpt>
      <trkpt lat="45.53606" lon="6.76955">
        <ele>1414.7716011154</ele>
        <time>2019-07-06T05:45:35Z</time>
      </trkpt>
      <trkpt lat="45.53607" lon="6.76954">
        <ele>1415.1010233459</ele>
        <time>2019-07-06T05:45:37Z</time>
      </trkpt>
      <trkpt lat="45.5361" lon="6.76951">
        <ele>1415.3196449077</ele>
        <time>2019-07-06T05:45:40Z</time>
      </trkpt>
      <trkpt lat="45.53612" lon="6.76948">
        <ele>1416.1631546814</ele>
        <time>2019-07-06T05:45:42Z</time>
      </trkpt>
      <trkpt lat="45.53614" lon="6.76945">
        <ele>1417.6209477579</ele>
        <time>2019-07-06T05:45:44Z</time>
      </trkpt>
      <trkpt lat="45.53616" lon="6.76944">
        <ele>1418.8784407758</ele>
        <time>2019-07-06T05:45:46Z</time>
      </trkpt>
      <trkpt lat="45.5362" lon="6.76942">
        <ele>1420.2273635176</ele>
        <time>2019-07-06T05:45:48Z</time>
      </trkpt>
      <trkpt lat="45.53622" lon="6.7694">
        <ele>1420.7240431286</ele>
        <time>2019-07-06T05:45:49Z</time>
      </trkpt>
      <trkpt lat="45.53623" lon="6.76939">
        <ele>1421.5200145705</ele>
        <time>2019-07-06T05:45:51Z</time>
      </trkpt>
      <trkpt lat="45.53627" lon="6.76938">
        <ele>1422.6364234796</ele>
        <time>2019-07-06T05:45:54Z</time>
      </trkpt>
      <trkpt lat="45.53629" lon="6.76937">
        <ele>1422.8037767126</ele>
        <time>2019-07-06T05:45:56Z</time>
      </trkpt>
      <trkpt lat="45.53632" lon="6.76936">
        <ele>1422.7793604828</ele>
        <time>2019-07-06T05:45:58Z</time>
      </trkpt>
      <trkpt lat="45.53634" lon="6.76934">
        <ele>1422.1747786181</ele>
        <time>2019-07-06T05:46:00Z</time>
      </trkpt>
      <trkpt lat="45.53636" lon="6.76933">
        <ele>1421.6208378757</ele>
        <time>2019-07-06T05:46:01Z</time>
      </trkpt>
      <trkpt lat="45.53638" lon="6.76933">
        <ele>1420.3971739297</ele>
        <time>2019-07-06T05:46:03Z</time>
      </trkpt>
      <trkpt lat="45.5364" lon="6.76932">
        <ele>1418.9503517501</ele>
        <time>2019-07-06T05:46:05Z</time>
      </trkpt>
      <trkpt lat="45.53643" lon="6.76931">
        <ele>1417.7688640972</ele>
        <time>2019-07-06T05:46:07Z</time>
      </trkpt>
      <trkpt lat="45.53645" lon="6.76929">
        <ele>1416.6094551979</ele>
        <time>2019-07-06T05:46:09Z</time>
      </trkpt>
      <trkpt lat="45.53647" lon="6.76928">
        <ele>1415.6905941725</ele>
        <time>2019-07-06T05:46:11Z</time>
      </trkpt>
      <trkpt lat="45.5365" lon="6.76926">
        <ele>1414.9016802528</ele>
        <time>2019-07-06T05:46:13Z</time>
      </trkpt>
      <trkpt lat="45.53652" lon="6.76924">
        <ele>1413.7761221986</ele>
        <time>2019-07-06T05:46:15Z</time>
      </trkpt>
      <trkpt lat="45.53655" lon="6.76921">
        <ele>1411.887047354</ele>
        <time>2019-07-06T05:46:17Z</time>
      </trkpt>
      <trkpt lat="45.53657" lon="6.7692">
        <ele>1410.9286751269</ele>
        <time>2019-07-06T05:46:18Z</time>
      </trkpt>
      <trkpt lat="45.53659" lon="6.76918">
        <ele>1408.8044018178</ele>
        <time>2019-07-06T05:46:22Z</time>
      </trkpt>
      <trkpt lat="45.53661" lon="6.76917">
        <ele>1407.967390376</ele>
        <time>2019-07-06T05:46:24Z</time>
      </trkpt>
      <trkpt lat="45.53663" lon="6.76917">
        <ele>1407.0728024271</ele>
        <time>2019-07-06T05:46:26Z</time>
      </trkpt>
      <trkpt lat="45.53665" lon="6.76915">
        <ele>1406.705514799</ele>
        <time>2019-07-06T05:46:27Z</time>
      </trkpt>
      <trkpt lat="45.53666" lon="6.76912">
        <ele>1406.1366926209</ele>
        <time>2019-07-06T05:46:29Z</time>
      </trkpt>
      <trkpt lat="45.53667" lon="6.7691">
        <ele>1405.9740439388</ele>
        <time>2019-07-06T05:46:30Z</time>
      </trkpt>
      <trkpt lat="45.53669" lon="6.76906">
        <ele>1405.8700790954</ele>
        <time>2019-07-06T05:46:31Z</time>
      </trkpt>
      <trkpt lat="45.53671" lon="6.76905">
        <ele>1405.9068046353</ele>
        <time>2019-07-06T05:46:32Z</time>
      </trkpt>
      <trkpt lat="45.53673" lon="6.76903">
        <ele>1405.8441051818</ele>
        <time>2019-07-06T05:46:33Z</time>
      </trkpt>
      <trkpt lat="45.53675" lon="6.769">
        <ele>1405.6830758907</ele>
        <time>2019-07-06T05:46:35Z</time>
      </trkpt>
      <trkpt lat="45.53677" lon="6.76897">
        <ele>1405.5232791505</ele>
        <time>2019-07-06T05:46:37Z</time>
      </trkpt>
      <trkpt lat="45.53678" lon="6.76896">
        <ele>1405.7689826063</ele>
        <time>2019-07-06T05:46:39Z</time>
      </trkpt>
      <trkpt lat="45.5368" lon="6.76893">
        <ele>1406.7342588461</ele>
        <time>2019-07-06T05:46:42Z</time>
      </trkpt>
      <trkpt lat="45.53679" lon="6.76889">
        <ele>1407.0753003584</ele>
        <time>2019-07-06T05:46:44Z</time>
      </trkpt>
      <trkpt lat="45.5368" lon="6.76885">
        <ele>1407.4939070776</ele>
        <time>2019-07-06T05:46:46Z</time>
      </trkpt>
      <trkpt lat="45.53682" lon="6.76882">
        <ele>1406.9631977981</ele>
        <time>2019-07-06T05:46:49Z</time>
      </trkpt>
      <trkpt lat="45.53683" lon="6.76879">
        <ele>1405.6439142857</ele>
        <time>2019-07-06T05:46:51Z</time>
      </trkpt>
      <trkpt lat="45.53685" lon="6.76875">
        <ele>1404.1521309838</ele>
        <time>2019-07-06T05:46:53Z</time>
      </trkpt>
      <trkpt lat="45.53686" lon="6.76872">
        <ele>1402.9044514885</ele>
        <time>2019-07-06T05:46:55Z</time>
      </trkpt>
      <trkpt lat="45.53686" lon="6.7687">
        <ele>1402.8016941889</ele>
        <time>2019-07-06T05:46:56Z</time>
      </trkpt>
      <trkpt lat="45.53686" lon="6.76865">
        <ele>1402.7877128702</ele>
        <time>2019-07-06T05:46:58Z</time>
      </trkpt>
      <trkpt lat="45.53688" lon="6.76861">
        <ele>1403.2333065747</ele>
        <time>2019-07-06T05:47:01Z</time>
      </trkpt>
      <trkpt lat="45.53689" lon="6.76859">
        <ele>1403.3587248106</ele>
        <time>2019-07-06T05:47:03Z</time>
      </trkpt>
      <trkpt lat="45.5369" lon="6.76856">
        <ele>1403.3919042987</ele>
        <time>2019-07-06T05:47:06Z</time>
      </trkpt>
      <trkpt lat="45.5369" lon="6.76852">
        <ele>1403.3959982972</ele>
        <time>2019-07-06T05:47:08Z</time>
      </trkpt>
      <trkpt lat="45.53693" lon="6.7685">
        <ele>1403.3716548515</ele>
        <time>2019-07-06T05:47:10Z</time>
      </trkpt>
      <trkpt lat="45.53694" lon="6.76849">
        <ele>1402.1374229673</ele>
        <time>2019-07-06T05:47:13Z</time>
      </trkpt>
      <trkpt lat="45.53695" lon="6.76846">
        <ele>1401.7680869874</ele>
        <time>2019-07-06T05:47:15Z</time>
      </trkpt>
      <trkpt lat="45.53696" lon="6.76842">
        <ele>1401.155844005</ele>
        <time>2019-07-06T05:47:17Z</time>
      </trkpt>
      <trkpt lat="45.53698" lon="6.7684">
        <ele>1400.3147974876</ele>
        <time>2019-07-06T05:47:19Z</time>
      </trkpt>
      <trkpt lat="45.53698" lon="6.76835">
        <ele>1400.0436739009</ele>
        <time>2019-07-06T05:47:21Z</time>
      </trkpt>
      <trkpt lat="45.53698" lon="6.76832">
        <ele>1399.7157718188</ele>
        <time>2019-07-06T05:47:23Z</time>
      </trkpt>
      <trkpt lat="45.53699" lon="6.76829">
        <ele>1399.2108609635</ele>
        <time>2019-07-06T05:47:25Z</time>
      </trkpt>
      <trkpt lat="45.537" lon="6.76826">
        <ele>1397.4759382299</ele>
        <time>2019-07-06T05:47:28Z</time>
      </trkpt>
      <trkpt lat="45.537" lon="6.76823">
        <ele>1396.3710723368</ele>
        <time>2019-07-06T05:47:30Z</time>
      </trkpt>
      <trkpt lat="45.53701" lon="6.76821">
        <ele>1395.2390745756</ele>
        <time>2019-07-06T05:47:32Z</time>
      </trkpt>
      <trkpt lat="45.53702" lon="6.76819">
        <ele>1394.6895433953</ele>
        <time>2019-07-06T05:47:33Z</time>
      </trkpt>
      <trkpt lat="45.53702" lon="6.76815">
        <ele>1393.7319112513</ele>
        <time>2019-07-06T05:47:35Z</time>
      </trkpt>
      <trkpt lat="45.53703" lon="6.76811">
        <ele>1392.5654702249</ele>
        <time>2019-07-06T05:47:37Z</time>
      </trkpt>
      <trkpt lat="45.53704" lon="6.76807">
        <ele>1392.0206051123</ele>
        <time>2019-07-06T05:47:39Z</time>
      </trkpt>
      <trkpt lat="45.53704" lon="6.76804">
        <ele>1391.3155855398</ele>
        <time>2019-07-06T05:47:41Z</time>
      </trkpt>
      <trkpt lat="45.53704" lon="6.768">
        <ele>1390.7911316355</ele>
        <time>2019-07-06T05:47:44Z</time>
      </trkpt>
      <trkpt lat="45.53704" lon="6.76797">
        <ele>1390.0544124512</ele>
        <time>2019-07-06T05:47:47Z</time>
      </trkpt>
      <trkpt lat="45.53705" lon="6.76794">
        <ele>1389.7754862943</ele>
        <time>2019-07-06T05:47:49Z</time>
      </trkpt>
      <trkpt lat="45.53705" lon="6.76788">
        <ele>1388.7446985245</ele>
        <time>2019-07-06T05:47:51Z</time>
      </trkpt>
      <trkpt lat="45.53706" lon="6.76785">
        <ele>1386.7356347506</ele>
        <time>2019-07-06T05:47:54Z</time>
      </trkpt>
      <trkpt lat="45.53708" lon="6.76782">
        <ele>1385.3735687173</ele>
        <time>2019-07-06T05:47:56Z</time>
      </trkpt>
      <trkpt lat="45.5371" lon="6.76781">
        <ele>1384.5008443328</ele>
        <time>2019-07-06T05:47:58Z</time>
      </trkpt>
      <trkpt lat="45.53712" lon="6.76781">
        <ele>1382.3429783588</ele>
        <time>2019-07-06T05:48:02Z</time>
      </trkpt>
      <trkpt lat="45.53714" lon="6.76778">
        <ele>1380.5730905406</ele>
        <time>2019-07-06T05:48:05Z</time>
      </trkpt>
      <trkpt lat="45.53717" lon="6.76778">
        <ele>1380.1608906154</ele>
        <time>2019-07-06T05:48:07Z</time>
      </trkpt>
      <trkpt lat="45.5372" lon="6.76777">
        <ele>1379.2257276973</ele>
        <time>2019-07-06T05:48:09Z</time>
      </trkpt>
      <trkpt lat="45.53722" lon="6.76777">
        <ele>1378.0398623145</ele>
        <time>2019-07-06T05:48:13Z</time>
      </trkpt>
      <trkpt lat="45.53725" lon="6.76777">
        <ele>1377.2224005326</ele>
        <time>2019-07-06T05:48:15Z</time>
      </trkpt>
      <trkpt lat="45.53728" lon="6.76775">
        <ele>1375.9519667509</ele>
        <time>2019-07-06T05:48:17Z</time>
      </trkpt>
      <trkpt lat="45.53731" lon="6.76773">
        <ele>1375.0419140556</ele>
        <time>2019-07-06T05:48:19Z</time>
      </trkpt>
      <trkpt lat="45.53733" lon="6.76771">
        <ele>1374.6369546297</ele>
        <time>2019-07-06T05:48:21Z</time>
      </trkpt>
      <trkpt lat="45.53733" lon="6.76768">
        <ele>1374.1632674104</ele>
        <time>2019-07-06T05:48:23Z</time>
      </trkpt>
      <trkpt lat="45.53733" lon="6.76764">
        <ele>1373.3443149001</ele>
        <time>2019-07-06T05:48:26Z</time>
      </trkpt>
      <trkpt lat="45.53733" lon="6.7676">
        <ele>1373.0209790841</ele>
        <time>2019-07-06T05:48:29Z</time>
      </trkpt>
      <trkpt lat="45.53732" lon="6.76757">
        <ele>1373.1835380504</ele>
        <time>2019-07-06T05:48:30Z</time>
      </trkpt>
      <trkpt lat="45.53732" lon="6.76753">
        <ele>1373.6798540072</ele>
        <time>2019-07-06T05:48:32Z</time>
      </trkpt>
      <trkpt lat="45.53731" lon="6.7675">
        <ele>1374.057040417</ele>
        <time>2019-07-06T05:48:34Z</time>
      </trkpt>
      <trkpt lat="45.53731" lon="6.76747">
        <ele>1373.9402847485</ele>
        <time>2019-07-06T05:48:36Z</time>
      </trkpt>
      <trkpt lat="45.53731" lon="6.76744">
        <ele>1373.3235078045</ele>
        <time>2019-07-06T05:48:38Z</time>
      </trkpt>
      <trkpt lat="45.53731" lon="6.76741">
        <ele>1373.2151622029</ele>
        <time>2019-07-06T05:48:39Z</time>
      </trkpt>
      <trkpt lat="45.53732" lon="6.76736">
        <ele>1373.2526138839</ele>
        <time>2019-07-06T05:48:41Z</time>
      </trkpt>
      <trkpt lat="45.53732" lon="6.76733">
        <ele>1372.5409534332</ele>
        <time>2019-07-06T05:48:43Z</time>
      </trkpt>
      <trkpt lat="45.53733" lon="6.7673">
        <ele>1372.3565332235</ele>
        <time>2019-07-06T05:48:44Z</time>
      </trkpt>
      <trkpt lat="45.53734" lon="6.76728">
        <ele>1372.1765773502</ele>
        <time>2019-07-06T05:48:45Z</time>
      </trkpt>
      <trkpt lat="45.53736" lon="6.76724">
        <ele>1371.8368635062</ele>
        <time>2019-07-06T05:48:47Z</time>
      </trkpt>
      <trkpt lat="45.53736" lon="6.76722">
        <ele>1370.8970905213</ele>
        <time>2019-07-06T05:48:49Z</time>
      </trkpt>
      <trkpt lat="45.53738" lon="6.76719">
        <ele>1370.3056540257</ele>
        <time>2019-07-06T05:48:51Z</time>
      </trkpt>
      <trkpt lat="45.5374" lon="6.76717">
        <ele>1370.135239279</ele>
        <time>2019-07-06T05:48:52Z</time>
      </trkpt>
      <trkpt lat="45.53739" lon="6.76713">
        <ele>1369.9267603694</ele>
        <time>2019-07-06T05:48:54Z</time>
      </trkpt>
      <trkpt lat="45.5374" lon="6.76711">
        <ele>1369.483134037</ele>
        <time>2019-07-06T05:48:56Z</time>
      </trkpt>
      <trkpt lat="45.53743" lon="6.76709">
        <ele>1368.9358187462</ele>
        <time>2019-07-06T05:48:58Z</time>
      </trkpt>
      <trkpt lat="45.53744" lon="6.76707">
        <ele>1368.8383291256</ele>
        <time>2019-07-06T05:48:59Z</time>
      </trkpt>
      <trkpt lat="45.53746" lon="6.76704">
        <ele>1368.7260261298</ele>
        <time>2019-07-06T05:49:01Z</time>
      </trkpt>
      <trkpt lat="45.53749" lon="6.76703">
        <ele>1368.5463606715</ele>
        <time>2019-07-06T05:49:03Z</time>
      </trkpt>
      <trkpt lat="45.53753" lon="6.76701">
        <ele>1368.1798510501</ele>
        <time>2019-07-06T05:49:05Z</time>
      </trkpt>
      <trkpt lat="45.53754" lon="6.767">
        <ele>1367.877392507</ele>
        <time>2019-07-06T05:49:06Z</time>
      </trkpt>
      <trkpt lat="45.53757" lon="6.76697">
        <ele>1367.1425022721</ele>
        <time>2019-07-06T05:49:08Z</time>
      </trkpt>
      <trkpt lat="45.53759" lon="6.76694">
        <ele>1367.0682103518</ele>
        <time>2019-07-06T05:49:10Z</time>
      </trkpt>
      <trkpt lat="45.5376" lon="6.76692">
        <ele>1368.6700548551</ele>
        <time>2019-07-06T05:49:14Z</time>
      </trkpt>
      <trkpt lat="45.53762" lon="6.7669">
        <ele>1368.9376731765</ele>
        <time>2019-07-06T05:49:19Z</time>
      </trkpt>
      <trkpt lat="45.53763" lon="6.76688">
        <ele>1368.3999050203</ele>
        <time>2019-07-06T05:49:22Z</time>
      </trkpt>
      <trkpt lat="45.53764" lon="6.76685">
        <ele>1367.63771032</ele>
        <time>2019-07-06T05:49:31Z</time>
      </trkpt>
      <trkpt lat="45.53766" lon="6.76684">
        <ele>1367.4255536492</ele>
        <time>2019-07-06T05:49:32Z</time>
      </trkpt>
      <trkpt lat="45.53769" lon="6.76681">
        <ele>1366.6967485571</ele>
        <time>2019-07-06T05:49:34Z</time>
      </trkpt>
      <trkpt lat="45.5377" lon="6.76679">
        <ele>1366.310412393</ele>
        <time>2019-07-06T05:49:36Z</time>
      </trkpt>
      <trkpt lat="45.53772" lon="6.76675">
        <ele>1366.5118123747</ele>
        <time>2019-07-06T05:49:38Z</time>
      </trkpt>
      <trkpt lat="45.53774" lon="6.76673">
        <ele>1366.3572563699</ele>
        <time>2019-07-06T05:49:40Z</time>
      </trkpt>
      <trkpt lat="45.53775" lon="6.7667">
        <ele>1366.3147007148</ele>
        <time>2019-07-06T05:49:42Z</time>
      </trkpt>
      <trkpt lat="45.53777" lon="6.76667">
        <ele>1366.4833399231</ele>
        <time>2019-07-06T05:49:43Z</time>
      </trkpt>
      <trkpt lat="45.53779" lon="6.76665">
        <ele>1366.7267261816</ele>
        <time>2019-07-06T05:49:45Z</time>
      </trkpt>
      <trkpt lat="45.5378" lon="6.76662">
        <ele>1366.4163415025</ele>
        <time>2019-07-06T05:49:47Z</time>
      </trkpt>
      <trkpt lat="45.5378" lon="6.76659">
        <ele>1365.9940386125</ele>
        <time>2019-07-06T05:49:48Z</time>
      </trkpt>
      <trkpt lat="45.5378" lon="6.76657">
        <ele>1365.4058965044</ele>
        <time>2019-07-06T05:49:49Z</time>
      </trkpt>
      <trkpt lat="45.53782" lon="6.76654">
        <ele>1364.6406912833</ele>
        <time>2019-07-06T05:49:50Z</time>
      </trkpt>
      <trkpt lat="45.53783" lon="6.7665">
        <ele>1363.4244281204</ele>
        <time>2019-07-06T05:49:52Z</time>
      </trkpt>
      <trkpt lat="45.53785" lon="6.76647">
        <ele>1363.0529778846</ele>
        <time>2019-07-06T05:49:54Z</time>
      </trkpt>
      <trkpt lat="45.53785" lon="6.76643">
        <ele>1362.5172892562</ele>
        <time>2019-07-06T05:49:56Z</time>
      </trkpt>
      <trkpt lat="45.53786" lon="6.76641">
        <ele>1362.0317075296</ele>
        <time>2019-07-06T05:49:58Z</time>
      </trkpt>
      <trkpt lat="45.53788" lon="6.76637">
        <ele>1361.2165177549</ele>
        <time>2019-07-06T05:50:00Z</time>
      </trkpt>
      <trkpt lat="45.53788" lon="6.76634">
        <ele>1360.9464426639</ele>
        <time>2019-07-06T05:50:01Z</time>
      </trkpt>
      <trkpt lat="45.53789" lon="6.7663">
        <ele>1360.355221111</ele>
        <time>2019-07-06T05:50:03Z</time>
      </trkpt>
      <trkpt lat="45.53788" lon="6.76627">
        <ele>1360.002386061</ele>
        <time>2019-07-06T05:50:05Z</time>
      </trkpt>
      <trkpt lat="45.53789" lon="6.76623">
        <ele>1360.006070115</ele>
        <time>2019-07-06T05:50:07Z</time>
      </trkpt>
      <trkpt lat="45.53789" lon="6.76619">
        <ele>1360.3195987787</ele>
        <time>2019-07-06T05:50:09Z</time>
      </trkpt>
      <trkpt lat="45.53789" lon="6.76615">
        <ele>1360.8939339288</ele>
        <time>2019-07-06T05:50:11Z</time>
      </trkpt>
      <trkpt lat="45.53788" lon="6.76611">
        <ele>1362.256804725</ele>
        <time>2019-07-06T05:50:13Z</time>
      </trkpt>
      <trkpt lat="45.53788" lon="6.76608">
        <ele>1362.9797595889</ele>
        <time>2019-07-06T05:50:14Z</time>
      </trkpt>
      <trkpt lat="45.53789" lon="6.76605">
        <ele>1363.7135448186</ele>
        <time>2019-07-06T05:50:15Z</time>
      </trkpt>
      <trkpt lat="45.53789" lon="6.76603">
        <ele>1364.356632183</ele>
        <time>2019-07-06T05:50:16Z</time>
      </trkpt>
      <trkpt lat="45.53789" lon="6.76599">
        <ele>1364.8426719645</ele>
        <time>2019-07-06T05:50:17Z</time>
      </trkpt>
      <trkpt lat="45.53791" lon="6.76599">
        <ele>1364.8253265993</ele>
        <time>2019-07-06T05:50:18Z</time>
      </trkpt>
      <trkpt lat="45.53793" lon="6.76594">
        <ele>1364.7957703987</ele>
        <time>2019-07-06T05:50:20Z</time>
      </trkpt>
      <trkpt lat="45.53795" lon="6.7659">
        <ele>1364.380336793</ele>
        <time>2019-07-06T05:50:22Z</time>
      </trkpt>
      <trkpt lat="45.53797" lon="6.76586">
        <ele>1364.3538804847</ele>
        <time>2019-07-06T05:50:24Z</time>
      </trkpt>
      <trkpt lat="45.53798" lon="6.76583">
        <ele>1364.3202996038</ele>
        <time>2019-07-06T05:50:25Z</time>
      </trkpt>
      <trkpt lat="45.53799" lon="6.76579">
        <ele>1364.6756290468</ele>
        <time>2019-07-06T05:50:27Z</time>
      </trkpt>
      <trkpt lat="45.53801" lon="6.76576">
        <ele>1364.9079422307</ele>
        <time>2019-07-06T05:50:29Z</time>
      </trkpt>
      <trkpt lat="45.53801" lon="6.76572">
        <ele>1364.8110866796</ele>
        <time>2019-07-06T05:50:31Z</time>
      </trkpt>
      <trkpt lat="45.53802" lon="6.76567">
        <ele>1364.9329210287</ele>
        <time>2019-07-06T05:50:33Z</time>
      </trkpt>
      <trkpt lat="45.53803" lon="6.76565">
        <ele>1364.6882359714</ele>
        <time>2019-07-06T05:50:35Z</time>
      </trkpt>
      <trkpt lat="45.53803" lon="6.7656">
        <ele>1365.3090809775</ele>
        <time>2019-07-06T05:50:37Z</time>
      </trkpt>
      <trkpt lat="45.53805" lon="6.76556">
        <ele>1366.0338040827</ele>
        <time>2019-07-06T05:50:39Z</time>
      </trkpt>
      <trkpt lat="45.53805" lon="6.76552">
        <ele>1366.4573964386</ele>
        <time>2019-07-06T05:50:41Z</time>
      </trkpt>
      <trkpt lat="45.53806" lon="6.76549">
        <ele>1366.6352750022</ele>
        <time>2019-07-06T05:50:42Z</time>
      </trkpt>
      <trkpt lat="45.53807" lon="6.76547">
        <ele>1366.6173203415</ele>
        <time>2019-07-06T05:50:43Z</time>
      </trkpt>
      <trkpt lat="45.53808" lon="6.76543">
        <ele>1366.47111413</ele>
        <time>2019-07-06T05:50:45Z</time>
      </trkpt>
      <trkpt lat="45.5381" lon="6.7654">
        <ele>1366.3559597163</ele>
        <time>2019-07-06T05:50:47Z</time>
      </trkpt>
      <trkpt lat="45.53812" lon="6.76539">
        <ele>1366.4236387055</ele>
        <time>2019-07-06T05:50:48Z</time>
      </trkpt>
      <trkpt lat="45.53814" lon="6.76536">
        <ele>1366.6225328983</ele>
        <time>2019-07-06T05:50:50Z</time>
      </trkpt>
      <trkpt lat="45.53815" lon="6.76533">
        <ele>1367.1860382589</ele>
        <time>2019-07-06T05:50:52Z</time>
      </trkpt>
      <trkpt lat="45.53815" lon="6.76529">
        <ele>1367.7034849403</ele>
        <time>2019-07-06T05:50:54Z</time>
      </trkpt>
      <trkpt lat="45.53815" lon="6.76527">
        <ele>1367.3312598886</ele>
        <time>2019-07-06T05:50:56Z</time>
      </trkpt>
      <trkpt lat="45.53815" lon="6.76523">
        <ele>1366.530747557</ele>
        <time>2019-07-06T05:51:00Z</time>
      </trkpt>
      <trkpt lat="45.53815" lon="6.76519">
        <ele>1365.8208997814</ele>
        <time>2019-07-06T05:51:02Z</time>
      </trkpt>
      <trkpt lat="45.53815" lon="6.76517">
        <ele>1364.8703893425</ele>
        <time>2019-07-06T05:51:04Z</time>
      </trkpt>
      <trkpt lat="45.53815" lon="6.76514">
        <ele>1363.8071890867</ele>
        <time>2019-07-06T05:51:06Z</time>
      </trkpt>
      <trkpt lat="45.53814" lon="6.76509">
        <ele>1363.0129521219</ele>
        <time>2019-07-06T05:51:08Z</time>
      </trkpt>
      <trkpt lat="45.53815" lon="6.76506">
        <ele>1362.6494102874</ele>
        <time>2019-07-06T05:51:11Z</time>
      </trkpt>
      <trkpt lat="45.53814" lon="6.76504">
        <ele>1362.1548887142</ele>
        <time>2019-07-06T05:51:13Z</time>
      </trkpt>
      <trkpt lat="45.53812" lon="6.765">
        <ele>1361.5195264356</ele>
        <time>2019-07-06T05:51:15Z</time>
      </trkpt>
      <trkpt lat="45.53811" lon="6.76497">
        <ele>1360.9884329297</ele>
        <time>2019-07-06T05:51:17Z</time>
      </trkpt>
      <trkpt lat="45.53811" lon="6.76493">
        <ele>1361.0010744642</ele>
        <time>2019-07-06T05:51:19Z</time>
      </trkpt>
      <trkpt lat="45.53813" lon="6.7649">
        <ele>1361.1941376862</ele>
        <time>2019-07-06T05:51:21Z</time>
      </trkpt>
      <trkpt lat="45.53813" lon="6.76487">
        <ele>1361.3575780071</ele>
        <time>2019-07-06T05:51:22Z</time>
      </trkpt>
      <trkpt lat="45.53814" lon="6.76485">
        <ele>1361.101203706</ele>
        <time>2019-07-06T05:51:24Z</time>
      </trkpt>
      <trkpt lat="45.53817" lon="6.76483">
        <ele>1360.7939951961</ele>
        <time>2019-07-06T05:51:26Z</time>
      </trkpt>
      <trkpt lat="45.53817" lon="6.76479">
        <ele>1360.7797424239</ele>
        <time>2019-07-06T05:51:27Z</time>
      </trkpt>
      <trkpt lat="45.53819" lon="6.76475">
        <ele>1359.1222859377</ele>
        <time>2019-07-06T05:51:29Z</time>
      </trkpt>
      <trkpt lat="45.53819" lon="6.76472">
        <ele>1358.4157023316</ele>
        <time>2019-07-06T05:51:30Z</time>
      </trkpt>
      <trkpt lat="45.5382" lon="6.76469">
        <ele>1357.712032172</ele>
        <time>2019-07-06T05:51:32Z</time>
      </trkpt>
      <trkpt lat="45.53819" lon="6.76464">
        <ele>1356.4171168848</ele>
        <time>2019-07-06T05:51:34Z</time>
      </trkpt>
      <trkpt lat="45.53821" lon="6.76458">
        <ele>1355.3351003351</ele>
        <time>2019-07-06T05:51:36Z</time>
      </trkpt>
      <trkpt lat="45.53821" lon="6.76455">
        <ele>1354.5828253246</ele>
        <time>2019-07-06T05:51:38Z</time>
      </trkpt>
      <trkpt lat="45.53822" lon="6.76451">
        <ele>1353.9617357414</ele>
        <time>2019-07-06T05:51:40Z</time>
      </trkpt>
      <trkpt lat="45.53822" lon="6.76447">
        <ele>1353.3682005936</ele>
        <time>2019-07-06T05:51:42Z</time>
      </trkpt>
      <trkpt lat="45.53824" lon="6.76445">
        <ele>1352.8228701134</ele>
        <time>2019-07-06T05:51:44Z</time>
      </trkpt>
      <trkpt lat="45.53826" lon="6.76443">
        <ele>1352.6174755986</ele>
        <time>2019-07-06T05:51:46Z</time>
      </trkpt>
      <trkpt lat="45.53827" lon="6.76439">
        <ele>1352.7327757081</ele>
        <time>2019-07-06T05:51:48Z</time>
      </trkpt>
      <trkpt lat="45.53827" lon="6.76436">
        <ele>1352.5572210371</ele>
        <time>2019-07-06T05:51:49Z</time>
      </trkpt>
      <trkpt lat="45.53827" lon="6.76431">
        <ele>1352.3192532675</ele>
        <time>2019-07-06T05:51:51Z</time>
      </trkpt>
      <trkpt lat="45.53828" lon="6.76427">
        <ele>1352.3553892886</ele>
        <time>2019-07-06T05:51:53Z</time>
      </trkpt>
      <trkpt lat="45.5383" lon="6.76424">
        <ele>1352.5323998442</ele>
        <time>2019-07-06T05:51:56Z</time>
      </trkpt>
      <trkpt lat="45.5383" lon="6.76419">
        <ele>1353.2081638741</ele>
        <time>2019-07-06T05:51:58Z</time>
      </trkpt>
      <trkpt lat="45.5383" lon="6.76415">
        <ele>1353.8122982907</ele>
        <time>2019-07-06T05:52:00Z</time>
      </trkpt>
      <trkpt lat="45.53831" lon="6.76411">
        <ele>1354.6817777764</ele>
        <time>2019-07-06T05:52:02Z</time>
      </trkpt>
      <trkpt lat="45.53832" lon="6.76408">
        <ele>1354.7991065645</ele>
        <time>2019-07-06T05:52:04Z</time>
      </trkpt>
      <trkpt lat="45.53831" lon="6.76405">
        <ele>1354.6289162904</ele>
        <time>2019-07-06T05:52:05Z</time>
      </trkpt>
      <trkpt lat="45.53832" lon="6.76401">
        <ele>1353.6470537745</ele>
        <time>2019-07-06T05:52:07Z</time>
      </trkpt>
      <trkpt lat="45.53832" lon="6.76399">
        <ele>1352.8398875059</ele>
        <time>2019-07-06T05:52:09Z</time>
      </trkpt>
      <trkpt lat="45.53833" lon="6.76395">
        <ele>1351.5796582546</ele>
        <time>2019-07-06T05:52:11Z</time>
      </trkpt>
      <trkpt lat="45.53834" lon="6.76393">
        <ele>1350.7739016772</ele>
        <time>2019-07-06T05:52:12Z</time>
      </trkpt>
      <trkpt lat="45.53834" lon="6.76389">
        <ele>1349.386198301</ele>
        <time>2019-07-06T05:52:14Z</time>
      </trkpt>
      <trkpt lat="45.53836" lon="6.76386">
        <ele>1348.1927856789</ele>
        <time>2019-07-06T05:52:16Z</time>
      </trkpt>
      <trkpt lat="45.53837" lon="6.76382">
        <ele>1347.5622465781</ele>
        <time>2019-07-06T05:52:18Z</time>
      </trkpt>
      <trkpt lat="45.53839" lon="6.76379">
        <ele>1347.0914696371</ele>
        <time>2019-07-06T05:52:20Z</time>
      </trkpt>
      <trkpt lat="45.53839" lon="6.76375">
        <ele>1346.8719311256</ele>
        <time>2019-07-06T05:52:22Z</time>
      </trkpt>
      <trkpt lat="45.53839" lon="6.76372">
        <ele>1347.1513505139</ele>
        <time>2019-07-06T05:52:24Z</time>
      </trkpt>
      <trkpt lat="45.53839" lon="6.76368">
        <ele>1346.9551321178</ele>
        <time>2019-07-06T05:52:26Z</time>
      </trkpt>
      <trkpt lat="45.53839" lon="6.76365">
        <ele>1346.7791560283</ele>
        <time>2019-07-06T05:52:27Z</time>
      </trkpt>
      <trkpt lat="45.5384" lon="6.76362">
        <ele>1346.4699551644</ele>
        <time>2019-07-06T05:52:29Z</time>
      </trkpt>
      <trkpt lat="45.53842" lon="6.76359">
        <ele>1346.1187593584</ele>
        <time>2019-07-06T05:52:31Z</time>
      </trkpt>
      <trkpt lat="45.53844" lon="6.76357">
        <ele>1345.1447169199</ele>
        <time>2019-07-06T05:52:33Z</time>
      </trkpt>
      <trkpt lat="45.53846" lon="6.76353">
        <ele>1343.3634834861</ele>
        <time>2019-07-06T05:52:36Z</time>
      </trkpt>
      <trkpt lat="45.53846" lon="6.76349">
        <ele>1342.4389678266</ele>
        <time>2019-07-06T05:52:38Z</time>
      </trkpt>
      <trkpt lat="45.53846" lon="6.76345">
        <ele>1341.587568426</ele>
        <time>2019-07-06T05:52:40Z</time>
      </trkpt>
      <trkpt lat="45.53848" lon="6.76342">
        <ele>1340.788878386</ele>
        <time>2019-07-06T05:52:42Z</time>
      </trkpt>
      <trkpt lat="45.53848" lon="6.76339">
        <ele>1340.2987045895</ele>
        <time>2019-07-06T05:52:43Z</time>
      </trkpt>
      <trkpt lat="45.5385" lon="6.76336">
        <ele>1339.1865695541</ele>
        <time>2019-07-06T05:52:45Z</time>
      </trkpt>
      <trkpt lat="45.53851" lon="6.76334">
        <ele>1338.3186248404</ele>
        <time>2019-07-06T05:52:47Z</time>
      </trkpt>
      <trkpt lat="45.53853" lon="6.76331">
        <ele>1337.8217576534</ele>
        <time>2019-07-06T05:52:49Z</time>
      </trkpt>
      <trkpt lat="45.53855" lon="6.7633">
        <ele>1337.7643722459</ele>
        <time>2019-07-06T05:52:51Z</time>
      </trkpt>
      <trkpt lat="45.53856" lon="6.76326">
        <ele>1337.8210311549</ele>
        <time>2019-07-06T05:52:53Z</time>
      </trkpt>
      <trkpt lat="45.53857" lon="6.76324">
        <ele>1337.9742834189</ele>
        <time>2019-07-06T05:52:55Z</time>
      </trkpt>
      <trkpt lat="45.53859" lon="6.76322">
        <ele>1338.2230838117</ele>
        <time>2019-07-06T05:52:57Z</time>
      </trkpt>
      <trkpt lat="45.53862" lon="6.76319">
        <ele>1337.9155552318</ele>
        <time>2019-07-06T05:52:59Z</time>
      </trkpt>
      <trkpt lat="45.53864" lon="6.76316">
        <ele>1337.0210838203</ele>
        <time>2019-07-06T05:53:01Z</time>
      </trkpt>
      <trkpt lat="45.53864" lon="6.76312">
        <ele>1336.0408261683</ele>
        <time>2019-07-06T05:53:03Z</time>
      </trkpt>
      <trkpt lat="45.53866" lon="6.7631">
        <ele>1335.5685666402</ele>
        <time>2019-07-06T05:53:04Z</time>
      </trkpt>
      <trkpt lat="45.53867" lon="6.76307">
        <ele>1334.9962061246</ele>
        <time>2019-07-06T05:53:06Z</time>
      </trkpt>
      <trkpt lat="45.53868" lon="6.76305">
        <ele>1334.2847204057</ele>
        <time>2019-07-06T05:53:08Z</time>
      </trkpt>
      <trkpt lat="45.53869" lon="6.76303">
        <ele>1333.9615010571</ele>
        <time>2019-07-06T05:53:10Z</time>
      </trkpt>
      <trkpt lat="45.53872" lon="6.76301">
        <ele>1334.0983810473</ele>
        <time>2019-07-06T05:53:12Z</time>
      </trkpt>
      <trkpt lat="45.53873" lon="6.763">
        <ele>1334.2767800481</ele>
        <time>2019-07-06T05:53:13Z</time>
      </trkpt>
      <trkpt lat="45.53875" lon="6.76298">
        <ele>1334.5349198967</ele>
        <time>2019-07-06T05:53:15Z</time>
      </trkpt>
      <trkpt lat="45.53877" lon="6.76296">
        <ele>1334.466434997</ele>
        <time>2019-07-06T05:53:16Z</time>
      </trkpt>
      <trkpt lat="45.5388" lon="6.76293">
        <ele>1333.4150160036</ele>
        <time>2019-07-06T05:53:18Z</time>
      </trkpt>
      <trkpt lat="45.53882" lon="6.76291">
        <ele>1332.741928176</ele>
        <time>2019-07-06T05:53:20Z</time>
      </trkpt>
      <trkpt lat="45.53885" lon="6.76289">
        <ele>1332.3107481082</ele>
        <time>2019-07-06T05:53:22Z</time>
      </trkpt>
      <trkpt lat="45.53887" lon="6.76288">
        <ele>1331.7201410521</ele>
        <time>2019-07-06T05:53:24Z</time>
      </trkpt>
      <trkpt lat="45.53889" lon="6.76287">
        <ele>1330.9636326544</ele>
        <time>2019-07-06T05:53:26Z</time>
      </trkpt>
      <trkpt lat="45.53891" lon="6.76284">
        <ele>1329.7563696865</ele>
        <time>2019-07-06T05:53:29Z</time>
      </trkpt>
      <trkpt lat="45.53893" lon="6.76282">
        <ele>1329.6091086755</ele>
        <time>2019-07-06T05:53:31Z</time>
      </trkpt>
      <trkpt lat="45.53895" lon="6.76281">
        <ele>1329.1632903082</ele>
        <time>2019-07-06T05:53:33Z</time>
      </trkpt>
      <trkpt lat="45.53898" lon="6.7628">
        <ele>1328.9022067295</ele>
        <time>2019-07-06T05:53:35Z</time>
      </trkpt>
      <trkpt lat="45.539" lon="6.76281">
        <ele>1328.715247856</ele>
        <time>2019-07-06T05:53:37Z</time>
      </trkpt>
      <trkpt lat="45.53903" lon="6.7628">
        <ele>1328.5205370142</ele>
        <time>2019-07-06T05:53:39Z</time>
      </trkpt>
      <trkpt lat="45.53903" lon="6.76277">
        <ele>1328.3675008816</ele>
        <time>2019-07-06T05:53:41Z</time>
      </trkpt>
      <trkpt lat="45.53906" lon="6.76276">
        <ele>1327.4902366925</ele>
        <time>2019-07-06T05:53:43Z</time>
      </trkpt>
      <trkpt lat="45.53909" lon="6.76275">
        <ele>1326.1860503665</ele>
        <time>2019-07-06T05:53:45Z</time>
      </trkpt>
      <trkpt lat="45.53911" lon="6.76274">
        <ele>1325.4049287181</ele>
        <time>2019-07-06T05:53:47Z</time>
      </trkpt>
      <trkpt lat="45.53914" lon="6.76273">
        <ele>1324.8497260588</ele>
        <time>2019-07-06T05:53:49Z</time>
      </trkpt>
      <trkpt lat="45.53917" lon="6.76271">
        <ele>1324.3972519117</ele>
        <time>2019-07-06T05:53:51Z</time>
      </trkpt>
      <trkpt lat="45.53918" lon="6.76268">
        <ele>1323.4971719691</ele>
        <time>2019-07-06T05:53:53Z</time>
      </trkpt>
      <trkpt lat="45.53921" lon="6.76267">
        <ele>1322.4818998338</ele>
        <time>2019-07-06T05:53:55Z</time>
      </trkpt>
      <trkpt lat="45.53923" lon="6.76266">
        <ele>1321.4226877266</ele>
        <time>2019-07-06T05:53:57Z</time>
      </trkpt>
      <trkpt lat="45.53926" lon="6.76266">
        <ele>1320.1211369422</ele>
        <time>2019-07-06T05:54:00Z</time>
      </trkpt>
      <trkpt lat="45.53928" lon="6.76266">
        <ele>1319.3913280141</ele>
        <time>2019-07-06T05:54:02Z</time>
      </trkpt>
      <trkpt lat="45.5393" lon="6.76266">
        <ele>1319.061451363</ele>
        <time>2019-07-06T05:54:04Z</time>
      </trkpt>
      <trkpt lat="45.53933" lon="6.76263">
        <ele>1319.3738564966</ele>
        <time>2019-07-06T05:54:06Z</time>
      </trkpt>
      <trkpt lat="45.53933" lon="6.76259">
        <ele>1319.95248919</ele>
        <time>2019-07-06T05:54:07Z</time>
      </trkpt>
      <trkpt lat="45.53934" lon="6.76256">
        <ele>1320.4671955974</ele>
        <time>2019-07-06T05:54:08Z</time>
      </trkpt>
      <trkpt lat="45.53935" lon="6.76254">
        <ele>1320.7596510867</ele>
        <time>2019-07-06T05:54:10Z</time>
      </trkpt>
      <trkpt lat="45.53936" lon="6.76252">
        <ele>1321.3819330446</ele>
        <time>2019-07-06T05:54:12Z</time>
      </trkpt>
      <trkpt lat="45.53936" lon="6.76248">
        <ele>1321.2857115094</ele>
        <time>2019-07-06T05:54:14Z</time>
      </trkpt>
      <trkpt lat="45.53937" lon="6.76246">
        <ele>1321.6614599523</ele>
        <time>2019-07-06T05:54:15Z</time>
      </trkpt>
      <trkpt lat="45.53937" lon="6.76242">
        <ele>1322.2291570194</ele>
        <time>2019-07-06T05:54:17Z</time>
      </trkpt>
      <trkpt lat="45.53937" lon="6.76238">
        <ele>1322.4161254636</ele>
        <time>2019-07-06T05:54:19Z</time>
      </trkpt>
      <trkpt lat="45.53938" lon="6.76235">
        <ele>1322.5413506126</ele>
        <time>2019-07-06T05:54:21Z</time>
      </trkpt>
      <trkpt lat="45.53937" lon="6.76231">
        <ele>1322.7203330814</ele>
        <time>2019-07-06T05:54:22Z</time>
      </trkpt>
      <trkpt lat="45.53936" lon="6.76226">
        <ele>1322.2327599088</ele>
        <time>2019-07-06T05:54:24Z</time>
      </trkpt>
      <trkpt lat="45.53935" lon="6.76224">
        <ele>1321.8129579643</ele>
        <time>2019-07-06T05:54:25Z</time>
      </trkpt>
      <trkpt lat="45.53934" lon="6.76221">
        <ele>1320.878009552</ele>
        <time>2019-07-06T05:54:27Z</time>
      </trkpt>
      <trkpt lat="45.53935" lon="6.76217">
        <ele>1320.1854558647</ele>
        <time>2019-07-06T05:54:29Z</time>
      </trkpt>
      <trkpt lat="45.53937" lon="6.76215">
        <ele>1319.3418214999</ele>
        <time>2019-07-06T05:54:31Z</time>
      </trkpt>
      <trkpt lat="45.53936" lon="6.7621">
        <ele>1319.115681566</ele>
        <time>2019-07-06T05:54:33Z</time>
      </trkpt>
      <trkpt lat="45.53936" lon="6.76207">
        <ele>1318.9507784272</ele>
        <time>2019-07-06T05:54:35Z</time>
      </trkpt>
      <trkpt lat="45.53937" lon="6.76204">
        <ele>1318.1475616298</ele>
        <time>2019-07-06T05:54:37Z</time>
      </trkpt>
      <trkpt lat="45.53938" lon="6.76202">
        <ele>1317.4784633452</ele>
        <time>2019-07-06T05:54:40Z</time>
      </trkpt>
      <trkpt lat="45.53939" lon="6.76198">
        <ele>1317.4064660208</ele>
        <time>2019-07-06T05:54:43Z</time>
      </trkpt>
      <trkpt lat="45.5394" lon="6.76195">
        <ele>1317.0401310492</ele>
        <time>2019-07-06T05:54:45Z</time>
      </trkpt>
      <trkpt lat="45.53941" lon="6.76191">
        <ele>1316.7210481101</ele>
        <time>2019-07-06T05:54:47Z</time>
      </trkpt>
      <trkpt lat="45.53942" lon="6.76186">
        <ele>1316.0758178255</ele>
        <time>2019-07-06T05:54:49Z</time>
      </trkpt>
      <trkpt lat="45.53942" lon="6.76183">
        <ele>1315.0742196296</ele>
        <time>2019-07-06T05:54:51Z</time>
      </trkpt>
      <trkpt lat="45.53943" lon="6.7618">
        <ele>1314.8396059879</ele>
        <time>2019-07-06T05:54:52Z</time>
      </trkpt>
      <trkpt lat="45.53944" lon="6.76176">
        <ele>1314.1442260241</ele>
        <time>2019-07-06T05:54:54Z</time>
      </trkpt>
      <trkpt lat="45.53944" lon="6.76173">
        <ele>1313.9962370509</ele>
        <time>2019-07-06T05:54:55Z</time>
      </trkpt>
      <trkpt lat="45.53946" lon="6.7617">
        <ele>1314.0132803354</ele>
        <time>2019-07-06T05:54:57Z</time>
      </trkpt>
      <trkpt lat="45.53947" lon="6.76166">
        <ele>1313.6965376511</ele>
        <time>2019-07-06T05:54:59Z</time>
      </trkpt>
      <trkpt lat="45.53948" lon="6.76161">
        <ele>1313.6620028477</ele>
        <time>2019-07-06T05:55:01Z</time>
      </trkpt>
      <trkpt lat="45.53948" lon="6.76158">
        <ele>1313.4588645663</ele>
        <time>2019-07-06T05:55:02Z</time>
      </trkpt>
      <trkpt lat="45.53949" lon="6.76154">
        <ele>1312.9158867874</ele>
        <time>2019-07-06T05:55:04Z</time>
      </trkpt>
      <trkpt lat="45.5395" lon="6.7615">
        <ele>1312.4438421031</ele>
        <time>2019-07-06T05:55:06Z</time>
      </trkpt>
      <trkpt lat="45.53951" lon="6.76148">
        <ele>1312.4087872403</ele>
        <time>2019-07-06T05:55:08Z</time>
      </trkpt>
      <trkpt lat="45.53952" lon="6.76144">
        <ele>1312.550878625</ele>
        <time>2019-07-06T05:55:10Z</time>
      </trkpt>
      <trkpt lat="45.53954" lon="6.7614">
        <ele>1312.8364238661</ele>
        <time>2019-07-06T05:55:12Z</time>
      </trkpt>
      <trkpt lat="45.53956" lon="6.76137">
        <ele>1312.7014411703</ele>
        <time>2019-07-06T05:55:14Z</time>
      </trkpt>
      <trkpt lat="45.53957" lon="6.76134">
        <ele>1312.4031329579</ele>
        <time>2019-07-06T05:55:16Z</time>
      </trkpt>
      <trkpt lat="45.53958" lon="6.76129">
        <ele>1312.2555187655</ele>
        <time>2019-07-06T05:55:18Z</time>
      </trkpt>
      <trkpt lat="45.53959" lon="6.76125">
        <ele>1311.8244889473</ele>
        <time>2019-07-06T05:55:20Z</time>
      </trkpt>
      <trkpt lat="45.5396" lon="6.76122">
        <ele>1311.499645223</ele>
        <time>2019-07-06T05:55:22Z</time>
      </trkpt>
      <trkpt lat="45.53961" lon="6.7612">
        <ele>1311.5753263105</ele>
        <time>2019-07-06T05:55:23Z</time>
      </trkpt>
      <trkpt lat="45.53963" lon="6.76117">
        <ele>1311.3350152611</ele>
        <time>2019-07-06T05:55:25Z</time>
      </trkpt>
      <trkpt lat="45.53964" lon="6.76114">
        <ele>1310.7376529426</ele>
        <time>2019-07-06T05:55:27Z</time>
      </trkpt>
      <trkpt lat="45.53965" lon="6.76111">
        <ele>1310.0861696167</ele>
        <time>2019-07-06T05:55:29Z</time>
      </trkpt>
      <trkpt lat="45.53966" lon="6.76109">
        <ele>1309.9768545597</ele>
        <time>2019-07-06T05:55:30Z</time>
      </trkpt>
      <trkpt lat="45.53966" lon="6.76106">
        <ele>1310.0438202399</ele>
        <time>2019-07-06T05:55:31Z</time>
      </trkpt>
      <trkpt lat="45.53967" lon="6.76102">
        <ele>1309.514645947</ele>
        <time>2019-07-06T05:55:33Z</time>
      </trkpt>
      <trkpt lat="45.53969" lon="6.76098">
        <ele>1309.2057595495</ele>
        <time>2019-07-06T05:55:35Z</time>
      </trkpt>
      <trkpt lat="45.5397" lon="6.76094">
        <ele>1308.6250650371</ele>
        <time>2019-07-06T05:55:37Z</time>
      </trkpt>
      <trkpt lat="45.53971" lon="6.7609">
        <ele>1308.4748468035</ele>
        <time>2019-07-06T05:55:39Z</time>
      </trkpt>
      <trkpt lat="45.53972" lon="6.76086">
        <ele>1308.1464028876</ele>
        <time>2019-07-06T05:55:41Z</time>
      </trkpt>
      <trkpt lat="45.53972" lon="6.76083">
        <ele>1307.2489030392</ele>
        <time>2019-07-06T05:55:43Z</time>
      </trkpt>
      <trkpt lat="45.53974" lon="6.7608">
        <ele>1306.4379858014</ele>
        <time>2019-07-06T05:55:45Z</time>
      </trkpt>
      <trkpt lat="45.53973" lon="6.76077">
        <ele>1306.2224009156</ele>
        <time>2019-07-06T05:55:46Z</time>
      </trkpt>
      <trkpt lat="45.53974" lon="6.76073">
        <ele>1306.0949570303</ele>
        <time>2019-07-06T05:55:48Z</time>
      </trkpt>
      <trkpt lat="45.53975" lon="6.7607">
        <ele>1306.0371551656</ele>
        <time>2019-07-06T05:55:50Z</time>
      </trkpt>
      <trkpt lat="45.53976" lon="6.76067">
        <ele>1306.2660064947</ele>
        <time>2019-07-06T05:55:52Z</time>
      </trkpt>
      <trkpt lat="45.53976" lon="6.76064">
        <ele>1306.3226113958</ele>
        <time>2019-07-06T05:55:54Z</time>
      </trkpt>
      <trkpt lat="45.53978" lon="6.76061">
        <ele>1306.539119239</ele>
        <time>2019-07-06T05:55:56Z</time>
      </trkpt>
      <trkpt lat="45.53979" lon="6.76058">
        <ele>1306.8433293855</ele>
        <time>2019-07-06T05:55:57Z</time>
      </trkpt>
      <trkpt lat="45.5398" lon="6.76056">
        <ele>1307.0103755961</ele>
        <time>2019-07-06T05:55:58Z</time>
      </trkpt>
      <trkpt lat="45.5398" lon="6.76053">
        <ele>1306.927607787</ele>
        <time>2019-07-06T05:56:00Z</time>
      </trkpt>
      <trkpt lat="45.53982" lon="6.76049">
        <ele>1306.841577111</ele>
        <time>2019-07-06T05:56:02Z</time>
      </trkpt>
      <trkpt lat="45.53984" lon="6.76046">
        <ele>1306.4853825941</ele>
        <time>2019-07-06T05:56:04Z</time>
      </trkpt>
      <trkpt lat="45.53986" lon="6.76043">
        <ele>1306.4187974619</ele>
        <time>2019-07-06T05:56:06Z</time>
      </trkpt>
      <trkpt lat="45.53987" lon="6.7604">
        <ele>1306.0458004188</ele>
        <time>2019-07-06T05:56:08Z</time>
      </trkpt>
      <trkpt lat="45.53988" lon="6.76039">
        <ele>1306.2506186803</ele>
        <time>2019-07-06T05:56:10Z</time>
      </trkpt>
      <trkpt lat="45.5399" lon="6.76037">
        <ele>1306.0527065422</ele>
        <time>2019-07-06T05:56:11Z</time>
      </trkpt>
      <trkpt lat="45.53991" lon="6.76034">
        <ele>1305.7618656465</ele>
        <time>2019-07-06T05:56:12Z</time>
      </trkpt>
      <trkpt lat="45.53992" lon="6.7603">
        <ele>1304.7696719311</ele>
        <time>2019-07-06T05:56:14Z</time>
      </trkpt>
      <trkpt lat="45.53993" lon="6.76028">
        <ele>1304.3032250253</ele>
        <time>2019-07-06T05:56:15Z</time>
      </trkpt>
      <trkpt lat="45.53995" lon="6.76027">
        <ele>1304.0362504852</ele>
        <time>2019-07-06T05:56:16Z</time>
      </trkpt>
      <trkpt lat="45.53995" lon="6.76023">
        <ele>1303.4531916456</ele>
        <time>2019-07-06T05:56:18Z</time>
      </trkpt>
      <trkpt lat="45.53997" lon="6.7602">
        <ele>1303.5066951145</ele>
        <time>2019-07-06T05:56:20Z</time>
      </trkpt>
      <trkpt lat="45.53998" lon="6.76018">
        <ele>1303.5160054611</ele>
        <time>2019-07-06T05:56:22Z</time>
      </trkpt>
      <trkpt lat="45.54001" lon="6.76016">
        <ele>1303.3536159801</ele>
        <time>2019-07-06T05:56:24Z</time>
      </trkpt>
      <trkpt lat="45.54003" lon="6.76014">
        <ele>1302.9303415605</ele>
        <time>2019-07-06T05:56:26Z</time>
      </trkpt>
      <trkpt lat="45.54004" lon="6.76012">
        <ele>1302.8908333279</ele>
        <time>2019-07-06T05:56:27Z</time>
      </trkpt>
      <trkpt lat="45.54006" lon="6.7601">
        <ele>1302.7855416029</ele>
        <time>2019-07-06T05:56:29Z</time>
      </trkpt>
      <trkpt lat="45.54008" lon="6.76005">
        <ele>1302.5723242021</ele>
        <time>2019-07-06T05:56:31Z</time>
      </trkpt>
      <trkpt lat="45.54009" lon="6.76003">
        <ele>1302.4920440279</ele>
        <time>2019-07-06T05:56:33Z</time>
      </trkpt>
      <trkpt lat="45.5401" lon="6.75998">
        <ele>1302.6530443393</ele>
        <time>2019-07-06T05:56:35Z</time>
      </trkpt>
      <trkpt lat="45.5401" lon="6.75995">
        <ele>1303.2716528698</ele>
        <time>2019-07-06T05:56:37Z</time>
      </trkpt>
      <trkpt lat="45.5401" lon="6.75992">
        <ele>1304.1918694394</ele>
        <time>2019-07-06T05:56:39Z</time>
      </trkpt>
      <trkpt lat="45.54011" lon="6.75987">
        <ele>1304.5665319245</ele>
        <time>2019-07-06T05:56:42Z</time>
      </trkpt>
      <trkpt lat="45.54013" lon="6.75985">
        <ele>1303.4878985737</ele>
        <time>2019-07-06T05:56:44Z</time>
      </trkpt>
      <trkpt lat="45.54014" lon="6.75982">
        <ele>1302.8309976361</ele>
        <time>2019-07-06T05:56:45Z</time>
      </trkpt>
      <trkpt lat="45.54015" lon="6.75978">
        <ele>1301.9288153866</ele>
        <time>2019-07-06T05:56:47Z</time>
      </trkpt>
      <trkpt lat="45.54017" lon="6.75975">
        <ele>1300.6573340346</ele>
        <time>2019-07-06T05:56:49Z</time>
      </trkpt>
      <trkpt lat="45.54017" lon="6.75972">
        <ele>1300.1964121425</ele>
        <time>2019-07-06T05:56:51Z</time>
      </trkpt>
      <trkpt lat="45.54018" lon="6.75969">
        <ele>1300.0680846323</ele>
        <time>2019-07-06T05:56:53Z</time>
      </trkpt>
      <trkpt lat="45.54019" lon="6.75965">
        <ele>1299.909458016</ele>
        <time>2019-07-06T05:56:55Z</time>
      </trkpt>
      <trkpt lat="45.54021" lon="6.75962">
        <ele>1299.0915428405</ele>
        <time>2019-07-06T05:56:57Z</time>
      </trkpt>
      <trkpt lat="45.54022" lon="6.75959">
        <ele>1298.4574434566</ele>
        <time>2019-07-06T05:56:59Z</time>
      </trkpt>
    </trkseg>
  </trk>
</gpx>